<?xml version="1.0" encoding="UTF-8" standalone="no" ?>
<gpx xmlns="http://www.topografix.com/GPX/1/1" xmlns:xsi="http://www.w3.org/2001/XMLSchema-instance" xsi:schemaLocation="http://www.topografix.com/GPX/1/1 http://www.topografix.com/GPX/1/1/gpx.xsd" version="1.1" creator="VisuGPX - https://www.visugpx.com">
  <metadata>
    <name>fourneville</name>
    <desc><![CDATA[depart fourneville arrivée idem]]></desc>
  </metadata>
  <trk>
    <name><![CDATA[Sequence 1]]></name>
    <trkseg>
      <trkpt lat="49.37605" lon="0.25592">
        <ele>97</ele>
        <time>2017-03-30T12:05:20Z</time>
      </trkpt>
      <trkpt lat="49.37605" lon="0.25592">
        <ele>96</ele>
        <time>2017-03-30T12:05:23Z</time>
      </trkpt>
      <trkpt lat="49.37602" lon="0.25591">
        <ele>96</ele>
        <time>2017-03-30T12:05:26Z</time>
      </trkpt>
      <trkpt lat="49.37597" lon="0.2559">
        <ele>97</ele>
        <time>2017-03-30T12:05:32Z</time>
      </trkpt>
      <trkpt lat="49.37592" lon="0.25587">
        <ele>95</ele>
        <time>2017-03-30T12:05:38Z</time>
      </trkpt>
      <trkpt lat="49.37588" lon="0.25585">
        <ele>95</ele>
        <time>2017-03-30T12:05:44Z</time>
      </trkpt>
      <trkpt lat="49.37582" lon="0.25585">
        <ele>94</ele>
        <time>2017-03-30T12:05:50Z</time>
      </trkpt>
      <trkpt lat="49.37577" lon="0.25583">
        <ele>93</ele>
        <time>2017-03-30T12:05:57Z</time>
      </trkpt>
      <trkpt lat="49.37567" lon="0.25578">
        <ele>91</ele>
        <time>2017-03-30T12:06:05Z</time>
      </trkpt>
      <trkpt lat="49.37562" lon="0.25577">
        <ele>92</ele>
        <time>2017-03-30T12:06:09Z</time>
      </trkpt>
      <trkpt lat="49.37556" lon="0.25575">
        <ele>94</ele>
        <time>2017-03-30T12:06:14Z</time>
      </trkpt>
      <trkpt lat="49.37542" lon="0.25565">
        <ele>94</ele>
        <time>2017-03-30T12:06:24Z</time>
      </trkpt>
      <trkpt lat="49.37539" lon="0.25563">
        <ele>95</ele>
        <time>2017-03-30T12:06:26Z</time>
      </trkpt>
      <trkpt lat="49.37533" lon="0.25554">
        <ele>95</ele>
        <time>2017-03-30T12:06:32Z</time>
      </trkpt>
      <trkpt lat="49.3753" lon="0.2555">
        <ele>93</ele>
        <time>2017-03-30T12:06:38Z</time>
      </trkpt>
      <trkpt lat="49.37526" lon="0.25538">
        <ele>93</ele>
        <time>2017-03-30T12:06:44Z</time>
      </trkpt>
      <trkpt lat="49.37525" lon="0.25533">
        <ele>93</ele>
        <time>2017-03-30T12:06:50Z</time>
      </trkpt>
      <trkpt lat="49.37523" lon="0.25523">
        <ele>92</ele>
        <time>2017-03-30T12:06:56Z</time>
      </trkpt>
      <trkpt lat="49.37518" lon="0.25495">
        <ele>91</ele>
        <time>2017-03-30T12:07:07Z</time>
      </trkpt>
      <trkpt lat="49.37517" lon="0.25485">
        <ele>93</ele>
        <time>2017-03-30T12:07:12Z</time>
      </trkpt>
      <trkpt lat="49.37516" lon="0.2548">
        <ele>93</ele>
        <time>2017-03-30T12:07:14Z</time>
      </trkpt>
      <trkpt lat="49.37515" lon="0.25468">
        <ele>93</ele>
        <time>2017-03-30T12:07:20Z</time>
      </trkpt>
      <trkpt lat="49.37514" lon="0.25457">
        <ele>94</ele>
        <time>2017-03-30T12:07:27Z</time>
      </trkpt>
      <trkpt lat="49.37511" lon="0.25449">
        <ele>94</ele>
        <time>2017-03-30T12:07:32Z</time>
      </trkpt>
      <trkpt lat="49.3751" lon="0.25436">
        <ele>93</ele>
        <time>2017-03-30T12:07:39Z</time>
      </trkpt>
      <trkpt lat="49.37511" lon="0.25424">
        <ele>91</ele>
        <time>2017-03-30T12:07:48Z</time>
      </trkpt>
      <trkpt lat="49.37512" lon="0.25422">
        <ele>90</ele>
        <time>2017-03-30T12:07:50Z</time>
      </trkpt>
      <trkpt lat="49.37512" lon="0.25416">
        <ele>89</ele>
        <time>2017-03-30T12:07:56Z</time>
      </trkpt>
      <trkpt lat="49.37512" lon="0.25411">
        <ele>86</ele>
        <time>2017-03-30T12:08:02Z</time>
      </trkpt>
      <trkpt lat="49.37509" lon="0.25404">
        <ele>86</ele>
        <time>2017-03-30T12:08:08Z</time>
      </trkpt>
      <trkpt lat="49.37509" lon="0.25398">
        <ele>86</ele>
        <time>2017-03-30T12:08:14Z</time>
      </trkpt>
      <trkpt lat="49.37508" lon="0.25382">
        <ele>81</ele>
        <time>2017-03-30T12:08:23Z</time>
      </trkpt>
      <trkpt lat="49.37508" lon="0.25372">
        <ele>81</ele>
        <time>2017-03-30T12:08:27Z</time>
      </trkpt>
      <trkpt lat="49.37507" lon="0.25358">
        <ele>83</ele>
        <time>2017-03-30T12:08:32Z</time>
      </trkpt>
      <trkpt lat="49.37505" lon="0.25342">
        <ele>85</ele>
        <time>2017-03-30T12:08:38Z</time>
      </trkpt>
      <trkpt lat="49.37505" lon="0.25332">
        <ele>85</ele>
        <time>2017-03-30T12:08:44Z</time>
      </trkpt>
      <trkpt lat="49.37507" lon="0.25324">
        <ele>82</ele>
        <time>2017-03-30T12:08:50Z</time>
      </trkpt>
      <trkpt lat="49.37508" lon="0.25315">
        <ele>81</ele>
        <time>2017-03-30T12:08:56Z</time>
      </trkpt>
      <trkpt lat="49.37509" lon="0.25304">
        <ele>76</ele>
        <time>2017-03-30T12:09:07Z</time>
      </trkpt>
      <trkpt lat="49.37509" lon="0.2529">
        <ele>74</ele>
        <time>2017-03-30T12:09:13Z</time>
      </trkpt>
      <trkpt lat="49.37508" lon="0.25282">
        <ele>73</ele>
        <time>2017-03-30T12:09:17Z</time>
      </trkpt>
      <trkpt lat="49.37506" lon="0.25267">
        <ele>74</ele>
        <time>2017-03-30T12:09:25Z</time>
      </trkpt>
      <trkpt lat="49.37504" lon="0.25259">
        <ele>74</ele>
        <time>2017-03-30T12:09:30Z</time>
      </trkpt>
      <trkpt lat="49.37501" lon="0.25252">
        <ele>75</ele>
        <time>2017-03-30T12:09:34Z</time>
      </trkpt>
      <trkpt lat="49.37497" lon="0.25244">
        <ele>78</ele>
        <time>2017-03-30T12:09:38Z</time>
      </trkpt>
      <trkpt lat="49.37491" lon="0.25231">
        <ele>78</ele>
        <time>2017-03-30T12:09:46Z</time>
      </trkpt>
      <trkpt lat="49.37486" lon="0.2522">
        <ele>79</ele>
        <time>2017-03-30T12:09:52Z</time>
      </trkpt>
      <trkpt lat="49.37481" lon="0.25212">
        <ele>82</ele>
        <time>2017-03-30T12:09:56Z</time>
      </trkpt>
      <trkpt lat="49.37477" lon="0.25207">
        <ele>85</ele>
        <time>2017-03-30T12:10:02Z</time>
      </trkpt>
      <trkpt lat="49.37469" lon="0.252">
        <ele>89</ele>
        <time>2017-03-30T12:10:12Z</time>
      </trkpt>
      <trkpt lat="49.37468" lon="0.25198">
        <ele>88</ele>
        <time>2017-03-30T12:10:14Z</time>
      </trkpt>
      <trkpt lat="49.37455" lon="0.25189">
        <ele>87</ele>
        <time>2017-03-30T12:10:25Z</time>
      </trkpt>
      <trkpt lat="49.37452" lon="0.25186">
        <ele>87</ele>
        <time>2017-03-30T12:10:27Z</time>
      </trkpt>
      <trkpt lat="49.37447" lon="0.25182">
        <ele>84</ele>
        <time>2017-03-30T12:10:32Z</time>
      </trkpt>
      <trkpt lat="49.37439" lon="0.25183">
        <ele>85</ele>
        <time>2017-03-30T12:10:39Z</time>
      </trkpt>
      <trkpt lat="49.37434" lon="0.25188">
        <ele>86</ele>
        <time>2017-03-30T12:10:44Z</time>
      </trkpt>
      <trkpt lat="49.37431" lon="0.25197">
        <ele>84</ele>
        <time>2017-03-30T12:10:50Z</time>
      </trkpt>
      <trkpt lat="49.37426" lon="0.25213">
        <ele>83</ele>
        <time>2017-03-30T12:10:59Z</time>
      </trkpt>
      <trkpt lat="49.37423" lon="0.25224">
        <ele>89</ele>
        <time>2017-03-30T12:11:06Z</time>
      </trkpt>
      <trkpt lat="49.3742" lon="0.25229">
        <ele>89</ele>
        <time>2017-03-30T12:11:09Z</time>
      </trkpt>
      <trkpt lat="49.37416" lon="0.25239">
        <ele>88</ele>
        <time>2017-03-30T12:11:14Z</time>
      </trkpt>
      <trkpt lat="49.37408" lon="0.25262">
        <ele>89</ele>
        <time>2017-03-30T12:11:24Z</time>
      </trkpt>
      <trkpt lat="49.37407" lon="0.25265">
        <ele>89</ele>
        <time>2017-03-30T12:11:26Z</time>
      </trkpt>
      <trkpt lat="49.37403" lon="0.25273">
        <ele>91</ele>
        <time>2017-03-30T12:11:32Z</time>
      </trkpt>
      <trkpt lat="49.37399" lon="0.25284">
        <ele>90</ele>
        <time>2017-03-30T12:11:38Z</time>
      </trkpt>
      <trkpt lat="49.37396" lon="0.25292">
        <ele>89</ele>
        <time>2017-03-30T12:11:44Z</time>
      </trkpt>
      <trkpt lat="49.3739" lon="0.25308">
        <ele>86</ele>
        <time>2017-03-30T12:11:53Z</time>
      </trkpt>
      <trkpt lat="49.37388" lon="0.25315">
        <ele>86</ele>
        <time>2017-03-30T12:11:56Z</time>
      </trkpt>
      <trkpt lat="49.37385" lon="0.25325">
        <ele>86</ele>
        <time>2017-03-30T12:12:02Z</time>
      </trkpt>
      <trkpt lat="49.37375" lon="0.25337">
        <ele>89</ele>
        <time>2017-03-30T12:12:11Z</time>
      </trkpt>
      <trkpt lat="49.37371" lon="0.25337">
        <ele>89</ele>
        <time>2017-03-30T12:12:14Z</time>
      </trkpt>
      <trkpt lat="49.37356" lon="0.2533">
        <ele>90</ele>
        <time>2017-03-30T12:12:25Z</time>
      </trkpt>
      <trkpt lat="49.37354" lon="0.25329">
        <ele>88</ele>
        <time>2017-03-30T12:12:28Z</time>
      </trkpt>
      <trkpt lat="49.37348" lon="0.25326">
        <ele>89</ele>
        <time>2017-03-30T12:12:32Z</time>
      </trkpt>
      <trkpt lat="49.37339" lon="0.25318">
        <ele>90</ele>
        <time>2017-03-30T12:12:39Z</time>
      </trkpt>
      <trkpt lat="49.37325" lon="0.25307">
        <ele>95</ele>
        <time>2017-03-30T12:12:49Z</time>
      </trkpt>
      <trkpt lat="49.37317" lon="0.25302">
        <ele>97</ele>
        <time>2017-03-30T12:12:55Z</time>
      </trkpt>
      <trkpt lat="49.37312" lon="0.25302">
        <ele>95</ele>
        <time>2017-03-30T12:13:00Z</time>
      </trkpt>
      <trkpt lat="49.3731" lon="0.253">
        <ele>96</ele>
        <time>2017-03-30T12:13:02Z</time>
      </trkpt>
      <trkpt lat="49.37304" lon="0.25296">
        <ele>97</ele>
        <time>2017-03-30T12:13:08Z</time>
      </trkpt>
      <trkpt lat="49.373" lon="0.25293">
        <ele>94</ele>
        <time>2017-03-30T12:13:14Z</time>
      </trkpt>
      <trkpt lat="49.37291" lon="0.2529">
        <ele>95</ele>
        <time>2017-03-30T12:13:20Z</time>
      </trkpt>
      <trkpt lat="49.37285" lon="0.25287">
        <ele>97</ele>
        <time>2017-03-30T12:13:26Z</time>
      </trkpt>
      <trkpt lat="49.37277" lon="0.25288">
        <ele>100</ele>
        <time>2017-03-30T12:13:32Z</time>
      </trkpt>
      <trkpt lat="49.37273" lon="0.25287">
        <ele>99</ele>
        <time>2017-03-30T12:13:38Z</time>
      </trkpt>
      <trkpt lat="49.37265" lon="0.25287">
        <ele>98</ele>
        <time>2017-03-30T12:13:44Z</time>
      </trkpt>
      <trkpt lat="49.37253" lon="0.25289">
        <ele>98</ele>
        <time>2017-03-30T12:13:55Z</time>
      </trkpt>
      <trkpt lat="49.37252" lon="0.25288">
        <ele>99</ele>
        <time>2017-03-30T12:13:56Z</time>
      </trkpt>
      <trkpt lat="49.37247" lon="0.25289">
        <ele>97</ele>
        <time>2017-03-30T12:14:02Z</time>
      </trkpt>
      <trkpt lat="49.37244" lon="0.25287">
        <ele>99</ele>
        <time>2017-03-30T12:14:08Z</time>
      </trkpt>
      <trkpt lat="49.37241" lon="0.25287">
        <ele>97</ele>
        <time>2017-03-30T12:14:14Z</time>
      </trkpt>
      <trkpt lat="49.37238" lon="0.25285">
        <ele>95</ele>
        <time>2017-03-30T12:14:20Z</time>
      </trkpt>
      <trkpt lat="49.37232" lon="0.2529">
        <ele>98</ele>
        <time>2017-03-30T12:14:26Z</time>
      </trkpt>
      <trkpt lat="49.37222" lon="0.25297">
        <ele>93</ele>
        <time>2017-03-30T12:14:36Z</time>
      </trkpt>
      <trkpt lat="49.37219" lon="0.25298">
        <ele>93</ele>
        <time>2017-03-30T12:14:38Z</time>
      </trkpt>
      <trkpt lat="49.37211" lon="0.25296">
        <ele>95</ele>
        <time>2017-03-30T12:14:44Z</time>
      </trkpt>
      <trkpt lat="49.37203" lon="0.25295">
        <ele>94</ele>
        <time>2017-03-30T12:14:50Z</time>
      </trkpt>
      <trkpt lat="49.37197" lon="0.25293">
        <ele>91</ele>
        <time>2017-03-30T12:14:57Z</time>
      </trkpt>
      <trkpt lat="49.3719" lon="0.25291">
        <ele>88</ele>
        <time>2017-03-30T12:15:03Z</time>
      </trkpt>
      <trkpt lat="49.37178" lon="0.2528">
        <ele>86</ele>
        <time>2017-03-30T12:15:13Z</time>
      </trkpt>
      <trkpt lat="49.3717" lon="0.25273">
        <ele>88</ele>
        <time>2017-03-30T12:15:18Z</time>
      </trkpt>
      <trkpt lat="49.37163" lon="0.25268">
        <ele>89</ele>
        <time>2017-03-30T12:15:23Z</time>
      </trkpt>
      <trkpt lat="49.3716" lon="0.25265">
        <ele>88</ele>
        <time>2017-03-30T12:15:26Z</time>
      </trkpt>
      <trkpt lat="49.37154" lon="0.25261">
        <ele>89</ele>
        <time>2017-03-30T12:15:32Z</time>
      </trkpt>
      <trkpt lat="49.3715" lon="0.25258">
        <ele>84</ele>
        <time>2017-03-30T12:15:38Z</time>
      </trkpt>
      <trkpt lat="49.37145" lon="0.25251">
        <ele>83</ele>
        <time>2017-03-30T12:15:44Z</time>
      </trkpt>
      <trkpt lat="49.37145" lon="0.25247">
        <ele>86</ele>
        <time>2017-03-30T12:15:50Z</time>
      </trkpt>
      <trkpt lat="49.37137" lon="0.25233">
        <ele>82</ele>
        <time>2017-03-30T12:16:00Z</time>
      </trkpt>
      <trkpt lat="49.37135" lon="0.25229">
        <ele>83</ele>
        <time>2017-03-30T12:16:03Z</time>
      </trkpt>
      <trkpt lat="49.37135" lon="0.25219">
        <ele>85</ele>
        <time>2017-03-30T12:16:08Z</time>
      </trkpt>
      <trkpt lat="49.37132" lon="0.25213">
        <ele>83</ele>
        <time>2017-03-30T12:16:14Z</time>
      </trkpt>
      <trkpt lat="49.37124" lon="0.25196">
        <ele>83</ele>
        <time>2017-03-30T12:16:24Z</time>
      </trkpt>
      <trkpt lat="49.37122" lon="0.25192">
        <ele>82</ele>
        <time>2017-03-30T12:16:26Z</time>
      </trkpt>
      <trkpt lat="49.37116" lon="0.25183">
        <ele>78</ele>
        <time>2017-03-30T12:16:34Z</time>
      </trkpt>
      <trkpt lat="49.37111" lon="0.25173">
        <ele>78</ele>
        <time>2017-03-30T12:16:39Z</time>
      </trkpt>
      <trkpt lat="49.3711" lon="0.25164">
        <ele>82</ele>
        <time>2017-03-30T12:16:46Z</time>
      </trkpt>
      <trkpt lat="49.37108" lon="0.2516">
        <ele>79</ele>
        <time>2017-03-30T12:16:50Z</time>
      </trkpt>
      <trkpt lat="49.37104" lon="0.25152">
        <ele>77</ele>
        <time>2017-03-30T12:16:56Z</time>
      </trkpt>
      <trkpt lat="49.37102" lon="0.25143">
        <ele>74</ele>
        <time>2017-03-30T12:17:02Z</time>
      </trkpt>
      <trkpt lat="49.37098" lon="0.25126">
        <ele>72</ele>
        <time>2017-03-30T12:17:13Z</time>
      </trkpt>
      <trkpt lat="49.37097" lon="0.25122">
        <ele>71</ele>
        <time>2017-03-30T12:17:15Z</time>
      </trkpt>
      <trkpt lat="49.3709" lon="0.25106">
        <ele>74</ele>
        <time>2017-03-30T12:17:25Z</time>
      </trkpt>
      <trkpt lat="49.37086" lon="0.25095">
        <ele>75</ele>
        <time>2017-03-30T12:17:30Z</time>
      </trkpt>
      <trkpt lat="49.37084" lon="0.25093">
        <ele>75</ele>
        <time>2017-03-30T12:17:32Z</time>
      </trkpt>
      <trkpt lat="49.37076" lon="0.25084">
        <ele>75</ele>
        <time>2017-03-30T12:17:38Z</time>
      </trkpt>
      <trkpt lat="49.37075" lon="0.25074">
        <ele>76</ele>
        <time>2017-03-30T12:17:47Z</time>
      </trkpt>
      <trkpt lat="49.37074" lon="0.2507">
        <ele>73</ele>
        <time>2017-03-30T12:17:50Z</time>
      </trkpt>
      <trkpt lat="49.37065" lon="0.25061">
        <ele>71</ele>
        <time>2017-03-30T12:17:58Z</time>
      </trkpt>
      <trkpt lat="49.37055" lon="0.25051">
        <ele>66</ele>
        <time>2017-03-30T12:18:06Z</time>
      </trkpt>
      <trkpt lat="49.37051" lon="0.2505">
        <ele>66</ele>
        <time>2017-03-30T12:18:08Z</time>
      </trkpt>
      <trkpt lat="49.37049" lon="0.25041">
        <ele>63</ele>
        <time>2017-03-30T12:18:14Z</time>
      </trkpt>
      <trkpt lat="49.37044" lon="0.25032">
        <ele>58</ele>
        <time>2017-03-30T12:18:22Z</time>
      </trkpt>
      <trkpt lat="49.37043" lon="0.25025">
        <ele>59</ele>
        <time>2017-03-30T12:18:28Z</time>
      </trkpt>
      <trkpt lat="49.37042" lon="0.25021">
        <ele>58</ele>
        <time>2017-03-30T12:18:32Z</time>
      </trkpt>
      <trkpt lat="49.37037" lon="0.25016">
        <ele>59</ele>
        <time>2017-03-30T12:18:39Z</time>
      </trkpt>
      <trkpt lat="49.37036" lon="0.25012">
        <ele>58</ele>
        <time>2017-03-30T12:18:45Z</time>
      </trkpt>
      <trkpt lat="49.37032" lon="0.25002">
        <ele>57</ele>
        <time>2017-03-30T12:18:53Z</time>
      </trkpt>
      <trkpt lat="49.37028" lon="0.24995">
        <ele>56</ele>
        <time>2017-03-30T12:18:58Z</time>
      </trkpt>
      <trkpt lat="49.37022" lon="0.24987">
        <ele>54</ele>
        <time>2017-03-30T12:19:02Z</time>
      </trkpt>
      <trkpt lat="49.37019" lon="0.24977">
        <ele>50</ele>
        <time>2017-03-30T12:19:09Z</time>
      </trkpt>
      <trkpt lat="49.37012" lon="0.24965">
        <ele>51</ele>
        <time>2017-03-30T12:19:19Z</time>
      </trkpt>
      <trkpt lat="49.3701" lon="0.24963">
        <ele>53</ele>
        <time>2017-03-30T12:19:20Z</time>
      </trkpt>
      <trkpt lat="49.37004" lon="0.24951">
        <ele>58</ele>
        <time>2017-03-30T12:19:30Z</time>
      </trkpt>
      <trkpt lat="49.37001" lon="0.24948">
        <ele>58</ele>
        <time>2017-03-30T12:19:33Z</time>
      </trkpt>
      <trkpt lat="49.36998" lon="0.2494">
        <ele>54</ele>
        <time>2017-03-30T12:19:39Z</time>
      </trkpt>
      <trkpt lat="49.3699" lon="0.24931">
        <ele>58</ele>
        <time>2017-03-30T12:19:47Z</time>
      </trkpt>
      <trkpt lat="49.36988" lon="0.24925">
        <ele>61</ele>
        <time>2017-03-30T12:19:51Z</time>
      </trkpt>
      <trkpt lat="49.3698" lon="0.2491">
        <ele>61</ele>
        <time>2017-03-30T12:20:01Z</time>
      </trkpt>
      <trkpt lat="49.3698" lon="0.24908">
        <ele>61</ele>
        <time>2017-03-30T12:20:02Z</time>
      </trkpt>
      <trkpt lat="49.36977" lon="0.24896">
        <ele>60</ele>
        <time>2017-03-30T12:20:08Z</time>
      </trkpt>
      <trkpt lat="49.36972" lon="0.24884">
        <ele>62</ele>
        <time>2017-03-30T12:20:15Z</time>
      </trkpt>
      <trkpt lat="49.36971" lon="0.24876">
        <ele>57</ele>
        <time>2017-03-30T12:20:20Z</time>
      </trkpt>
      <trkpt lat="49.3697" lon="0.24865">
        <ele>55</ele>
        <time>2017-03-30T12:20:26Z</time>
      </trkpt>
      <trkpt lat="49.36962" lon="0.24853">
        <ele>50</ele>
        <time>2017-03-30T12:20:35Z</time>
      </trkpt>
      <trkpt lat="49.36963" lon="0.24836">
        <ele>41</ele>
        <time>2017-03-30T12:20:43Z</time>
      </trkpt>
      <trkpt lat="49.36963" lon="0.24834">
        <ele>41</ele>
        <time>2017-03-30T12:20:44Z</time>
      </trkpt>
      <trkpt lat="49.36961" lon="0.24819">
        <ele>44</ele>
        <time>2017-03-30T12:20:53Z</time>
      </trkpt>
      <trkpt lat="49.3696" lon="0.24807">
        <ele>50</ele>
        <time>2017-03-30T12:20:59Z</time>
      </trkpt>
      <trkpt lat="49.36959" lon="0.24803">
        <ele>54</ele>
        <time>2017-03-30T12:21:02Z</time>
      </trkpt>
      <trkpt lat="49.36958" lon="0.24792">
        <ele>53</ele>
        <time>2017-03-30T12:21:08Z</time>
      </trkpt>
      <trkpt lat="49.36955" lon="0.24782">
        <ele>54</ele>
        <time>2017-03-30T12:21:14Z</time>
      </trkpt>
      <trkpt lat="49.36948" lon="0.24763">
        <ele>53</ele>
        <time>2017-03-30T12:21:25Z</time>
      </trkpt>
      <trkpt lat="49.36948" lon="0.24753">
        <ele>50</ele>
        <time>2017-03-30T12:21:30Z</time>
      </trkpt>
      <trkpt lat="49.36948" lon="0.24749">
        <ele>49</ele>
        <time>2017-03-30T12:21:32Z</time>
      </trkpt>
      <trkpt lat="49.36945" lon="0.24735">
        <ele>49</ele>
        <time>2017-03-30T12:21:38Z</time>
      </trkpt>
      <trkpt lat="49.36943" lon="0.24724">
        <ele>51</ele>
        <time>2017-03-30T12:21:44Z</time>
      </trkpt>
      <trkpt lat="49.36939" lon="0.24718">
        <ele>54</ele>
        <time>2017-03-30T12:21:50Z</time>
      </trkpt>
      <trkpt lat="49.36932" lon="0.24709">
        <ele>58</ele>
        <time>2017-03-30T12:21:57Z</time>
      </trkpt>
      <trkpt lat="49.36927" lon="0.24702">
        <ele>62</ele>
        <time>2017-03-30T12:22:02Z</time>
      </trkpt>
      <trkpt lat="49.36919" lon="0.24691">
        <ele>57</ele>
        <time>2017-03-30T12:22:10Z</time>
      </trkpt>
      <trkpt lat="49.36917" lon="0.24684">
        <ele>50</ele>
        <time>2017-03-30T12:22:14Z</time>
      </trkpt>
      <trkpt lat="49.36913" lon="0.24675">
        <ele>47</ele>
        <time>2017-03-30T12:22:20Z</time>
      </trkpt>
      <trkpt lat="49.36907" lon="0.2467">
        <ele>55</ele>
        <time>2017-03-30T12:22:29Z</time>
      </trkpt>
      <trkpt lat="49.36903" lon="0.24668">
        <ele>57</ele>
        <time>2017-03-30T12:22:32Z</time>
      </trkpt>
      <trkpt lat="49.36899" lon="0.2466">
        <ele>56</ele>
        <time>2017-03-30T12:22:38Z</time>
      </trkpt>
      <trkpt lat="49.36895" lon="0.24654">
        <ele>57</ele>
        <time>2017-03-30T12:22:44Z</time>
      </trkpt>
      <trkpt lat="49.36889" lon="0.24649">
        <ele>52</ele>
        <time>2017-03-30T12:22:50Z</time>
      </trkpt>
      <trkpt lat="49.36885" lon="0.24646">
        <ele>51</ele>
        <time>2017-03-30T12:22:56Z</time>
      </trkpt>
      <trkpt lat="49.36883" lon="0.24642">
        <ele>48</ele>
        <time>2017-03-30T12:23:02Z</time>
      </trkpt>
      <trkpt lat="49.36878" lon="0.24639">
        <ele>43</ele>
        <time>2017-03-30T12:23:08Z</time>
      </trkpt>
      <trkpt lat="49.36865" lon="0.24631">
        <ele>42</ele>
        <time>2017-03-30T12:23:18Z</time>
      </trkpt>
      <trkpt lat="49.36862" lon="0.24629">
        <ele>41</ele>
        <time>2017-03-30T12:23:20Z</time>
      </trkpt>
      <trkpt lat="49.36852" lon="0.24621">
        <ele>41</ele>
        <time>2017-03-30T12:23:27Z</time>
      </trkpt>
      <trkpt lat="49.36843" lon="0.24615">
        <ele>44</ele>
        <time>2017-03-30T12:23:33Z</time>
      </trkpt>
      <trkpt lat="49.36832" lon="0.24606">
        <ele>47</ele>
        <time>2017-03-30T12:23:41Z</time>
      </trkpt>
      <trkpt lat="49.3683" lon="0.24603">
        <ele>48</ele>
        <time>2017-03-30T12:23:44Z</time>
      </trkpt>
      <trkpt lat="49.36825" lon="0.24602">
        <ele>52</ele>
        <time>2017-03-30T12:23:51Z</time>
      </trkpt>
      <trkpt lat="49.36819" lon="0.24593">
        <ele>55</ele>
        <time>2017-03-30T12:23:59Z</time>
      </trkpt>
      <trkpt lat="49.36816" lon="0.2459">
        <ele>55</ele>
        <time>2017-03-30T12:24:02Z</time>
      </trkpt>
      <trkpt lat="49.36812" lon="0.24584">
        <ele>55</ele>
        <time>2017-03-30T12:24:08Z</time>
      </trkpt>
      <trkpt lat="49.36807" lon="0.24576">
        <ele>56</ele>
        <time>2017-03-30T12:24:14Z</time>
      </trkpt>
      <trkpt lat="49.36796" lon="0.24563">
        <ele>56</ele>
        <time>2017-03-30T12:24:22Z</time>
      </trkpt>
      <trkpt lat="49.36793" lon="0.24558">
        <ele>60</ele>
        <time>2017-03-30T12:24:26Z</time>
      </trkpt>
      <trkpt lat="49.36789" lon="0.2455">
        <ele>59</ele>
        <time>2017-03-30T12:24:32Z</time>
      </trkpt>
      <trkpt lat="49.36785" lon="0.24541">
        <ele>58</ele>
        <time>2017-03-30T12:24:38Z</time>
      </trkpt>
      <trkpt lat="49.3678" lon="0.24526">
        <ele>64</ele>
        <time>2017-03-30T12:24:47Z</time>
      </trkpt>
      <trkpt lat="49.36778" lon="0.24524">
        <ele>70</ele>
        <time>2017-03-30T12:24:50Z</time>
      </trkpt>
      <trkpt lat="49.36774" lon="0.24515">
        <ele>66</ele>
        <time>2017-03-30T12:24:56Z</time>
      </trkpt>
      <trkpt lat="49.36771" lon="0.24508">
        <ele>68</ele>
        <time>2017-03-30T12:25:03Z</time>
      </trkpt>
      <trkpt lat="49.36766" lon="0.24497">
        <ele>62</ele>
        <time>2017-03-30T12:25:11Z</time>
      </trkpt>
      <trkpt lat="49.36762" lon="0.24492">
        <ele>60</ele>
        <time>2017-03-30T12:25:14Z</time>
      </trkpt>
      <trkpt lat="49.36756" lon="0.24484">
        <ele>60</ele>
        <time>2017-03-30T12:25:20Z</time>
      </trkpt>
      <trkpt lat="49.36746" lon="0.24466">
        <ele>54</ele>
        <time>2017-03-30T12:25:30Z</time>
      </trkpt>
      <trkpt lat="49.36743" lon="0.24459">
        <ele>62</ele>
        <time>2017-03-30T12:25:35Z</time>
      </trkpt>
      <trkpt lat="49.36742" lon="0.24455">
        <ele>63</ele>
        <time>2017-03-30T12:25:38Z</time>
      </trkpt>
      <trkpt lat="49.36734" lon="0.24444">
        <ele>65</ele>
        <time>2017-03-30T12:25:46Z</time>
      </trkpt>
      <trkpt lat="49.36728" lon="0.24436">
        <ele>67</ele>
        <time>2017-03-30T12:25:53Z</time>
      </trkpt>
      <trkpt lat="49.36729" lon="0.24432">
        <ele>71</ele>
        <time>2017-03-30T12:25:56Z</time>
      </trkpt>
      <trkpt lat="49.36724" lon="0.2442">
        <ele>75</ele>
        <time>2017-03-30T12:26:05Z</time>
      </trkpt>
      <trkpt lat="49.3672" lon="0.24414">
        <ele>73</ele>
        <time>2017-03-30T12:26:12Z</time>
      </trkpt>
      <trkpt lat="49.3672" lon="0.24411">
        <ele>71</ele>
        <time>2017-03-30T12:26:14Z</time>
      </trkpt>
      <trkpt lat="49.36718" lon="0.24404">
        <ele>73</ele>
        <time>2017-03-30T12:26:20Z</time>
      </trkpt>
      <trkpt lat="49.36714" lon="0.24397">
        <ele>71</ele>
        <time>2017-03-30T12:26:26Z</time>
      </trkpt>
      <trkpt lat="49.36711" lon="0.24389">
        <ele>75</ele>
        <time>2017-03-30T12:26:35Z</time>
      </trkpt>
      <trkpt lat="49.3671" lon="0.24387">
        <ele>75</ele>
        <time>2017-03-30T12:26:39Z</time>
      </trkpt>
      <trkpt lat="49.36708" lon="0.24386">
        <ele>76</ele>
        <time>2017-03-30T12:26:44Z</time>
      </trkpt>
      <trkpt lat="49.36707" lon="0.24383">
        <ele>78</ele>
        <time>2017-03-30T12:26:50Z</time>
      </trkpt>
      <trkpt lat="49.36696" lon="0.24371">
        <ele>75</ele>
        <time>2017-03-30T12:26:59Z</time>
      </trkpt>
      <trkpt lat="49.36687" lon="0.24355">
        <ele>78</ele>
        <time>2017-03-30T12:27:06Z</time>
      </trkpt>
      <trkpt lat="49.36681" lon="0.24347">
        <ele>80</ele>
        <time>2017-03-30T12:27:10Z</time>
      </trkpt>
      <trkpt lat="49.36678" lon="0.24341">
        <ele>80</ele>
        <time>2017-03-30T12:27:14Z</time>
      </trkpt>
      <trkpt lat="49.36674" lon="0.24335">
        <ele>82</ele>
        <time>2017-03-30T12:27:21Z</time>
      </trkpt>
      <trkpt lat="49.36671" lon="0.24332">
        <ele>82</ele>
        <time>2017-03-30T12:27:26Z</time>
      </trkpt>
      <trkpt lat="49.36668" lon="0.24326">
        <ele>86</ele>
        <time>2017-03-30T12:27:32Z</time>
      </trkpt>
      <trkpt lat="49.36667" lon="0.24321">
        <ele>87</ele>
        <time>2017-03-30T12:27:38Z</time>
      </trkpt>
      <trkpt lat="49.36661" lon="0.24309">
        <ele>83</ele>
        <time>2017-03-30T12:27:46Z</time>
      </trkpt>
      <trkpt lat="49.36658" lon="0.24299">
        <ele>80</ele>
        <time>2017-03-30T12:27:52Z</time>
      </trkpt>
      <trkpt lat="49.36653" lon="0.24293">
        <ele>79</ele>
        <time>2017-03-30T12:27:57Z</time>
      </trkpt>
      <trkpt lat="49.36647" lon="0.24288">
        <ele>80</ele>
        <time>2017-03-30T12:28:02Z</time>
      </trkpt>
      <trkpt lat="49.36639" lon="0.24283">
        <ele>79</ele>
        <time>2017-03-30T12:28:08Z</time>
      </trkpt>
      <trkpt lat="49.3663" lon="0.24278">
        <ele>76</ele>
        <time>2017-03-30T12:28:15Z</time>
      </trkpt>
      <trkpt lat="49.36624" lon="0.24273">
        <ele>77</ele>
        <time>2017-03-30T12:28:20Z</time>
      </trkpt>
      <trkpt lat="49.36615" lon="0.24267">
        <ele>79</ele>
        <time>2017-03-30T12:28:26Z</time>
      </trkpt>
      <trkpt lat="49.36606" lon="0.2426">
        <ele>85</ele>
        <time>2017-03-30T12:28:32Z</time>
      </trkpt>
      <trkpt lat="49.36599" lon="0.24253">
        <ele>86</ele>
        <time>2017-03-30T12:28:39Z</time>
      </trkpt>
      <trkpt lat="49.36592" lon="0.2425">
        <ele>88</ele>
        <time>2017-03-30T12:28:44Z</time>
      </trkpt>
      <trkpt lat="49.36578" lon="0.2424">
        <ele>98</ele>
        <time>2017-03-30T12:28:55Z</time>
      </trkpt>
      <trkpt lat="49.36576" lon="0.2424">
        <ele>96</ele>
        <time>2017-03-30T12:28:57Z</time>
      </trkpt>
      <trkpt lat="49.36568" lon="0.2424">
        <ele>95</ele>
        <time>2017-03-30T12:29:07Z</time>
      </trkpt>
      <trkpt lat="49.36563" lon="0.24233">
        <ele>93</ele>
        <time>2017-03-30T12:29:12Z</time>
      </trkpt>
      <trkpt lat="49.36562" lon="0.24233">
        <ele>93</ele>
        <time>2017-03-30T12:29:14Z</time>
      </trkpt>
      <trkpt lat="49.36557" lon="0.24228">
        <ele>89</ele>
        <time>2017-03-30T12:29:20Z</time>
      </trkpt>
      <trkpt lat="49.36551" lon="0.24223">
        <ele>84</ele>
        <time>2017-03-30T12:29:26Z</time>
      </trkpt>
      <trkpt lat="49.36546" lon="0.24215">
        <ele>79</ele>
        <time>2017-03-30T12:29:32Z</time>
      </trkpt>
      <trkpt lat="49.36542" lon="0.24208">
        <ele>78</ele>
        <time>2017-03-30T12:29:38Z</time>
      </trkpt>
      <trkpt lat="49.36536" lon="0.242">
        <ele>82</ele>
        <time>2017-03-30T12:29:47Z</time>
      </trkpt>
      <trkpt lat="49.36535" lon="0.24197">
        <ele>84</ele>
        <time>2017-03-30T12:29:50Z</time>
      </trkpt>
      <trkpt lat="49.36529" lon="0.24193">
        <ele>89</ele>
        <time>2017-03-30T12:29:56Z</time>
      </trkpt>
      <trkpt lat="49.36525" lon="0.24193">
        <ele>90</ele>
        <time>2017-03-30T12:30:02Z</time>
      </trkpt>
      <trkpt lat="49.36516" lon="0.2419">
        <ele>85</ele>
        <time>2017-03-30T12:30:13Z</time>
      </trkpt>
      <trkpt lat="49.36515" lon="0.24189">
        <ele>84</ele>
        <time>2017-03-30T12:30:15Z</time>
      </trkpt>
      <trkpt lat="49.36512" lon="0.24187">
        <ele>83</ele>
        <time>2017-03-30T12:30:20Z</time>
      </trkpt>
      <trkpt lat="49.36507" lon="0.24186">
        <ele>82</ele>
        <time>2017-03-30T12:30:26Z</time>
      </trkpt>
      <trkpt lat="49.365" lon="0.24182">
        <ele>79</ele>
        <time>2017-03-30T12:30:33Z</time>
      </trkpt>
      <trkpt lat="49.36488" lon="0.24179">
        <ele>82</ele>
        <time>2017-03-30T12:30:42Z</time>
      </trkpt>
      <trkpt lat="49.3648" lon="0.24173">
        <ele>81</ele>
        <time>2017-03-30T12:30:49Z</time>
      </trkpt>
      <trkpt lat="49.36478" lon="0.24173">
        <ele>79</ele>
        <time>2017-03-30T12:30:50Z</time>
      </trkpt>
      <trkpt lat="49.3647" lon="0.24173">
        <ele>79</ele>
        <time>2017-03-30T12:30:58Z</time>
      </trkpt>
      <trkpt lat="49.36468" lon="0.24171">
        <ele>79</ele>
        <time>2017-03-30T12:31:02Z</time>
      </trkpt>
      <trkpt lat="49.36462" lon="0.24166">
        <ele>77</ele>
        <time>2017-03-30T12:31:09Z</time>
      </trkpt>
      <trkpt lat="49.36455" lon="0.24161">
        <ele>72</ele>
        <time>2017-03-30T12:31:15Z</time>
      </trkpt>
      <trkpt lat="49.36449" lon="0.24156">
        <ele>74</ele>
        <time>2017-03-30T12:31:24Z</time>
      </trkpt>
      <trkpt lat="49.36446" lon="0.24154">
        <ele>73</ele>
        <time>2017-03-30T12:31:26Z</time>
      </trkpt>
      <trkpt lat="49.36445" lon="0.24146">
        <ele>74</ele>
        <time>2017-03-30T12:31:34Z</time>
      </trkpt>
      <trkpt lat="49.36444" lon="0.24143">
        <ele>75</ele>
        <time>2017-03-30T12:31:38Z</time>
      </trkpt>
      <trkpt lat="49.36434" lon="0.24131">
        <ele>75</ele>
        <time>2017-03-30T12:31:48Z</time>
      </trkpt>
      <trkpt lat="49.36431" lon="0.24127">
        <ele>75</ele>
        <time>2017-03-30T12:31:50Z</time>
      </trkpt>
      <trkpt lat="49.36421" lon="0.24109">
        <ele>68</ele>
        <time>2017-03-30T12:32:01Z</time>
      </trkpt>
      <trkpt lat="49.36421" lon="0.24108">
        <ele>70</ele>
        <time>2017-03-30T12:32:02Z</time>
      </trkpt>
      <trkpt lat="49.36415" lon="0.24105">
        <ele>67</ele>
        <time>2017-03-30T12:32:08Z</time>
      </trkpt>
      <trkpt lat="49.36402" lon="0.24087">
        <ele>70</ele>
        <time>2017-03-30T12:32:19Z</time>
      </trkpt>
      <trkpt lat="49.364" lon="0.24085">
        <ele>70</ele>
        <time>2017-03-30T12:32:20Z</time>
      </trkpt>
      <trkpt lat="49.36396" lon="0.24082">
        <ele>68</ele>
        <time>2017-03-30T12:32:26Z</time>
      </trkpt>
      <trkpt lat="49.36393" lon="0.24075">
        <ele>69</ele>
        <time>2017-03-30T12:32:33Z</time>
      </trkpt>
      <trkpt lat="49.36397" lon="0.24063">
        <ele>74</ele>
        <time>2017-03-30T12:32:38Z</time>
      </trkpt>
      <trkpt lat="49.36396" lon="0.24057">
        <ele>79</ele>
        <time>2017-03-30T12:32:44Z</time>
      </trkpt>
      <trkpt lat="49.36388" lon="0.24049">
        <ele>79</ele>
        <time>2017-03-30T12:32:50Z</time>
      </trkpt>
      <trkpt lat="49.36382" lon="0.24045">
        <ele>78</ele>
        <time>2017-03-30T12:32:57Z</time>
      </trkpt>
      <trkpt lat="49.36376" lon="0.24041">
        <ele>82</ele>
        <time>2017-03-30T12:33:02Z</time>
      </trkpt>
      <trkpt lat="49.36362" lon="0.24031">
        <ele>82</ele>
        <time>2017-03-30T12:33:12Z</time>
      </trkpt>
      <trkpt lat="49.3636" lon="0.24032">
        <ele>85</ele>
        <time>2017-03-30T12:33:14Z</time>
      </trkpt>
      <trkpt lat="49.36354" lon="0.24028">
        <ele>87</ele>
        <time>2017-03-30T12:33:20Z</time>
      </trkpt>
      <trkpt lat="49.36347" lon="0.24019">
        <ele>80</ele>
        <time>2017-03-30T12:33:29Z</time>
      </trkpt>
      <trkpt lat="49.36344" lon="0.24017">
        <ele>82</ele>
        <time>2017-03-30T12:33:32Z</time>
      </trkpt>
      <trkpt lat="49.36341" lon="0.24013">
        <ele>80</ele>
        <time>2017-03-30T12:33:38Z</time>
      </trkpt>
      <trkpt lat="49.36328" lon="0.24002">
        <ele>75</ele>
        <time>2017-03-30T12:33:48Z</time>
      </trkpt>
      <trkpt lat="49.36325" lon="0.23999">
        <ele>76</ele>
        <time>2017-03-30T12:33:50Z</time>
      </trkpt>
      <trkpt lat="49.36316" lon="0.23992">
        <ele>73</ele>
        <time>2017-03-30T12:33:57Z</time>
      </trkpt>
      <trkpt lat="49.36306" lon="0.23982">
        <ele>78</ele>
        <time>2017-03-30T12:34:07Z</time>
      </trkpt>
      <trkpt lat="49.36303" lon="0.23979">
        <ele>80</ele>
        <time>2017-03-30T12:34:11Z</time>
      </trkpt>
      <trkpt lat="49.36295" lon="0.23972">
        <ele>76</ele>
        <time>2017-03-30T12:34:19Z</time>
      </trkpt>
      <trkpt lat="49.36294" lon="0.23971">
        <ele>77</ele>
        <time>2017-03-30T12:34:20Z</time>
      </trkpt>
      <trkpt lat="49.36288" lon="0.23966">
        <ele>81</ele>
        <time>2017-03-30T12:34:26Z</time>
      </trkpt>
      <trkpt lat="49.36284" lon="0.23963">
        <ele>80</ele>
        <time>2017-03-30T12:34:32Z</time>
      </trkpt>
      <trkpt lat="49.36278" lon="0.23956">
        <ele>80</ele>
        <time>2017-03-30T12:34:38Z</time>
      </trkpt>
      <trkpt lat="49.36267" lon="0.23945">
        <ele>81</ele>
        <time>2017-03-30T12:34:48Z</time>
      </trkpt>
      <trkpt lat="49.36265" lon="0.23942">
        <ele>81</ele>
        <time>2017-03-30T12:34:50Z</time>
      </trkpt>
      <trkpt lat="49.3626" lon="0.23939">
        <ele>80</ele>
        <time>2017-03-30T12:34:56Z</time>
      </trkpt>
      <trkpt lat="49.3625" lon="0.23927">
        <ele>82</ele>
        <time>2017-03-30T12:35:07Z</time>
      </trkpt>
      <trkpt lat="49.36249" lon="0.23925">
        <ele>82</ele>
        <time>2017-03-30T12:35:08Z</time>
      </trkpt>
      <trkpt lat="49.36247" lon="0.23922">
        <ele>85</ele>
        <time>2017-03-30T12:35:14Z</time>
      </trkpt>
      <trkpt lat="49.36245" lon="0.23916">
        <ele>91</ele>
        <time>2017-03-30T12:35:20Z</time>
      </trkpt>
      <trkpt lat="49.36246" lon="0.23909">
        <ele>87</ele>
        <time>2017-03-30T12:35:26Z</time>
      </trkpt>
      <trkpt lat="49.36241" lon="0.23904">
        <ele>87</ele>
        <time>2017-03-30T12:35:32Z</time>
      </trkpt>
      <trkpt lat="49.36238" lon="0.239">
        <ele>86</ele>
        <time>2017-03-30T12:35:38Z</time>
      </trkpt>
      <trkpt lat="49.36233" lon="0.23892">
        <ele>84</ele>
        <time>2017-03-30T12:35:44Z</time>
      </trkpt>
      <trkpt lat="49.36228" lon="0.23886">
        <ele>88</ele>
        <time>2017-03-30T12:35:50Z</time>
      </trkpt>
      <trkpt lat="49.36219" lon="0.23875">
        <ele>87</ele>
        <time>2017-03-30T12:36:00Z</time>
      </trkpt>
      <trkpt lat="49.36211" lon="0.23862">
        <ele>86</ele>
        <time>2017-03-30T12:36:07Z</time>
      </trkpt>
      <trkpt lat="49.36205" lon="0.23853">
        <ele>89</ele>
        <time>2017-03-30T12:36:13Z</time>
      </trkpt>
      <trkpt lat="49.36205" lon="0.23852">
        <ele>89</ele>
        <time>2017-03-30T12:36:14Z</time>
      </trkpt>
      <trkpt lat="49.36203" lon="0.23849">
        <ele>91</ele>
        <time>2017-03-30T12:36:17Z</time>
      </trkpt>
      <trkpt lat="49.36197" lon="0.23839">
        <ele>95</ele>
        <time>2017-03-30T12:36:23Z</time>
      </trkpt>
      <trkpt lat="49.36193" lon="0.23834">
        <ele>94</ele>
        <time>2017-03-30T12:36:29Z</time>
      </trkpt>
      <trkpt lat="49.36188" lon="0.23825">
        <ele>87</ele>
        <time>2017-03-30T12:36:35Z</time>
      </trkpt>
      <trkpt lat="49.36183" lon="0.23818">
        <ele>88</ele>
        <time>2017-03-30T12:36:41Z</time>
      </trkpt>
      <trkpt lat="49.36181" lon="0.23812">
        <ele>89</ele>
        <time>2017-03-30T12:36:47Z</time>
      </trkpt>
      <trkpt lat="49.36178" lon="0.23808">
        <ele>95</ele>
        <time>2017-03-30T12:36:54Z</time>
      </trkpt>
      <trkpt lat="49.36174" lon="0.23803">
        <ele>98</ele>
        <time>2017-03-30T12:37:02Z</time>
      </trkpt>
      <trkpt lat="49.3617" lon="0.23794">
        <ele>93</ele>
        <time>2017-03-30T12:37:08Z</time>
      </trkpt>
      <trkpt lat="49.36168" lon="0.23793">
        <ele>95</ele>
        <time>2017-03-30T12:37:11Z</time>
      </trkpt>
      <trkpt lat="49.36163" lon="0.23786">
        <ele>100</ele>
        <time>2017-03-30T12:37:17Z</time>
      </trkpt>
      <trkpt lat="49.36157" lon="0.23777">
        <ele>101</ele>
        <time>2017-03-30T12:37:24Z</time>
      </trkpt>
      <trkpt lat="49.36153" lon="0.23773">
        <ele>99</ele>
        <time>2017-03-30T12:37:29Z</time>
      </trkpt>
      <trkpt lat="49.36148" lon="0.23767">
        <ele>101</ele>
        <time>2017-03-30T12:37:35Z</time>
      </trkpt>
      <trkpt lat="49.36143" lon="0.23758">
        <ele>104</ele>
        <time>2017-03-30T12:37:41Z</time>
      </trkpt>
      <trkpt lat="49.36138" lon="0.23749">
        <ele>100</ele>
        <time>2017-03-30T12:37:50Z</time>
      </trkpt>
      <trkpt lat="49.36137" lon="0.23749">
        <ele>100</ele>
        <time>2017-03-30T12:37:53Z</time>
      </trkpt>
      <trkpt lat="49.36135" lon="0.23745">
        <ele>102</ele>
        <time>2017-03-30T12:38:00Z</time>
      </trkpt>
      <trkpt lat="49.36134" lon="0.23745">
        <ele>102</ele>
        <time>2017-03-30T12:38:02Z</time>
      </trkpt>
      <trkpt lat="49.36134" lon="0.23745">
        <ele>103</ele>
        <time>2017-03-30T12:38:05Z</time>
      </trkpt>
      <trkpt lat="49.36133" lon="0.23745">
        <ele>104</ele>
        <time>2017-03-30T12:38:10Z</time>
      </trkpt>
      <trkpt lat="49.36133" lon="0.23745">
        <ele>104</ele>
        <time>2017-03-30T12:38:12Z</time>
      </trkpt>
      <trkpt lat="49.36133" lon="0.23745">
        <ele>104</ele>
        <time>2017-03-30T12:38:14Z</time>
      </trkpt>
      <trkpt lat="49.36133" lon="0.23745">
        <ele>104</ele>
        <time>2017-03-30T12:38:17Z</time>
      </trkpt>
      <trkpt lat="49.36133" lon="0.23745">
        <ele>104</ele>
        <time>2017-03-30T12:38:20Z</time>
      </trkpt>
      <trkpt lat="49.36132" lon="0.23745">
        <ele>104</ele>
        <time>2017-03-30T12:38:23Z</time>
      </trkpt>
      <trkpt lat="49.36132" lon="0.23746">
        <ele>104</ele>
        <time>2017-03-30T12:38:26Z</time>
      </trkpt>
      <trkpt lat="49.36132" lon="0.23746">
        <ele>104</ele>
        <time>2017-03-30T12:38:29Z</time>
      </trkpt>
      <trkpt lat="49.36132" lon="0.23745">
        <ele>104</ele>
        <time>2017-03-30T12:38:32Z</time>
      </trkpt>
      <trkpt lat="49.36132" lon="0.23745">
        <ele>104</ele>
        <time>2017-03-30T12:38:36Z</time>
      </trkpt>
      <trkpt lat="49.36132" lon="0.23745">
        <ele>105</ele>
        <time>2017-03-30T12:38:38Z</time>
      </trkpt>
      <trkpt lat="49.36132" lon="0.23745">
        <ele>105</ele>
        <time>2017-03-30T12:38:41Z</time>
      </trkpt>
      <trkpt lat="49.36132" lon="0.23745">
        <ele>105</ele>
        <time>2017-03-30T12:38:44Z</time>
      </trkpt>
      <trkpt lat="49.36132" lon="0.23745">
        <ele>105</ele>
        <time>2017-03-30T12:38:47Z</time>
      </trkpt>
      <trkpt lat="49.36132" lon="0.23745">
        <ele>105</ele>
        <time>2017-03-30T12:38:50Z</time>
      </trkpt>
      <trkpt lat="49.36132" lon="0.23745">
        <ele>105</ele>
        <time>2017-03-30T12:38:53Z</time>
      </trkpt>
      <trkpt lat="49.36132" lon="0.23745">
        <ele>105</ele>
        <time>2017-03-30T12:38:56Z</time>
      </trkpt>
      <trkpt lat="49.36132" lon="0.23745">
        <ele>105</ele>
        <time>2017-03-30T12:39:01Z</time>
      </trkpt>
      <trkpt lat="49.36132" lon="0.23745">
        <ele>105</ele>
        <time>2017-03-30T12:39:02Z</time>
      </trkpt>
      <trkpt lat="49.36132" lon="0.23745">
        <ele>105</ele>
        <time>2017-03-30T12:39:05Z</time>
      </trkpt>
      <trkpt lat="49.36132" lon="0.23745">
        <ele>105</ele>
        <time>2017-03-30T12:39:08Z</time>
      </trkpt>
      <trkpt lat="49.36132" lon="0.23745">
        <ele>105</ele>
        <time>2017-03-30T12:39:11Z</time>
      </trkpt>
      <trkpt lat="49.36132" lon="0.23745">
        <ele>105</ele>
        <time>2017-03-30T12:39:14Z</time>
      </trkpt>
      <trkpt lat="49.36132" lon="0.23744">
        <ele>105</ele>
        <time>2017-03-30T12:39:17Z</time>
      </trkpt>
      <trkpt lat="49.36129" lon="0.23742">
        <ele>103</ele>
        <time>2017-03-30T12:39:22Z</time>
      </trkpt>
      <trkpt lat="49.36128" lon="0.23742">
        <ele>103</ele>
        <time>2017-03-30T12:39:26Z</time>
      </trkpt>
      <trkpt lat="49.36122" lon="0.23734">
        <ele>109</ele>
        <time>2017-03-30T12:39:34Z</time>
      </trkpt>
      <trkpt lat="49.36121" lon="0.23733">
        <ele>109</ele>
        <time>2017-03-30T12:39:35Z</time>
      </trkpt>
      <trkpt lat="49.36118" lon="0.23728">
        <ele>110</ele>
        <time>2017-03-30T12:39:41Z</time>
      </trkpt>
      <trkpt lat="49.36111" lon="0.23727">
        <ele>110</ele>
        <time>2017-03-30T12:39:47Z</time>
      </trkpt>
      <trkpt lat="49.36104" lon="0.23726">
        <ele>112</ele>
        <time>2017-03-30T12:39:53Z</time>
      </trkpt>
      <trkpt lat="49.36093" lon="0.23727">
        <ele>116</ele>
        <time>2017-03-30T12:39:59Z</time>
      </trkpt>
      <trkpt lat="49.36082" lon="0.23721">
        <ele>110</ele>
        <time>2017-03-30T12:40:09Z</time>
      </trkpt>
      <trkpt lat="49.36082" lon="0.2372">
        <ele>109</ele>
        <time>2017-03-30T12:40:12Z</time>
      </trkpt>
      <trkpt lat="49.36078" lon="0.23716">
        <ele>104</ele>
        <time>2017-03-30T12:40:18Z</time>
      </trkpt>
      <trkpt lat="49.36076" lon="0.23716">
        <ele>105</ele>
        <time>2017-03-30T12:40:20Z</time>
      </trkpt>
      <trkpt lat="49.36071" lon="0.23716">
        <ele>108</ele>
        <time>2017-03-30T12:40:26Z</time>
      </trkpt>
      <trkpt lat="49.36061" lon="0.23707">
        <ele>103</ele>
        <time>2017-03-30T12:40:35Z</time>
      </trkpt>
      <trkpt lat="49.36057" lon="0.23708">
        <ele>107</ele>
        <time>2017-03-30T12:40:38Z</time>
      </trkpt>
      <trkpt lat="49.36048" lon="0.23705">
        <ele>114</ele>
        <time>2017-03-30T12:40:46Z</time>
      </trkpt>
      <trkpt lat="49.36041" lon="0.23705">
        <ele>114</ele>
        <time>2017-03-30T12:40:50Z</time>
      </trkpt>
      <trkpt lat="49.36031" lon="0.23697">
        <ele>111</ele>
        <time>2017-03-30T12:40:57Z</time>
      </trkpt>
      <trkpt lat="49.36019" lon="0.23688">
        <ele>103</ele>
        <time>2017-03-30T12:41:06Z</time>
      </trkpt>
      <trkpt lat="49.36009" lon="0.23682">
        <ele>102</ele>
        <time>2017-03-30T12:41:12Z</time>
      </trkpt>
      <trkpt lat="49.36006" lon="0.23682">
        <ele>102</ele>
        <time>2017-03-30T12:41:14Z</time>
      </trkpt>
      <trkpt lat="49.35998" lon="0.23677">
        <ele>105</ele>
        <time>2017-03-30T12:41:20Z</time>
      </trkpt>
      <trkpt lat="49.35992" lon="0.23673">
        <ele>106</ele>
        <time>2017-03-30T12:41:26Z</time>
      </trkpt>
      <trkpt lat="49.35988" lon="0.23673">
        <ele>110</ele>
        <time>2017-03-30T12:41:32Z</time>
      </trkpt>
      <trkpt lat="49.35981" lon="0.23669">
        <ele>109</ele>
        <time>2017-03-30T12:41:38Z</time>
      </trkpt>
      <trkpt lat="49.35965" lon="0.23664">
        <ele>110</ele>
        <time>2017-03-30T12:41:47Z</time>
      </trkpt>
      <trkpt lat="49.35962" lon="0.23663">
        <ele>111</ele>
        <time>2017-03-30T12:41:50Z</time>
      </trkpt>
      <trkpt lat="49.35953" lon="0.23661">
        <ele>111</ele>
        <time>2017-03-30T12:41:56Z</time>
      </trkpt>
      <trkpt lat="49.35945" lon="0.23657">
        <ele>112</ele>
        <time>2017-03-30T12:42:02Z</time>
      </trkpt>
      <trkpt lat="49.3594" lon="0.23655">
        <ele>111</ele>
        <time>2017-03-30T12:42:10Z</time>
      </trkpt>
      <trkpt lat="49.35932" lon="0.23654">
        <ele>112</ele>
        <time>2017-03-30T12:42:15Z</time>
      </trkpt>
      <trkpt lat="49.35921" lon="0.23652">
        <ele>111</ele>
        <time>2017-03-30T12:42:20Z</time>
      </trkpt>
      <trkpt lat="49.35914" lon="0.23649">
        <ele>112</ele>
        <time>2017-03-30T12:42:26Z</time>
      </trkpt>
      <trkpt lat="49.35907" lon="0.23648">
        <ele>112</ele>
        <time>2017-03-30T12:42:33Z</time>
      </trkpt>
      <trkpt lat="49.35894" lon="0.2364">
        <ele>107</ele>
        <time>2017-03-30T12:42:41Z</time>
      </trkpt>
      <trkpt lat="49.35885" lon="0.23635">
        <ele>108</ele>
        <time>2017-03-30T12:42:46Z</time>
      </trkpt>
      <trkpt lat="49.35878" lon="0.23626">
        <ele>106</ele>
        <time>2017-03-30T12:42:55Z</time>
      </trkpt>
      <trkpt lat="49.35873" lon="0.23623">
        <ele>108</ele>
        <time>2017-03-30T12:42:58Z</time>
      </trkpt>
      <trkpt lat="49.35866" lon="0.23619">
        <ele>107</ele>
        <time>2017-03-30T12:43:02Z</time>
      </trkpt>
      <trkpt lat="49.35862" lon="0.23617">
        <ele>109</ele>
        <time>2017-03-30T12:43:08Z</time>
      </trkpt>
      <trkpt lat="49.35853" lon="0.23611">
        <ele>109</ele>
        <time>2017-03-30T12:43:17Z</time>
      </trkpt>
      <trkpt lat="49.35848" lon="0.23608">
        <ele>110</ele>
        <time>2017-03-30T12:43:20Z</time>
      </trkpt>
      <trkpt lat="49.35842" lon="0.23608">
        <ele>113</ele>
        <time>2017-03-30T12:43:26Z</time>
      </trkpt>
      <trkpt lat="49.35839" lon="0.23605">
        <ele>113</ele>
        <time>2017-03-30T12:43:32Z</time>
      </trkpt>
      <trkpt lat="49.35827" lon="0.23603">
        <ele>115</ele>
        <time>2017-03-30T12:43:40Z</time>
      </trkpt>
      <trkpt lat="49.3582" lon="0.23603">
        <ele>114</ele>
        <time>2017-03-30T12:43:44Z</time>
      </trkpt>
      <trkpt lat="49.35815" lon="0.23601">
        <ele>112</ele>
        <time>2017-03-30T12:43:51Z</time>
      </trkpt>
      <trkpt lat="49.35812" lon="0.23598">
        <ele>109</ele>
        <time>2017-03-30T12:43:58Z</time>
      </trkpt>
      <trkpt lat="49.35811" lon="0.23598">
        <ele>110</ele>
        <time>2017-03-30T12:44:02Z</time>
      </trkpt>
      <trkpt lat="49.3581" lon="0.23598">
        <ele>111</ele>
        <time>2017-03-30T12:44:05Z</time>
      </trkpt>
      <trkpt lat="49.3581" lon="0.23597">
        <ele>111</ele>
        <time>2017-03-30T12:44:08Z</time>
      </trkpt>
      <trkpt lat="49.35807" lon="0.23595">
        <ele>112</ele>
        <time>2017-03-30T12:44:11Z</time>
      </trkpt>
      <trkpt lat="49.35802" lon="0.23597">
        <ele>112</ele>
        <time>2017-03-30T12:44:17Z</time>
      </trkpt>
      <trkpt lat="49.3579" lon="0.23596">
        <ele>115</ele>
        <time>2017-03-30T12:44:24Z</time>
      </trkpt>
      <trkpt lat="49.35781" lon="0.23591">
        <ele>116</ele>
        <time>2017-03-30T12:44:29Z</time>
      </trkpt>
      <trkpt lat="49.35773" lon="0.23587">
        <ele>116</ele>
        <time>2017-03-30T12:44:35Z</time>
      </trkpt>
      <trkpt lat="49.35764" lon="0.23584">
        <ele>110</ele>
        <time>2017-03-30T12:44:41Z</time>
      </trkpt>
      <trkpt lat="49.35756" lon="0.23576">
        <ele>108</ele>
        <time>2017-03-30T12:44:48Z</time>
      </trkpt>
      <trkpt lat="49.35748" lon="0.23567">
        <ele>107</ele>
        <time>2017-03-30T12:44:55Z</time>
      </trkpt>
      <trkpt lat="49.35745" lon="0.23561">
        <ele>106</ele>
        <time>2017-03-30T12:44:59Z</time>
      </trkpt>
      <trkpt lat="49.35739" lon="0.23556">
        <ele>105</ele>
        <time>2017-03-30T12:45:05Z</time>
      </trkpt>
      <trkpt lat="49.35733" lon="0.2355">
        <ele>106</ele>
        <time>2017-03-30T12:45:11Z</time>
      </trkpt>
      <trkpt lat="49.35726" lon="0.23548">
        <ele>107</ele>
        <time>2017-03-30T12:45:17Z</time>
      </trkpt>
      <trkpt lat="49.35721" lon="0.23544">
        <ele>108</ele>
        <time>2017-03-30T12:45:23Z</time>
      </trkpt>
      <trkpt lat="49.35713" lon="0.23543">
        <ele>112</ele>
        <time>2017-03-30T12:45:32Z</time>
      </trkpt>
      <trkpt lat="49.35712" lon="0.23542">
        <ele>108</ele>
        <time>2017-03-30T12:45:36Z</time>
      </trkpt>
      <trkpt lat="49.35706" lon="0.23546">
        <ele>110</ele>
        <time>2017-03-30T12:45:41Z</time>
      </trkpt>
      <trkpt lat="49.35707" lon="0.23545">
        <ele>108</ele>
        <time>2017-03-30T12:45:47Z</time>
      </trkpt>
      <trkpt lat="49.35706" lon="0.23546">
        <ele>109</ele>
        <time>2017-03-30T12:45:50Z</time>
      </trkpt>
      <trkpt lat="49.35706" lon="0.23547">
        <ele>108</ele>
        <time>2017-03-30T12:45:53Z</time>
      </trkpt>
      <trkpt lat="49.35704" lon="0.23547">
        <ele>107</ele>
        <time>2017-03-30T12:45:59Z</time>
      </trkpt>
      <trkpt lat="49.35698" lon="0.23547">
        <ele>107</ele>
        <time>2017-03-30T12:46:03Z</time>
      </trkpt>
      <trkpt lat="49.35692" lon="0.23552">
        <ele>108</ele>
        <time>2017-03-30T12:46:10Z</time>
      </trkpt>
      <trkpt lat="49.35692" lon="0.23553">
        <ele>106</ele>
        <time>2017-03-30T12:46:14Z</time>
      </trkpt>
      <trkpt lat="49.35687" lon="0.23551">
        <ele>107</ele>
        <time>2017-03-30T12:46:22Z</time>
      </trkpt>
      <trkpt lat="49.35687" lon="0.23551">
        <ele>108</ele>
        <time>2017-03-30T12:46:24Z</time>
      </trkpt>
      <trkpt lat="49.35686" lon="0.23551">
        <ele>108</ele>
        <time>2017-03-30T12:46:26Z</time>
      </trkpt>
      <trkpt lat="49.35686" lon="0.23551">
        <ele>108</ele>
        <time>2017-03-30T12:46:29Z</time>
      </trkpt>
      <trkpt lat="49.35686" lon="0.23551">
        <ele>109</ele>
        <time>2017-03-30T12:46:32Z</time>
      </trkpt>
      <trkpt lat="49.35686" lon="0.23551">
        <ele>109</ele>
        <time>2017-03-30T12:46:35Z</time>
      </trkpt>
      <trkpt lat="49.35686" lon="0.2355">
        <ele>109</ele>
        <time>2017-03-30T12:46:39Z</time>
      </trkpt>
      <trkpt lat="49.35686" lon="0.2355">
        <ele>109</ele>
        <time>2017-03-30T12:46:41Z</time>
      </trkpt>
      <trkpt lat="49.35686" lon="0.2355">
        <ele>109</ele>
        <time>2017-03-30T12:46:45Z</time>
      </trkpt>
      <trkpt lat="49.35683" lon="0.23549">
        <ele>113</ele>
        <time>2017-03-30T12:46:48Z</time>
      </trkpt>
      <trkpt lat="49.35682" lon="0.23549">
        <ele>113</ele>
        <time>2017-03-30T12:46:53Z</time>
      </trkpt>
      <trkpt lat="49.3568" lon="0.23546">
        <ele>116</ele>
        <time>2017-03-30T12:46:56Z</time>
      </trkpt>
      <trkpt lat="49.35679" lon="0.23545">
        <ele>115</ele>
        <time>2017-03-30T12:47:02Z</time>
      </trkpt>
      <trkpt lat="49.35679" lon="0.23544">
        <ele>115</ele>
        <time>2017-03-30T12:47:05Z</time>
      </trkpt>
      <trkpt lat="49.35679" lon="0.23544">
        <ele>115</ele>
        <time>2017-03-30T12:47:08Z</time>
      </trkpt>
      <trkpt lat="49.35679" lon="0.23544">
        <ele>115</ele>
        <time>2017-03-30T12:47:11Z</time>
      </trkpt>
      <trkpt lat="49.35679" lon="0.23544">
        <ele>115</ele>
        <time>2017-03-30T12:47:14Z</time>
      </trkpt>
      <trkpt lat="49.35679" lon="0.23545">
        <ele>115</ele>
        <time>2017-03-30T12:47:17Z</time>
      </trkpt>
      <trkpt lat="49.35682" lon="0.23557">
        <ele>108</ele>
        <time>2017-03-30T12:47:22Z</time>
      </trkpt>
      <trkpt lat="49.35684" lon="0.23559">
        <ele>108</ele>
        <time>2017-03-30T12:47:26Z</time>
      </trkpt>
      <trkpt lat="49.35694" lon="0.23564">
        <ele>109</ele>
        <time>2017-03-30T12:47:37Z</time>
      </trkpt>
      <trkpt lat="49.35694" lon="0.23564">
        <ele>109</ele>
        <time>2017-03-30T12:47:38Z</time>
      </trkpt>
      <trkpt lat="49.35693" lon="0.23564">
        <ele>109</ele>
        <time>2017-03-30T12:47:41Z</time>
      </trkpt>
      <trkpt lat="49.35693" lon="0.23569">
        <ele>109</ele>
        <time>2017-03-30T12:47:44Z</time>
      </trkpt>
      <trkpt lat="49.35692" lon="0.23568">
        <ele>110</ele>
        <time>2017-03-30T12:47:50Z</time>
      </trkpt>
      <trkpt lat="49.35695" lon="0.23568">
        <ele>110</ele>
        <time>2017-03-30T12:47:53Z</time>
      </trkpt>
      <trkpt lat="49.35693" lon="0.2356">
        <ele>111</ele>
        <time>2017-03-30T12:48:01Z</time>
      </trkpt>
      <trkpt lat="49.35691" lon="0.23555">
        <ele>114</ele>
        <time>2017-03-30T12:48:10Z</time>
      </trkpt>
      <trkpt lat="49.35699" lon="0.23568">
        <ele>106</ele>
        <time>2017-03-30T12:48:15Z</time>
      </trkpt>
      <trkpt lat="49.357" lon="0.23573">
        <ele>104</ele>
        <time>2017-03-30T12:48:17Z</time>
      </trkpt>
      <trkpt lat="49.35699" lon="0.23583">
        <ele>103</ele>
        <time>2017-03-30T12:48:23Z</time>
      </trkpt>
      <trkpt lat="49.357" lon="0.2359">
        <ele>99</ele>
        <time>2017-03-30T12:48:29Z</time>
      </trkpt>
      <trkpt lat="49.35697" lon="0.23598">
        <ele>97</ele>
        <time>2017-03-30T12:48:36Z</time>
      </trkpt>
      <trkpt lat="49.35692" lon="0.23606">
        <ele>97</ele>
        <time>2017-03-30T12:48:41Z</time>
      </trkpt>
      <trkpt lat="49.35693" lon="0.23624">
        <ele>94</ele>
        <time>2017-03-30T12:48:52Z</time>
      </trkpt>
      <trkpt lat="49.35692" lon="0.23627">
        <ele>95</ele>
        <time>2017-03-30T12:48:53Z</time>
      </trkpt>
      <trkpt lat="49.3569" lon="0.23645">
        <ele>99</ele>
        <time>2017-03-30T12:49:00Z</time>
      </trkpt>
      <trkpt lat="49.35686" lon="0.23657">
        <ele>100</ele>
        <time>2017-03-30T12:49:05Z</time>
      </trkpt>
      <trkpt lat="49.35683" lon="0.23666">
        <ele>100</ele>
        <time>2017-03-30T12:49:11Z</time>
      </trkpt>
      <trkpt lat="49.35683" lon="0.23673">
        <ele>100</ele>
        <time>2017-03-30T12:49:17Z</time>
      </trkpt>
      <trkpt lat="49.35682" lon="0.23678">
        <ele>98</ele>
        <time>2017-03-30T12:49:23Z</time>
      </trkpt>
      <trkpt lat="49.35686" lon="0.2369">
        <ele>95</ele>
        <time>2017-03-30T12:49:31Z</time>
      </trkpt>
      <trkpt lat="49.35692" lon="0.237">
        <ele>92</ele>
        <time>2017-03-30T12:49:38Z</time>
      </trkpt>
      <trkpt lat="49.35695" lon="0.23706">
        <ele>91</ele>
        <time>2017-03-30T12:49:42Z</time>
      </trkpt>
      <trkpt lat="49.35704" lon="0.2371">
        <ele>94</ele>
        <time>2017-03-30T12:49:48Z</time>
      </trkpt>
      <trkpt lat="49.3571" lon="0.23718">
        <ele>92</ele>
        <time>2017-03-30T12:49:54Z</time>
      </trkpt>
      <trkpt lat="49.35712" lon="0.23726">
        <ele>94</ele>
        <time>2017-03-30T12:49:59Z</time>
      </trkpt>
      <trkpt lat="49.35713" lon="0.23737">
        <ele>97</ele>
        <time>2017-03-30T12:50:05Z</time>
      </trkpt>
      <trkpt lat="49.35723" lon="0.23752">
        <ele>98</ele>
        <time>2017-03-30T12:50:16Z</time>
      </trkpt>
      <trkpt lat="49.35725" lon="0.23754">
        <ele>98</ele>
        <time>2017-03-30T12:50:17Z</time>
      </trkpt>
      <trkpt lat="49.3573" lon="0.23758">
        <ele>97</ele>
        <time>2017-03-30T12:50:23Z</time>
      </trkpt>
      <trkpt lat="49.35733" lon="0.2376">
        <ele>97</ele>
        <time>2017-03-30T12:50:29Z</time>
      </trkpt>
      <trkpt lat="49.35742" lon="0.23761">
        <ele>101</ele>
        <time>2017-03-30T12:50:35Z</time>
      </trkpt>
      <trkpt lat="49.35751" lon="0.23764">
        <ele>102</ele>
        <time>2017-03-30T12:50:41Z</time>
      </trkpt>
      <trkpt lat="49.35757" lon="0.23763">
        <ele>101</ele>
        <time>2017-03-30T12:50:47Z</time>
      </trkpt>
      <trkpt lat="49.35766" lon="0.23771">
        <ele>96</ele>
        <time>2017-03-30T12:50:57Z</time>
      </trkpt>
      <trkpt lat="49.3577" lon="0.23774">
        <ele>97</ele>
        <time>2017-03-30T12:50:59Z</time>
      </trkpt>
      <trkpt lat="49.35776" lon="0.23778">
        <ele>97</ele>
        <time>2017-03-30T12:51:05Z</time>
      </trkpt>
      <trkpt lat="49.35782" lon="0.23783">
        <ele>95</ele>
        <time>2017-03-30T12:51:11Z</time>
      </trkpt>
      <trkpt lat="49.35791" lon="0.23786">
        <ele>95</ele>
        <time>2017-03-30T12:51:17Z</time>
      </trkpt>
      <trkpt lat="49.35801" lon="0.23798">
        <ele>95</ele>
        <time>2017-03-30T12:51:28Z</time>
      </trkpt>
      <trkpt lat="49.35802" lon="0.23799">
        <ele>96</ele>
        <time>2017-03-30T12:51:29Z</time>
      </trkpt>
      <trkpt lat="49.35807" lon="0.23803">
        <ele>95</ele>
        <time>2017-03-30T12:51:35Z</time>
      </trkpt>
      <trkpt lat="49.35814" lon="0.23815">
        <ele>96</ele>
        <time>2017-03-30T12:51:44Z</time>
      </trkpt>
      <trkpt lat="49.35818" lon="0.23816">
        <ele>97</ele>
        <time>2017-03-30T12:51:48Z</time>
      </trkpt>
      <trkpt lat="49.35824" lon="0.23821">
        <ele>98</ele>
        <time>2017-03-30T12:51:53Z</time>
      </trkpt>
      <trkpt lat="49.35832" lon="0.23828">
        <ele>96</ele>
        <time>2017-03-30T12:52:00Z</time>
      </trkpt>
      <trkpt lat="49.35835" lon="0.2383">
        <ele>95</ele>
        <time>2017-03-30T12:52:05Z</time>
      </trkpt>
      <trkpt lat="49.35841" lon="0.23835">
        <ele>98</ele>
        <time>2017-03-30T12:52:11Z</time>
      </trkpt>
      <trkpt lat="49.35849" lon="0.23839">
        <ele>100</ele>
        <time>2017-03-30T12:52:17Z</time>
      </trkpt>
      <trkpt lat="49.35851" lon="0.23839">
        <ele>99</ele>
        <time>2017-03-30T12:52:27Z</time>
      </trkpt>
      <trkpt lat="49.35851" lon="0.23839">
        <ele>100</ele>
        <time>2017-03-30T12:52:29Z</time>
      </trkpt>
      <trkpt lat="49.35853" lon="0.2384">
        <ele>100</ele>
        <time>2017-03-30T12:52:32Z</time>
      </trkpt>
      <trkpt lat="49.35856" lon="0.23842">
        <ele>101</ele>
        <time>2017-03-30T12:52:38Z</time>
      </trkpt>
      <trkpt lat="49.35861" lon="0.23844">
        <ele>100</ele>
        <time>2017-03-30T12:52:44Z</time>
      </trkpt>
      <trkpt lat="49.35865" lon="0.23845">
        <ele>99</ele>
        <time>2017-03-30T12:52:50Z</time>
      </trkpt>
      <trkpt lat="49.35881" lon="0.23849">
        <ele>96</ele>
        <time>2017-03-30T12:52:59Z</time>
      </trkpt>
      <trkpt lat="49.35883" lon="0.23849">
        <ele>96</ele>
        <time>2017-03-30T12:53:03Z</time>
      </trkpt>
      <trkpt lat="49.35885" lon="0.2385">
        <ele>96</ele>
        <time>2017-03-30T12:53:08Z</time>
      </trkpt>
      <trkpt lat="49.35894" lon="0.23853">
        <ele>95</ele>
        <time>2017-03-30T12:53:14Z</time>
      </trkpt>
      <trkpt lat="49.359" lon="0.23858">
        <ele>95</ele>
        <time>2017-03-30T12:53:21Z</time>
      </trkpt>
      <trkpt lat="49.3591" lon="0.23865">
        <ele>94</ele>
        <time>2017-03-30T12:53:26Z</time>
      </trkpt>
      <trkpt lat="49.35922" lon="0.23868">
        <ele>96</ele>
        <time>2017-03-30T12:53:37Z</time>
      </trkpt>
      <trkpt lat="49.35929" lon="0.2387">
        <ele>97</ele>
        <time>2017-03-30T12:53:41Z</time>
      </trkpt>
      <trkpt lat="49.35938" lon="0.23873">
        <ele>95</ele>
        <time>2017-03-30T12:53:48Z</time>
      </trkpt>
      <trkpt lat="49.35942" lon="0.23875">
        <ele>94</ele>
        <time>2017-03-30T12:53:50Z</time>
      </trkpt>
      <trkpt lat="49.35952" lon="0.23879">
        <ele>94</ele>
        <time>2017-03-30T12:53:56Z</time>
      </trkpt>
      <trkpt lat="49.35958" lon="0.23884">
        <ele>93</ele>
        <time>2017-03-30T12:54:02Z</time>
      </trkpt>
      <trkpt lat="49.35963" lon="0.23888">
        <ele>93</ele>
        <time>2017-03-30T12:54:08Z</time>
      </trkpt>
      <trkpt lat="49.35977" lon="0.23896">
        <ele>92</ele>
        <time>2017-03-30T12:54:18Z</time>
      </trkpt>
      <trkpt lat="49.3598" lon="0.23898">
        <ele>88</ele>
        <time>2017-03-30T12:54:20Z</time>
      </trkpt>
      <trkpt lat="49.35986" lon="0.23899">
        <ele>84</ele>
        <time>2017-03-30T12:54:26Z</time>
      </trkpt>
      <trkpt lat="49.35992" lon="0.239">
        <ele>85</ele>
        <time>2017-03-30T12:54:32Z</time>
      </trkpt>
      <trkpt lat="49.35998" lon="0.23902">
        <ele>87</ele>
        <time>2017-03-30T12:54:38Z</time>
      </trkpt>
      <trkpt lat="49.36007" lon="0.23903">
        <ele>90</ele>
        <time>2017-03-30T12:54:47Z</time>
      </trkpt>
      <trkpt lat="49.3601" lon="0.23905">
        <ele>93</ele>
        <time>2017-03-30T12:54:53Z</time>
      </trkpt>
      <trkpt lat="49.3601" lon="0.23906">
        <ele>94</ele>
        <time>2017-03-30T12:54:56Z</time>
      </trkpt>
      <trkpt lat="49.36012" lon="0.23907">
        <ele>96</ele>
        <time>2017-03-30T12:55:00Z</time>
      </trkpt>
      <trkpt lat="49.36017" lon="0.23908">
        <ele>98</ele>
        <time>2017-03-30T12:55:06Z</time>
      </trkpt>
      <trkpt lat="49.36022" lon="0.23914">
        <ele>100</ele>
        <time>2017-03-30T12:55:11Z</time>
      </trkpt>
      <trkpt lat="49.36029" lon="0.23912">
        <ele>103</ele>
        <time>2017-03-30T12:55:18Z</time>
      </trkpt>
      <trkpt lat="49.36033" lon="0.23914">
        <ele>108</ele>
        <time>2017-03-30T12:55:23Z</time>
      </trkpt>
      <trkpt lat="49.3604" lon="0.23928">
        <ele>104</ele>
        <time>2017-03-30T12:55:29Z</time>
      </trkpt>
      <trkpt lat="49.36051" lon="0.23935">
        <ele>105</ele>
        <time>2017-03-30T12:55:39Z</time>
      </trkpt>
      <trkpt lat="49.36059" lon="0.23941">
        <ele>104</ele>
        <time>2017-03-30T12:55:44Z</time>
      </trkpt>
      <trkpt lat="49.36067" lon="0.23945">
        <ele>102</ele>
        <time>2017-03-30T12:55:47Z</time>
      </trkpt>
      <trkpt lat="49.36079" lon="0.23947">
        <ele>104</ele>
        <time>2017-03-30T12:55:53Z</time>
      </trkpt>
      <trkpt lat="49.3609" lon="0.23956">
        <ele>102</ele>
        <time>2017-03-30T12:56:01Z</time>
      </trkpt>
      <trkpt lat="49.36097" lon="0.2396">
        <ele>101</ele>
        <time>2017-03-30T12:56:07Z</time>
      </trkpt>
      <trkpt lat="49.361" lon="0.23958">
        <ele>102</ele>
        <time>2017-03-30T12:56:11Z</time>
      </trkpt>
      <trkpt lat="49.36109" lon="0.2397">
        <ele>99</ele>
        <time>2017-03-30T12:56:17Z</time>
      </trkpt>
      <trkpt lat="49.36115" lon="0.23981">
        <ele>93</ele>
        <time>2017-03-30T12:56:23Z</time>
      </trkpt>
      <trkpt lat="49.36115" lon="0.23985">
        <ele>92</ele>
        <time>2017-03-30T12:56:30Z</time>
      </trkpt>
      <trkpt lat="49.36116" lon="0.23983">
        <ele>93</ele>
        <time>2017-03-30T12:56:37Z</time>
      </trkpt>
      <trkpt lat="49.36116" lon="0.23984">
        <ele>92</ele>
        <time>2017-03-30T12:56:38Z</time>
      </trkpt>
      <trkpt lat="49.36122" lon="0.2399">
        <ele>90</ele>
        <time>2017-03-30T12:56:44Z</time>
      </trkpt>
      <trkpt lat="49.36132" lon="0.23998">
        <ele>90</ele>
        <time>2017-03-30T12:56:54Z</time>
      </trkpt>
      <trkpt lat="49.36134" lon="0.23999">
        <ele>90</ele>
        <time>2017-03-30T12:56:56Z</time>
      </trkpt>
      <trkpt lat="49.36145" lon="0.24002">
        <ele>90</ele>
        <time>2017-03-30T12:57:07Z</time>
      </trkpt>
      <trkpt lat="49.36147" lon="0.24003">
        <ele>92</ele>
        <time>2017-03-30T12:57:09Z</time>
      </trkpt>
      <trkpt lat="49.36157" lon="0.24005">
        <ele>92</ele>
        <time>2017-03-30T12:57:17Z</time>
      </trkpt>
      <trkpt lat="49.36159" lon="0.24006">
        <ele>93</ele>
        <time>2017-03-30T12:57:20Z</time>
      </trkpt>
      <trkpt lat="49.36166" lon="0.24007">
        <ele>91</ele>
        <time>2017-03-30T12:57:26Z</time>
      </trkpt>
      <trkpt lat="49.36169" lon="0.24012">
        <ele>93</ele>
        <time>2017-03-30T12:57:32Z</time>
      </trkpt>
      <trkpt lat="49.36172" lon="0.24016">
        <ele>93</ele>
        <time>2017-03-30T12:57:38Z</time>
      </trkpt>
      <trkpt lat="49.36179" lon="0.24024">
        <ele>96</ele>
        <time>2017-03-30T12:57:45Z</time>
      </trkpt>
      <trkpt lat="49.36193" lon="0.24031">
        <ele>89</ele>
        <time>2017-03-30T12:57:51Z</time>
      </trkpt>
      <trkpt lat="49.36206" lon="0.24041">
        <ele>83</ele>
        <time>2017-03-30T12:58:01Z</time>
      </trkpt>
      <trkpt lat="49.36208" lon="0.24043">
        <ele>79</ele>
        <time>2017-03-30T12:58:03Z</time>
      </trkpt>
      <trkpt lat="49.36217" lon="0.24042">
        <ele>86</ele>
        <time>2017-03-30T12:58:08Z</time>
      </trkpt>
      <trkpt lat="49.36218" lon="0.2404">
        <ele>85</ele>
        <time>2017-03-30T12:58:15Z</time>
      </trkpt>
      <trkpt lat="49.36218" lon="0.24043">
        <ele>84</ele>
        <time>2017-03-30T12:58:19Z</time>
      </trkpt>
      <trkpt lat="49.36222" lon="0.24044">
        <ele>84</ele>
        <time>2017-03-30T12:58:23Z</time>
      </trkpt>
      <trkpt lat="49.36229" lon="0.24042">
        <ele>90</ele>
        <time>2017-03-30T12:58:29Z</time>
      </trkpt>
      <trkpt lat="49.36234" lon="0.24044">
        <ele>92</ele>
        <time>2017-03-30T12:58:35Z</time>
      </trkpt>
      <trkpt lat="49.36238" lon="0.2404">
        <ele>92</ele>
        <time>2017-03-30T12:58:41Z</time>
      </trkpt>
      <trkpt lat="49.36246" lon="0.24045">
        <ele>88</ele>
        <time>2017-03-30T12:58:47Z</time>
      </trkpt>
      <trkpt lat="49.36254" lon="0.24047">
        <ele>83</ele>
        <time>2017-03-30T12:58:53Z</time>
      </trkpt>
      <trkpt lat="49.36258" lon="0.24048">
        <ele>83</ele>
        <time>2017-03-30T12:58:59Z</time>
      </trkpt>
      <trkpt lat="49.36262" lon="0.2405">
        <ele>86</ele>
        <time>2017-03-30T12:59:05Z</time>
      </trkpt>
      <trkpt lat="49.36271" lon="0.24054">
        <ele>86</ele>
        <time>2017-03-30T12:59:14Z</time>
      </trkpt>
      <trkpt lat="49.36275" lon="0.24056">
        <ele>85</ele>
        <time>2017-03-30T12:59:20Z</time>
      </trkpt>
      <trkpt lat="49.36278" lon="0.24052">
        <ele>82</ele>
        <time>2017-03-30T12:59:23Z</time>
      </trkpt>
      <trkpt lat="49.36284" lon="0.24053">
        <ele>84</ele>
        <time>2017-03-30T12:59:29Z</time>
      </trkpt>
      <trkpt lat="49.36295" lon="0.24062">
        <ele>81</ele>
        <time>2017-03-30T12:59:35Z</time>
      </trkpt>
      <trkpt lat="49.36304" lon="0.2407">
        <ele>80</ele>
        <time>2017-03-30T12:59:42Z</time>
      </trkpt>
      <trkpt lat="49.36316" lon="0.24078">
        <ele>76</ele>
        <time>2017-03-30T12:59:51Z</time>
      </trkpt>
      <trkpt lat="49.36318" lon="0.24077">
        <ele>75</ele>
        <time>2017-03-30T12:59:53Z</time>
      </trkpt>
      <trkpt lat="49.36321" lon="0.24076">
        <ele>78</ele>
        <time>2017-03-30T12:59:59Z</time>
      </trkpt>
      <trkpt lat="49.36334" lon="0.24086">
        <ele>77</ele>
        <time>2017-03-30T13:00:05Z</time>
      </trkpt>
      <trkpt lat="49.36344" lon="0.24091">
        <ele>75</ele>
        <time>2017-03-30T13:00:11Z</time>
      </trkpt>
      <trkpt lat="49.36351" lon="0.24092">
        <ele>74</ele>
        <time>2017-03-30T13:00:18Z</time>
      </trkpt>
      <trkpt lat="49.36359" lon="0.24091">
        <ele>74</ele>
        <time>2017-03-30T13:00:26Z</time>
      </trkpt>
      <trkpt lat="49.36361" lon="0.24092">
        <ele>74</ele>
        <time>2017-03-30T13:00:29Z</time>
      </trkpt>
      <trkpt lat="49.36362" lon="0.24092">
        <ele>76</ele>
        <time>2017-03-30T13:00:35Z</time>
      </trkpt>
      <trkpt lat="49.36362" lon="0.24092">
        <ele>76</ele>
        <time>2017-03-30T13:00:38Z</time>
      </trkpt>
      <trkpt lat="49.36367" lon="0.24099">
        <ele>77</ele>
        <time>2017-03-30T13:00:41Z</time>
      </trkpt>
      <trkpt lat="49.36373" lon="0.2411">
        <ele>74</ele>
        <time>2017-03-30T13:00:49Z</time>
      </trkpt>
      <trkpt lat="49.36375" lon="0.24115">
        <ele>77</ele>
        <time>2017-03-30T13:00:53Z</time>
      </trkpt>
      <trkpt lat="49.36379" lon="0.24138">
        <ele>82</ele>
        <time>2017-03-30T13:01:03Z</time>
      </trkpt>
      <trkpt lat="49.36372" lon="0.2416">
        <ele>82</ele>
        <time>2017-03-30T13:01:10Z</time>
      </trkpt>
      <trkpt lat="49.36374" lon="0.24163">
        <ele>83</ele>
        <time>2017-03-30T13:01:11Z</time>
      </trkpt>
      <trkpt lat="49.36374" lon="0.24176">
        <ele>80</ele>
        <time>2017-03-30T13:01:18Z</time>
      </trkpt>
      <trkpt lat="49.36375" lon="0.24192">
        <ele>74</ele>
        <time>2017-03-30T13:01:25Z</time>
      </trkpt>
      <trkpt lat="49.36379" lon="0.24199">
        <ele>75</ele>
        <time>2017-03-30T13:01:29Z</time>
      </trkpt>
      <trkpt lat="49.3638" lon="0.24202">
        <ele>79</ele>
        <time>2017-03-30T13:01:35Z</time>
      </trkpt>
      <trkpt lat="49.36388" lon="0.2421">
        <ele>87</ele>
        <time>2017-03-30T13:01:41Z</time>
      </trkpt>
      <trkpt lat="49.36393" lon="0.24225">
        <ele>85</ele>
        <time>2017-03-30T13:01:47Z</time>
      </trkpt>
      <trkpt lat="49.36395" lon="0.24233">
        <ele>85</ele>
        <time>2017-03-30T13:01:53Z</time>
      </trkpt>
      <trkpt lat="49.36397" lon="0.24235">
        <ele>81</ele>
        <time>2017-03-30T13:01:59Z</time>
      </trkpt>
      <trkpt lat="49.364" lon="0.24248">
        <ele>78</ele>
        <time>2017-03-30T13:02:05Z</time>
      </trkpt>
      <trkpt lat="49.36408" lon="0.24268">
        <ele>73</ele>
        <time>2017-03-30T13:02:15Z</time>
      </trkpt>
      <trkpt lat="49.36409" lon="0.2427">
        <ele>71</ele>
        <time>2017-03-30T13:02:18Z</time>
      </trkpt>
      <trkpt lat="49.36414" lon="0.24276">
        <ele>76</ele>
        <time>2017-03-30T13:02:26Z</time>
      </trkpt>
      <trkpt lat="49.36414" lon="0.24276">
        <ele>78</ele>
        <time>2017-03-30T13:02:29Z</time>
      </trkpt>
      <trkpt lat="49.36418" lon="0.24283">
        <ele>77</ele>
        <time>2017-03-30T13:02:34Z</time>
      </trkpt>
      <trkpt lat="49.36422" lon="0.24293">
        <ele>77</ele>
        <time>2017-03-30T13:02:40Z</time>
      </trkpt>
      <trkpt lat="49.3643" lon="0.24316">
        <ele>70</ele>
        <time>2017-03-30T13:02:49Z</time>
      </trkpt>
      <trkpt lat="49.3643" lon="0.24317">
        <ele>69</ele>
        <time>2017-03-30T13:02:50Z</time>
      </trkpt>
      <trkpt lat="49.36434" lon="0.24319">
        <ele>71</ele>
        <time>2017-03-30T13:02:56Z</time>
      </trkpt>
      <trkpt lat="49.36433" lon="0.24324">
        <ele>69</ele>
        <time>2017-03-30T13:03:02Z</time>
      </trkpt>
      <trkpt lat="49.36436" lon="0.24341">
        <ele>72</ele>
        <time>2017-03-30T13:03:12Z</time>
      </trkpt>
      <trkpt lat="49.36439" lon="0.24344">
        <ele>75</ele>
        <time>2017-03-30T13:03:18Z</time>
      </trkpt>
      <trkpt lat="49.36439" lon="0.24343">
        <ele>76</ele>
        <time>2017-03-30T13:03:20Z</time>
      </trkpt>
      <trkpt lat="49.36447" lon="0.24353">
        <ele>75</ele>
        <time>2017-03-30T13:03:26Z</time>
      </trkpt>
      <trkpt lat="49.3645" lon="0.24358">
        <ele>74</ele>
        <time>2017-03-30T13:03:29Z</time>
      </trkpt>
      <trkpt lat="49.36453" lon="0.24365">
        <ele>79</ele>
        <time>2017-03-30T13:03:40Z</time>
      </trkpt>
      <trkpt lat="49.36454" lon="0.24365">
        <ele>79</ele>
        <time>2017-03-30T13:03:41Z</time>
      </trkpt>
      <trkpt lat="49.36455" lon="0.24366">
        <ele>79</ele>
        <time>2017-03-30T13:03:48Z</time>
      </trkpt>
      <trkpt lat="49.36457" lon="0.24366">
        <ele>78</ele>
        <time>2017-03-30T13:03:50Z</time>
      </trkpt>
      <trkpt lat="49.36459" lon="0.24367">
        <ele>79</ele>
        <time>2017-03-30T13:03:56Z</time>
      </trkpt>
      <trkpt lat="49.36462" lon="0.2437">
        <ele>76</ele>
        <time>2017-03-30T13:04:02Z</time>
      </trkpt>
      <trkpt lat="49.36468" lon="0.24373">
        <ele>74</ele>
        <time>2017-03-30T13:04:08Z</time>
      </trkpt>
      <trkpt lat="49.36469" lon="0.24374">
        <ele>72</ele>
        <time>2017-03-30T13:04:14Z</time>
      </trkpt>
      <trkpt lat="49.3647" lon="0.24373">
        <ele>73</ele>
        <time>2017-03-30T13:04:17Z</time>
      </trkpt>
      <trkpt lat="49.36472" lon="0.24375">
        <ele>73</ele>
        <time>2017-03-30T13:04:23Z</time>
      </trkpt>
      <trkpt lat="49.36473" lon="0.24377">
        <ele>73</ele>
        <time>2017-03-30T13:04:29Z</time>
      </trkpt>
      <trkpt lat="49.36475" lon="0.24381">
        <ele>72</ele>
        <time>2017-03-30T13:04:32Z</time>
      </trkpt>
      <trkpt lat="49.36481" lon="0.24386">
        <ele>74</ele>
        <time>2017-03-30T13:04:39Z</time>
      </trkpt>
      <trkpt lat="49.36486" lon="0.24395">
        <ele>73</ele>
        <time>2017-03-30T13:04:47Z</time>
      </trkpt>
      <trkpt lat="49.36487" lon="0.24397">
        <ele>72</ele>
        <time>2017-03-30T13:04:50Z</time>
      </trkpt>
      <trkpt lat="49.36494" lon="0.24419">
        <ele>67</ele>
        <time>2017-03-30T13:05:01Z</time>
      </trkpt>
      <trkpt lat="49.36502" lon="0.24428">
        <ele>68</ele>
        <time>2017-03-30T13:05:07Z</time>
      </trkpt>
      <trkpt lat="49.36502" lon="0.24429">
        <ele>67</ele>
        <time>2017-03-30T13:05:08Z</time>
      </trkpt>
      <trkpt lat="49.36516" lon="0.24443">
        <ele>71</ele>
        <time>2017-03-30T13:05:18Z</time>
      </trkpt>
      <trkpt lat="49.36519" lon="0.24445">
        <ele>72</ele>
        <time>2017-03-30T13:05:20Z</time>
      </trkpt>
      <trkpt lat="49.36525" lon="0.24452">
        <ele>73</ele>
        <time>2017-03-30T13:05:26Z</time>
      </trkpt>
      <trkpt lat="49.36533" lon="0.24457">
        <ele>77</ele>
        <time>2017-03-30T13:05:32Z</time>
      </trkpt>
      <trkpt lat="49.36539" lon="0.24463">
        <ele>78</ele>
        <time>2017-03-30T13:05:41Z</time>
      </trkpt>
      <trkpt lat="49.36539" lon="0.24467">
        <ele>78</ele>
        <time>2017-03-30T13:05:44Z</time>
      </trkpt>
      <trkpt lat="49.36545" lon="0.24477">
        <ele>74</ele>
        <time>2017-03-30T13:05:50Z</time>
      </trkpt>
      <trkpt lat="49.36555" lon="0.24492">
        <ele>70</ele>
        <time>2017-03-30T13:05:56Z</time>
      </trkpt>
      <trkpt lat="49.36562" lon="0.24507">
        <ele>69</ele>
        <time>2017-03-30T13:06:06Z</time>
      </trkpt>
      <trkpt lat="49.36571" lon="0.24514">
        <ele>73</ele>
        <time>2017-03-30T13:06:13Z</time>
      </trkpt>
      <trkpt lat="49.36574" lon="0.24517">
        <ele>75</ele>
        <time>2017-03-30T13:06:17Z</time>
      </trkpt>
      <trkpt lat="49.36578" lon="0.24523">
        <ele>74</ele>
        <time>2017-03-30T13:06:20Z</time>
      </trkpt>
      <trkpt lat="49.36586" lon="0.24531">
        <ele>72</ele>
        <time>2017-03-30T13:06:26Z</time>
      </trkpt>
      <trkpt lat="49.36591" lon="0.24547">
        <ele>74</ele>
        <time>2017-03-30T13:06:32Z</time>
      </trkpt>
      <trkpt lat="49.36597" lon="0.24557">
        <ele>75</ele>
        <time>2017-03-30T13:06:38Z</time>
      </trkpt>
      <trkpt lat="49.36603" lon="0.24563">
        <ele>70</ele>
        <time>2017-03-30T13:06:44Z</time>
      </trkpt>
      <trkpt lat="49.36615" lon="0.24575">
        <ele>72</ele>
        <time>2017-03-30T13:06:54Z</time>
      </trkpt>
      <trkpt lat="49.36616" lon="0.24577">
        <ele>71</ele>
        <time>2017-03-30T13:06:56Z</time>
      </trkpt>
      <trkpt lat="49.36623" lon="0.2459">
        <ele>68</ele>
        <time>2017-03-30T13:07:06Z</time>
      </trkpt>
      <trkpt lat="49.36625" lon="0.24591">
        <ele>67</ele>
        <time>2017-03-30T13:07:08Z</time>
      </trkpt>
      <trkpt lat="49.3663" lon="0.24597">
        <ele>66</ele>
        <time>2017-03-30T13:07:15Z</time>
      </trkpt>
      <trkpt lat="49.36637" lon="0.24601">
        <ele>69</ele>
        <time>2017-03-30T13:07:23Z</time>
      </trkpt>
      <trkpt lat="49.36636" lon="0.24603">
        <ele>67</ele>
        <time>2017-03-30T13:07:28Z</time>
      </trkpt>
      <trkpt lat="49.36636" lon="0.24603">
        <ele>68</ele>
        <time>2017-03-30T13:07:29Z</time>
      </trkpt>
      <trkpt lat="49.36638" lon="0.24603">
        <ele>69</ele>
        <time>2017-03-30T13:07:32Z</time>
      </trkpt>
      <trkpt lat="49.36644" lon="0.24613">
        <ele>70</ele>
        <time>2017-03-30T13:07:38Z</time>
      </trkpt>
      <trkpt lat="49.36643" lon="0.24612">
        <ele>70</ele>
        <time>2017-03-30T13:07:43Z</time>
      </trkpt>
      <trkpt lat="49.36644" lon="0.24611">
        <ele>72</ele>
        <time>2017-03-30T13:07:46Z</time>
      </trkpt>
      <trkpt lat="49.36646" lon="0.24611">
        <ele>75</ele>
        <time>2017-03-30T13:07:50Z</time>
      </trkpt>
      <trkpt lat="49.36645" lon="0.24611">
        <ele>74</ele>
        <time>2017-03-30T13:07:55Z</time>
      </trkpt>
      <trkpt lat="49.36645" lon="0.2461">
        <ele>75</ele>
        <time>2017-03-30T13:07:58Z</time>
      </trkpt>
      <trkpt lat="49.36644" lon="0.24609">
        <ele>75</ele>
        <time>2017-03-30T13:08:01Z</time>
      </trkpt>
      <trkpt lat="49.36644" lon="0.24608">
        <ele>76</ele>
        <time>2017-03-30T13:08:04Z</time>
      </trkpt>
      <trkpt lat="49.36644" lon="0.24608">
        <ele>76</ele>
        <time>2017-03-30T13:08:07Z</time>
      </trkpt>
      <trkpt lat="49.36644" lon="0.24608">
        <ele>76</ele>
        <time>2017-03-30T13:08:10Z</time>
      </trkpt>
      <trkpt lat="49.36644" lon="0.24608">
        <ele>76</ele>
        <time>2017-03-30T13:08:14Z</time>
      </trkpt>
      <trkpt lat="49.36644" lon="0.24608">
        <ele>76</ele>
        <time>2017-03-30T13:08:16Z</time>
      </trkpt>
      <trkpt lat="49.36644" lon="0.24608">
        <ele>76</ele>
        <time>2017-03-30T13:08:19Z</time>
      </trkpt>
      <trkpt lat="49.36644" lon="0.24608">
        <ele>76</ele>
        <time>2017-03-30T13:08:22Z</time>
      </trkpt>
      <trkpt lat="49.36644" lon="0.24608">
        <ele>76</ele>
        <time>2017-03-30T13:08:25Z</time>
      </trkpt>
      <trkpt lat="49.36644" lon="0.24608">
        <ele>76</ele>
        <time>2017-03-30T13:08:28Z</time>
      </trkpt>
      <trkpt lat="49.36644" lon="0.24608">
        <ele>76</ele>
        <time>2017-03-30T13:08:31Z</time>
      </trkpt>
      <trkpt lat="49.36644" lon="0.24608">
        <ele>76</ele>
        <time>2017-03-30T13:08:34Z</time>
      </trkpt>
      <trkpt lat="49.36644" lon="0.24608">
        <ele>76</ele>
        <time>2017-03-30T13:08:37Z</time>
      </trkpt>
      <trkpt lat="49.36644" lon="0.24608">
        <ele>76</ele>
        <time>2017-03-30T13:08:40Z</time>
      </trkpt>
      <trkpt lat="49.36644" lon="0.2461">
        <ele>76</ele>
        <time>2017-03-30T13:08:43Z</time>
      </trkpt>
      <trkpt lat="49.3665" lon="0.24618">
        <ele>74</ele>
        <time>2017-03-30T13:08:49Z</time>
      </trkpt>
      <trkpt lat="49.36651" lon="0.24625">
        <ele>70</ele>
        <time>2017-03-30T13:08:55Z</time>
      </trkpt>
      <trkpt lat="49.36656" lon="0.24629">
        <ele>73</ele>
        <time>2017-03-30T13:09:03Z</time>
      </trkpt>
      <trkpt lat="49.36658" lon="0.24633">
        <ele>72</ele>
        <time>2017-03-30T13:09:07Z</time>
      </trkpt>
      <trkpt lat="49.36661" lon="0.24638">
        <ele>72</ele>
        <time>2017-03-30T13:09:13Z</time>
      </trkpt>
      <trkpt lat="49.36662" lon="0.24645">
        <ele>73</ele>
        <time>2017-03-30T13:09:19Z</time>
      </trkpt>
      <trkpt lat="49.36668" lon="0.24658">
        <ele>69</ele>
        <time>2017-03-30T13:09:25Z</time>
      </trkpt>
      <trkpt lat="49.36682" lon="0.24682">
        <ele>72</ele>
        <time>2017-03-30T13:09:35Z</time>
      </trkpt>
      <trkpt lat="49.36684" lon="0.24688">
        <ele>73</ele>
        <time>2017-03-30T13:09:38Z</time>
      </trkpt>
      <trkpt lat="49.36689" lon="0.24698">
        <ele>73</ele>
        <time>2017-03-30T13:09:45Z</time>
      </trkpt>
      <trkpt lat="49.3669" lon="0.24703">
        <ele>74</ele>
        <time>2017-03-30T13:09:49Z</time>
      </trkpt>
      <trkpt lat="49.36692" lon="0.24711">
        <ele>74</ele>
        <time>2017-03-30T13:09:55Z</time>
      </trkpt>
      <trkpt lat="49.36697" lon="0.24721">
        <ele>75</ele>
        <time>2017-03-30T13:10:01Z</time>
      </trkpt>
      <trkpt lat="49.36698" lon="0.2473">
        <ele>72</ele>
        <time>2017-03-30T13:10:07Z</time>
      </trkpt>
      <trkpt lat="49.36701" lon="0.2474">
        <ele>68</ele>
        <time>2017-03-30T13:10:13Z</time>
      </trkpt>
      <trkpt lat="49.36702" lon="0.24748">
        <ele>65</ele>
        <time>2017-03-30T13:10:24Z</time>
      </trkpt>
      <trkpt lat="49.36702" lon="0.24748">
        <ele>64</ele>
        <time>2017-03-30T13:10:25Z</time>
      </trkpt>
      <trkpt lat="49.36701" lon="0.24747">
        <ele>65</ele>
        <time>2017-03-30T13:10:28Z</time>
      </trkpt>
      <trkpt lat="49.36702" lon="0.24749">
        <ele>65</ele>
        <time>2017-03-30T13:10:31Z</time>
      </trkpt>
      <trkpt lat="49.36704" lon="0.24758">
        <ele>61</ele>
        <time>2017-03-30T13:10:34Z</time>
      </trkpt>
      <trkpt lat="49.36711" lon="0.24771">
        <ele>61</ele>
        <time>2017-03-30T13:10:40Z</time>
      </trkpt>
      <trkpt lat="49.36716" lon="0.2478">
        <ele>66</ele>
        <time>2017-03-30T13:10:46Z</time>
      </trkpt>
      <trkpt lat="49.36726" lon="0.24796">
        <ele>67</ele>
        <time>2017-03-30T13:10:52Z</time>
      </trkpt>
      <trkpt lat="49.36735" lon="0.24816">
        <ele>60</ele>
        <time>2017-03-30T13:11:03Z</time>
      </trkpt>
      <trkpt lat="49.36736" lon="0.24818">
        <ele>59</ele>
        <time>2017-03-30T13:11:05Z</time>
      </trkpt>
      <trkpt lat="49.36742" lon="0.24824">
        <ele>63</ele>
        <time>2017-03-30T13:11:10Z</time>
      </trkpt>
      <trkpt lat="49.36747" lon="0.24831">
        <ele>62</ele>
        <time>2017-03-30T13:11:16Z</time>
      </trkpt>
      <trkpt lat="49.36753" lon="0.24841">
        <ele>61</ele>
        <time>2017-03-30T13:11:25Z</time>
      </trkpt>
      <trkpt lat="49.36755" lon="0.24847">
        <ele>61</ele>
        <time>2017-03-30T13:11:28Z</time>
      </trkpt>
      <trkpt lat="49.36757" lon="0.24862">
        <ele>58</ele>
        <time>2017-03-30T13:11:34Z</time>
      </trkpt>
      <trkpt lat="49.36765" lon="0.24874">
        <ele>56</ele>
        <time>2017-03-30T13:11:45Z</time>
      </trkpt>
      <trkpt lat="49.36766" lon="0.24875">
        <ele>56</ele>
        <time>2017-03-30T13:11:46Z</time>
      </trkpt>
      <trkpt lat="49.36769" lon="0.24886">
        <ele>55</ele>
        <time>2017-03-30T13:11:53Z</time>
      </trkpt>
      <trkpt lat="49.36776" lon="0.24893">
        <ele>55</ele>
        <time>2017-03-30T13:12:00Z</time>
      </trkpt>
      <trkpt lat="49.36779" lon="0.24907">
        <ele>53</ele>
        <time>2017-03-30T13:12:08Z</time>
      </trkpt>
      <trkpt lat="49.36783" lon="0.24914">
        <ele>54</ele>
        <time>2017-03-30T13:12:12Z</time>
      </trkpt>
      <trkpt lat="49.36789" lon="0.24923">
        <ele>57</ele>
        <time>2017-03-30T13:12:19Z</time>
      </trkpt>
      <trkpt lat="49.3679" lon="0.24927">
        <ele>57</ele>
        <time>2017-03-30T13:12:22Z</time>
      </trkpt>
      <trkpt lat="49.36791" lon="0.24928">
        <ele>54</ele>
        <time>2017-03-30T13:12:28Z</time>
      </trkpt>
      <trkpt lat="49.36792" lon="0.24929">
        <ele>55</ele>
        <time>2017-03-30T13:12:31Z</time>
      </trkpt>
      <trkpt lat="49.36793" lon="0.24928">
        <ele>55</ele>
        <time>2017-03-30T13:12:37Z</time>
      </trkpt>
      <trkpt lat="49.36794" lon="0.24928">
        <ele>56</ele>
        <time>2017-03-30T13:12:40Z</time>
      </trkpt>
      <trkpt lat="49.36794" lon="0.24931">
        <ele>57</ele>
        <time>2017-03-30T13:12:43Z</time>
      </trkpt>
      <trkpt lat="49.36795" lon="0.24937">
        <ele>57</ele>
        <time>2017-03-30T13:12:49Z</time>
      </trkpt>
      <trkpt lat="49.36797" lon="0.24944">
        <ele>56</ele>
        <time>2017-03-30T13:12:55Z</time>
      </trkpt>
      <trkpt lat="49.36801" lon="0.2495">
        <ele>59</ele>
        <time>2017-03-30T13:13:04Z</time>
      </trkpt>
      <trkpt lat="49.36802" lon="0.24953">
        <ele>60</ele>
        <time>2017-03-30T13:13:07Z</time>
      </trkpt>
      <trkpt lat="49.36804" lon="0.24964">
        <ele>55</ele>
        <time>2017-03-30T13:13:14Z</time>
      </trkpt>
      <trkpt lat="49.36806" lon="0.24969">
        <ele>51</ele>
        <time>2017-03-30T13:13:19Z</time>
      </trkpt>
      <trkpt lat="49.36814" lon="0.24979">
        <ele>50</ele>
        <time>2017-03-30T13:13:25Z</time>
      </trkpt>
      <trkpt lat="49.36824" lon="0.24993">
        <ele>59</ele>
        <time>2017-03-30T13:13:35Z</time>
      </trkpt>
      <trkpt lat="49.36825" lon="0.24995">
        <ele>59</ele>
        <time>2017-03-30T13:13:37Z</time>
      </trkpt>
      <trkpt lat="49.36828" lon="0.24999">
        <ele>62</ele>
        <time>2017-03-30T13:13:46Z</time>
      </trkpt>
      <trkpt lat="49.36828" lon="0.24999">
        <ele>62</ele>
        <time>2017-03-30T13:13:50Z</time>
      </trkpt>
      <trkpt lat="49.36828" lon="0.24999">
        <ele>63</ele>
        <time>2017-03-30T13:13:53Z</time>
      </trkpt>
      <trkpt lat="49.36828" lon="0.25">
        <ele>64</ele>
        <time>2017-03-30T13:13:55Z</time>
      </trkpt>
      <trkpt lat="49.36831" lon="0.25008">
        <ele>63</ele>
        <time>2017-03-30T13:14:01Z</time>
      </trkpt>
      <trkpt lat="49.36837" lon="0.25015">
        <ele>66</ele>
        <time>2017-03-30T13:14:07Z</time>
      </trkpt>
      <trkpt lat="49.3684" lon="0.25028">
        <ele>60</ele>
        <time>2017-03-30T13:14:13Z</time>
      </trkpt>
      <trkpt lat="49.36845" lon="0.25045">
        <ele>61</ele>
        <time>2017-03-30T13:14:23Z</time>
      </trkpt>
      <trkpt lat="49.36847" lon="0.2505">
        <ele>63</ele>
        <time>2017-03-30T13:14:25Z</time>
      </trkpt>
      <trkpt lat="49.36851" lon="0.2506">
        <ele>60</ele>
        <time>2017-03-30T13:14:31Z</time>
      </trkpt>
      <trkpt lat="49.3685" lon="0.25068">
        <ele>55</ele>
        <time>2017-03-30T13:14:37Z</time>
      </trkpt>
      <trkpt lat="49.36853" lon="0.2508">
        <ele>57</ele>
        <time>2017-03-30T13:14:43Z</time>
      </trkpt>
      <trkpt lat="49.36855" lon="0.25094">
        <ele>57</ele>
        <time>2017-03-30T13:14:49Z</time>
      </trkpt>
      <trkpt lat="49.36857" lon="0.25106">
        <ele>58</ele>
        <time>2017-03-30T13:14:55Z</time>
      </trkpt>
      <trkpt lat="49.36856" lon="0.25113">
        <ele>60</ele>
        <time>2017-03-30T13:15:01Z</time>
      </trkpt>
      <trkpt lat="49.36856" lon="0.25119">
        <ele>61</ele>
        <time>2017-03-30T13:15:07Z</time>
      </trkpt>
      <trkpt lat="49.36856" lon="0.25129">
        <ele>60</ele>
        <time>2017-03-30T13:15:13Z</time>
      </trkpt>
      <trkpt lat="49.36858" lon="0.25133">
        <ele>61</ele>
        <time>2017-03-30T13:15:19Z</time>
      </trkpt>
      <trkpt lat="49.3686" lon="0.25144">
        <ele>60</ele>
        <time>2017-03-30T13:15:25Z</time>
      </trkpt>
      <trkpt lat="49.36862" lon="0.25158">
        <ele>59</ele>
        <time>2017-03-30T13:15:31Z</time>
      </trkpt>
      <trkpt lat="49.36864" lon="0.25175">
        <ele>60</ele>
        <time>2017-03-30T13:15:37Z</time>
      </trkpt>
      <trkpt lat="49.36866" lon="0.25193">
        <ele>52</ele>
        <time>2017-03-30T13:15:43Z</time>
      </trkpt>
      <trkpt lat="49.36868" lon="0.25205">
        <ele>58</ele>
        <time>2017-03-30T13:15:49Z</time>
      </trkpt>
      <trkpt lat="49.3687" lon="0.25209">
        <ele>58</ele>
        <time>2017-03-30T13:15:55Z</time>
      </trkpt>
      <trkpt lat="49.36872" lon="0.25213">
        <ele>62</ele>
        <time>2017-03-30T13:16:01Z</time>
      </trkpt>
      <trkpt lat="49.36872" lon="0.25227">
        <ele>62</ele>
        <time>2017-03-30T13:16:07Z</time>
      </trkpt>
      <trkpt lat="49.3687" lon="0.25244">
        <ele>61</ele>
        <time>2017-03-30T13:16:13Z</time>
      </trkpt>
      <trkpt lat="49.36874" lon="0.25258">
        <ele>60</ele>
        <time>2017-03-30T13:16:19Z</time>
      </trkpt>
      <trkpt lat="49.36876" lon="0.25265">
        <ele>56</ele>
        <time>2017-03-30T13:16:25Z</time>
      </trkpt>
      <trkpt lat="49.36878" lon="0.2527">
        <ele>55</ele>
        <time>2017-03-30T13:16:31Z</time>
      </trkpt>
      <trkpt lat="49.36877" lon="0.25277">
        <ele>52</ele>
        <time>2017-03-30T13:16:37Z</time>
      </trkpt>
      <trkpt lat="49.3688" lon="0.25287">
        <ele>52</ele>
        <time>2017-03-30T13:16:43Z</time>
      </trkpt>
      <trkpt lat="49.36881" lon="0.25301">
        <ele>56</ele>
        <time>2017-03-30T13:16:49Z</time>
      </trkpt>
      <trkpt lat="49.36882" lon="0.25316">
        <ele>53</ele>
        <time>2017-03-30T13:16:55Z</time>
      </trkpt>
      <trkpt lat="49.36885" lon="0.25321">
        <ele>54</ele>
        <time>2017-03-30T13:17:01Z</time>
      </trkpt>
      <trkpt lat="49.36888" lon="0.25333">
        <ele>56</ele>
        <time>2017-03-30T13:17:11Z</time>
      </trkpt>
      <trkpt lat="49.36888" lon="0.25338">
        <ele>57</ele>
        <time>2017-03-30T13:17:13Z</time>
      </trkpt>
      <trkpt lat="49.36891" lon="0.25352">
        <ele>55</ele>
        <time>2017-03-30T13:17:19Z</time>
      </trkpt>
      <trkpt lat="49.36894" lon="0.25356">
        <ele>52</ele>
        <time>2017-03-30T13:17:25Z</time>
      </trkpt>
      <trkpt lat="49.36895" lon="0.25362">
        <ele>54</ele>
        <time>2017-03-30T13:17:31Z</time>
      </trkpt>
      <trkpt lat="49.36895" lon="0.25372">
        <ele>55</ele>
        <time>2017-03-30T13:17:37Z</time>
      </trkpt>
      <trkpt lat="49.36895" lon="0.25379">
        <ele>54</ele>
        <time>2017-03-30T13:17:43Z</time>
      </trkpt>
      <trkpt lat="49.36897" lon="0.25379">
        <ele>55</ele>
        <time>2017-03-30T13:17:49Z</time>
      </trkpt>
      <trkpt lat="49.36899" lon="0.25386">
        <ele>59</ele>
        <time>2017-03-30T13:17:55Z</time>
      </trkpt>
      <trkpt lat="49.36899" lon="0.25401">
        <ele>59</ele>
        <time>2017-03-30T13:18:01Z</time>
      </trkpt>
      <trkpt lat="49.369" lon="0.25409">
        <ele>57</ele>
        <time>2017-03-30T13:18:09Z</time>
      </trkpt>
      <trkpt lat="49.36903" lon="0.25414">
        <ele>58</ele>
        <time>2017-03-30T13:18:13Z</time>
      </trkpt>
      <trkpt lat="49.36909" lon="0.25425">
        <ele>55</ele>
        <time>2017-03-30T13:18:19Z</time>
      </trkpt>
      <trkpt lat="49.36906" lon="0.25431">
        <ele>52</ele>
        <time>2017-03-30T13:18:25Z</time>
      </trkpt>
      <trkpt lat="49.36905" lon="0.25435">
        <ele>54</ele>
        <time>2017-03-30T13:18:31Z</time>
      </trkpt>
      <trkpt lat="49.36909" lon="0.25459">
        <ele>56</ele>
        <time>2017-03-30T13:18:42Z</time>
      </trkpt>
      <trkpt lat="49.36911" lon="0.25465">
        <ele>56</ele>
        <time>2017-03-30T13:18:46Z</time>
      </trkpt>
      <trkpt lat="49.36913" lon="0.25478">
        <ele>57</ele>
        <time>2017-03-30T13:18:52Z</time>
      </trkpt>
      <trkpt lat="49.36913" lon="0.25485">
        <ele>59</ele>
        <time>2017-03-30T13:18:55Z</time>
      </trkpt>
      <trkpt lat="49.36916" lon="0.25502">
        <ele>56</ele>
        <time>2017-03-30T13:19:01Z</time>
      </trkpt>
      <trkpt lat="49.36918" lon="0.25519">
        <ele>48</ele>
        <time>2017-03-30T13:19:10Z</time>
      </trkpt>
      <trkpt lat="49.36918" lon="0.25521">
        <ele>49</ele>
        <time>2017-03-30T13:19:14Z</time>
      </trkpt>
      <trkpt lat="49.36918" lon="0.25523">
        <ele>51</ele>
        <time>2017-03-30T13:19:16Z</time>
      </trkpt>
      <trkpt lat="49.3692" lon="0.2553">
        <ele>50</ele>
        <time>2017-03-30T13:19:26Z</time>
      </trkpt>
      <trkpt lat="49.36921" lon="0.25533">
        <ele>49</ele>
        <time>2017-03-30T13:19:28Z</time>
      </trkpt>
      <trkpt lat="49.36923" lon="0.25544">
        <ele>48</ele>
        <time>2017-03-30T13:19:34Z</time>
      </trkpt>
      <trkpt lat="49.36927" lon="0.25558">
        <ele>48</ele>
        <time>2017-03-30T13:19:40Z</time>
      </trkpt>
      <trkpt lat="49.36929" lon="0.25568">
        <ele>48</ele>
        <time>2017-03-30T13:19:46Z</time>
      </trkpt>
      <trkpt lat="49.36929" lon="0.25572">
        <ele>49</ele>
        <time>2017-03-30T13:19:52Z</time>
      </trkpt>
      <trkpt lat="49.36936" lon="0.25579">
        <ele>51</ele>
        <time>2017-03-30T13:19:58Z</time>
      </trkpt>
      <trkpt lat="49.36945" lon="0.25586">
        <ele>49</ele>
        <time>2017-03-30T13:20:04Z</time>
      </trkpt>
      <trkpt lat="49.36956" lon="0.25591">
        <ele>50</ele>
        <time>2017-03-30T13:20:10Z</time>
      </trkpt>
      <trkpt lat="49.36962" lon="0.25594">
        <ele>49</ele>
        <time>2017-03-30T13:20:16Z</time>
      </trkpt>
      <trkpt lat="49.36964" lon="0.25594">
        <ele>44</ele>
        <time>2017-03-30T13:20:23Z</time>
      </trkpt>
      <trkpt lat="49.36965" lon="0.25593">
        <ele>46</ele>
        <time>2017-03-30T13:20:25Z</time>
      </trkpt>
      <trkpt lat="49.36975" lon="0.25601">
        <ele>46</ele>
        <time>2017-03-30T13:20:31Z</time>
      </trkpt>
      <trkpt lat="49.36983" lon="0.25618">
        <ele>45</ele>
        <time>2017-03-30T13:20:40Z</time>
      </trkpt>
      <trkpt lat="49.36983" lon="0.2562">
        <ele>43</ele>
        <time>2017-03-30T13:20:43Z</time>
      </trkpt>
      <trkpt lat="49.3699" lon="0.2562">
        <ele>44</ele>
        <time>2017-03-30T13:20:49Z</time>
      </trkpt>
      <trkpt lat="49.37002" lon="0.25627">
        <ele>46</ele>
        <time>2017-03-30T13:20:57Z</time>
      </trkpt>
      <trkpt lat="49.37007" lon="0.25629">
        <ele>47</ele>
        <time>2017-03-30T13:21:03Z</time>
      </trkpt>
      <trkpt lat="49.37012" lon="0.25635">
        <ele>47</ele>
        <time>2017-03-30T13:21:09Z</time>
      </trkpt>
      <trkpt lat="49.37019" lon="0.25642">
        <ele>46</ele>
        <time>2017-03-30T13:21:13Z</time>
      </trkpt>
      <trkpt lat="49.37026" lon="0.25651">
        <ele>46</ele>
        <time>2017-03-30T13:21:19Z</time>
      </trkpt>
      <trkpt lat="49.37029" lon="0.25658">
        <ele>45</ele>
        <time>2017-03-30T13:21:25Z</time>
      </trkpt>
      <trkpt lat="49.37035" lon="0.25671">
        <ele>43</ele>
        <time>2017-03-30T13:21:35Z</time>
      </trkpt>
      <trkpt lat="49.37036" lon="0.25676">
        <ele>44</ele>
        <time>2017-03-30T13:21:37Z</time>
      </trkpt>
      <trkpt lat="49.37039" lon="0.25688">
        <ele>42</ele>
        <time>2017-03-30T13:21:43Z</time>
      </trkpt>
      <trkpt lat="49.37042" lon="0.25695">
        <ele>43</ele>
        <time>2017-03-30T13:21:51Z</time>
      </trkpt>
      <trkpt lat="49.37047" lon="0.25701">
        <ele>42</ele>
        <time>2017-03-30T13:21:55Z</time>
      </trkpt>
      <trkpt lat="49.3706" lon="0.25712">
        <ele>50</ele>
        <time>2017-03-30T13:22:06Z</time>
      </trkpt>
      <trkpt lat="49.37061" lon="0.25714">
        <ele>50</ele>
        <time>2017-03-30T13:22:08Z</time>
      </trkpt>
      <trkpt lat="49.37065" lon="0.25721">
        <ele>49</ele>
        <time>2017-03-30T13:22:13Z</time>
      </trkpt>
      <trkpt lat="49.3707" lon="0.25727">
        <ele>48</ele>
        <time>2017-03-30T13:22:19Z</time>
      </trkpt>
      <trkpt lat="49.37076" lon="0.25738">
        <ele>46</ele>
        <time>2017-03-30T13:22:25Z</time>
      </trkpt>
      <trkpt lat="49.3708" lon="0.25746">
        <ele>45</ele>
        <time>2017-03-30T13:22:31Z</time>
      </trkpt>
      <trkpt lat="49.37087" lon="0.25756">
        <ele>43</ele>
        <time>2017-03-30T13:22:37Z</time>
      </trkpt>
      <trkpt lat="49.37088" lon="0.25774">
        <ele>42</ele>
        <time>2017-03-30T13:22:43Z</time>
      </trkpt>
      <trkpt lat="49.3709" lon="0.2578">
        <ele>41</ele>
        <time>2017-03-30T13:22:49Z</time>
      </trkpt>
      <trkpt lat="49.37096" lon="0.25798">
        <ele>42</ele>
        <time>2017-03-30T13:22:58Z</time>
      </trkpt>
      <trkpt lat="49.37098" lon="0.25807">
        <ele>44</ele>
        <time>2017-03-30T13:23:02Z</time>
      </trkpt>
      <trkpt lat="49.37102" lon="0.25807">
        <ele>40</ele>
        <time>2017-03-30T13:23:07Z</time>
      </trkpt>
      <trkpt lat="49.37108" lon="0.25819">
        <ele>40</ele>
        <time>2017-03-30T13:23:13Z</time>
      </trkpt>
      <trkpt lat="49.37113" lon="0.25828">
        <ele>41</ele>
        <time>2017-03-30T13:23:19Z</time>
      </trkpt>
      <trkpt lat="49.37115" lon="0.25833">
        <ele>41</ele>
        <time>2017-03-30T13:23:26Z</time>
      </trkpt>
      <trkpt lat="49.37123" lon="0.25843">
        <ele>42</ele>
        <time>2017-03-30T13:23:31Z</time>
      </trkpt>
      <trkpt lat="49.37126" lon="0.25849">
        <ele>43</ele>
        <time>2017-03-30T13:23:37Z</time>
      </trkpt>
      <trkpt lat="49.37132" lon="0.25851">
        <ele>43</ele>
        <time>2017-03-30T13:23:43Z</time>
      </trkpt>
      <trkpt lat="49.37143" lon="0.2586">
        <ele>43</ele>
        <time>2017-03-30T13:23:49Z</time>
      </trkpt>
      <trkpt lat="49.37145" lon="0.25866">
        <ele>41</ele>
        <time>2017-03-30T13:23:55Z</time>
      </trkpt>
      <trkpt lat="49.3715" lon="0.25868">
        <ele>44</ele>
        <time>2017-03-30T13:24:01Z</time>
      </trkpt>
      <trkpt lat="49.37162" lon="0.25883">
        <ele>41</ele>
        <time>2017-03-30T13:24:11Z</time>
      </trkpt>
      <trkpt lat="49.37169" lon="0.25886">
        <ele>41</ele>
        <time>2017-03-30T13:24:18Z</time>
      </trkpt>
      <trkpt lat="49.3717" lon="0.25888">
        <ele>40</ele>
        <time>2017-03-30T13:24:19Z</time>
      </trkpt>
      <trkpt lat="49.37181" lon="0.25897">
        <ele>39</ele>
        <time>2017-03-30T13:24:25Z</time>
      </trkpt>
      <trkpt lat="49.37187" lon="0.25904">
        <ele>42</ele>
        <time>2017-03-30T13:24:32Z</time>
      </trkpt>
      <trkpt lat="49.37192" lon="0.25907">
        <ele>40</ele>
        <time>2017-03-30T13:24:39Z</time>
      </trkpt>
      <trkpt lat="49.37195" lon="0.2591">
        <ele>42</ele>
        <time>2017-03-30T13:24:43Z</time>
      </trkpt>
      <trkpt lat="49.37207" lon="0.25903">
        <ele>38</ele>
        <time>2017-03-30T13:24:52Z</time>
      </trkpt>
      <trkpt lat="49.3721" lon="0.25902">
        <ele>40</ele>
        <time>2017-03-30T13:24:55Z</time>
      </trkpt>
      <trkpt lat="49.37218" lon="0.25895">
        <ele>44</ele>
        <time>2017-03-30T13:25:01Z</time>
      </trkpt>
      <trkpt lat="49.37221" lon="0.25892">
        <ele>43</ele>
        <time>2017-03-30T13:25:07Z</time>
      </trkpt>
      <trkpt lat="49.37223" lon="0.25897">
        <ele>39</ele>
        <time>2017-03-30T13:25:14Z</time>
      </trkpt>
      <trkpt lat="49.3723" lon="0.25907">
        <ele>39</ele>
        <time>2017-03-30T13:25:21Z</time>
      </trkpt>
      <trkpt lat="49.37231" lon="0.25909">
        <ele>38</ele>
        <time>2017-03-30T13:25:27Z</time>
      </trkpt>
      <trkpt lat="49.37231" lon="0.25909">
        <ele>39</ele>
        <time>2017-03-30T13:25:28Z</time>
      </trkpt>
      <trkpt lat="49.37231" lon="0.25909">
        <ele>40</ele>
        <time>2017-03-30T13:25:32Z</time>
      </trkpt>
      <trkpt lat="49.37232" lon="0.25909">
        <ele>40</ele>
        <time>2017-03-30T13:25:34Z</time>
      </trkpt>
      <trkpt lat="49.37234" lon="0.25917">
        <ele>42</ele>
        <time>2017-03-30T13:25:41Z</time>
      </trkpt>
      <trkpt lat="49.37234" lon="0.25917">
        <ele>43</ele>
        <time>2017-03-30T13:25:43Z</time>
      </trkpt>
      <trkpt lat="49.37234" lon="0.25917">
        <ele>42</ele>
        <time>2017-03-30T13:25:46Z</time>
      </trkpt>
      <trkpt lat="49.37234" lon="0.25918">
        <ele>41</ele>
        <time>2017-03-30T13:25:49Z</time>
      </trkpt>
      <trkpt lat="49.37235" lon="0.25918">
        <ele>38</ele>
        <time>2017-03-30T13:25:52Z</time>
      </trkpt>
      <trkpt lat="49.37235" lon="0.25918">
        <ele>38</ele>
        <time>2017-03-30T13:25:55Z</time>
      </trkpt>
      <trkpt lat="49.37235" lon="0.25918">
        <ele>38</ele>
        <time>2017-03-30T13:25:58Z</time>
      </trkpt>
      <trkpt lat="49.37235" lon="0.25918">
        <ele>38</ele>
        <time>2017-03-30T13:26:01Z</time>
      </trkpt>
      <trkpt lat="49.37235" lon="0.25918">
        <ele>38</ele>
        <time>2017-03-30T13:26:04Z</time>
      </trkpt>
      <trkpt lat="49.37239" lon="0.25928">
        <ele>43</ele>
        <time>2017-03-30T13:26:12Z</time>
      </trkpt>
      <trkpt lat="49.37239" lon="0.2593">
        <ele>45</ele>
        <time>2017-03-30T13:26:13Z</time>
      </trkpt>
      <trkpt lat="49.37238" lon="0.2594">
        <ele>46</ele>
        <time>2017-03-30T13:26:19Z</time>
      </trkpt>
      <trkpt lat="49.37241" lon="0.25951">
        <ele>45</ele>
        <time>2017-03-30T13:26:25Z</time>
      </trkpt>
      <trkpt lat="49.3724" lon="0.25959">
        <ele>47</ele>
        <time>2017-03-30T13:26:31Z</time>
      </trkpt>
      <trkpt lat="49.37239" lon="0.25978">
        <ele>45</ele>
        <time>2017-03-30T13:26:37Z</time>
      </trkpt>
      <trkpt lat="49.37241" lon="0.25984">
        <ele>41</ele>
        <time>2017-03-30T13:26:43Z</time>
      </trkpt>
      <trkpt lat="49.3724" lon="0.25989">
        <ele>38</ele>
        <time>2017-03-30T13:26:49Z</time>
      </trkpt>
      <trkpt lat="49.37242" lon="0.26005">
        <ele>40</ele>
        <time>2017-03-30T13:26:55Z</time>
      </trkpt>
      <trkpt lat="49.37241" lon="0.26026">
        <ele>43</ele>
        <time>2017-03-30T13:27:04Z</time>
      </trkpt>
      <trkpt lat="49.37241" lon="0.26027">
        <ele>42</ele>
        <time>2017-03-30T13:27:07Z</time>
      </trkpt>
      <trkpt lat="49.3724" lon="0.26031">
        <ele>43</ele>
        <time>2017-03-30T13:27:10Z</time>
      </trkpt>
      <trkpt lat="49.3724" lon="0.26035">
        <ele>45</ele>
        <time>2017-03-30T13:27:18Z</time>
      </trkpt>
      <trkpt lat="49.37239" lon="0.26041">
        <ele>44</ele>
        <time>2017-03-30T13:27:24Z</time>
      </trkpt>
      <trkpt lat="49.37239" lon="0.26042">
        <ele>45</ele>
        <time>2017-03-30T13:27:25Z</time>
      </trkpt>
      <trkpt lat="49.37236" lon="0.26055">
        <ele>42</ele>
        <time>2017-03-30T13:27:34Z</time>
      </trkpt>
      <trkpt lat="49.37236" lon="0.26056">
        <ele>42</ele>
        <time>2017-03-30T13:27:37Z</time>
      </trkpt>
      <trkpt lat="49.37236" lon="0.26058">
        <ele>42</ele>
        <time>2017-03-30T13:27:40Z</time>
      </trkpt>
      <trkpt lat="49.37242" lon="0.26061">
        <ele>42</ele>
        <time>2017-03-30T13:27:43Z</time>
      </trkpt>
      <trkpt lat="49.37246" lon="0.26064">
        <ele>42</ele>
        <time>2017-03-30T13:27:49Z</time>
      </trkpt>
      <trkpt lat="49.37249" lon="0.26067">
        <ele>40</ele>
        <time>2017-03-30T13:27:55Z</time>
      </trkpt>
      <trkpt lat="49.37251" lon="0.26074">
        <ele>40</ele>
        <time>2017-03-30T13:28:02Z</time>
      </trkpt>
      <trkpt lat="49.37253" lon="0.26082">
        <ele>44</ele>
        <time>2017-03-30T13:28:07Z</time>
      </trkpt>
      <trkpt lat="49.37251" lon="0.26088">
        <ele>43</ele>
        <time>2017-03-30T13:28:14Z</time>
      </trkpt>
      <trkpt lat="49.37254" lon="0.26087">
        <ele>46</ele>
        <time>2017-03-30T13:28:20Z</time>
      </trkpt>
      <trkpt lat="49.37259" lon="0.26106">
        <ele>42</ele>
        <time>2017-03-30T13:28:29Z</time>
      </trkpt>
      <trkpt lat="49.3726" lon="0.26108">
        <ele>40</ele>
        <time>2017-03-30T13:28:31Z</time>
      </trkpt>
      <trkpt lat="49.3726" lon="0.2611">
        <ele>40</ele>
        <time>2017-03-30T13:28:37Z</time>
      </trkpt>
      <trkpt lat="49.37261" lon="0.2611">
        <ele>41</ele>
        <time>2017-03-30T13:28:40Z</time>
      </trkpt>
      <trkpt lat="49.37263" lon="0.26113">
        <ele>43</ele>
        <time>2017-03-30T13:28:46Z</time>
      </trkpt>
      <trkpt lat="49.37264" lon="0.26116">
        <ele>45</ele>
        <time>2017-03-30T13:28:49Z</time>
      </trkpt>
      <trkpt lat="49.37268" lon="0.26129">
        <ele>45</ele>
        <time>2017-03-30T13:28:55Z</time>
      </trkpt>
      <trkpt lat="49.37268" lon="0.26137">
        <ele>47</ele>
        <time>2017-03-30T13:29:05Z</time>
      </trkpt>
      <trkpt lat="49.37267" lon="0.26138">
        <ele>46</ele>
        <time>2017-03-30T13:29:07Z</time>
      </trkpt>
      <trkpt lat="49.37265" lon="0.26145">
        <ele>48</ele>
        <time>2017-03-30T13:29:14Z</time>
      </trkpt>
      <trkpt lat="49.3727" lon="0.26153">
        <ele>48</ele>
        <time>2017-03-30T13:29:22Z</time>
      </trkpt>
      <trkpt lat="49.3727" lon="0.26155">
        <ele>47</ele>
        <time>2017-03-30T13:29:25Z</time>
      </trkpt>
      <trkpt lat="49.37271" lon="0.26166">
        <ele>48</ele>
        <time>2017-03-30T13:29:31Z</time>
      </trkpt>
      <trkpt lat="49.3727" lon="0.26177">
        <ele>51</ele>
        <time>2017-03-30T13:29:37Z</time>
      </trkpt>
      <trkpt lat="49.37266" lon="0.26188">
        <ele>49</ele>
        <time>2017-03-30T13:29:44Z</time>
      </trkpt>
      <trkpt lat="49.37266" lon="0.26193">
        <ele>50</ele>
        <time>2017-03-30T13:29:49Z</time>
      </trkpt>
      <trkpt lat="49.37267" lon="0.26204">
        <ele>51</ele>
        <time>2017-03-30T13:29:55Z</time>
      </trkpt>
      <trkpt lat="49.3727" lon="0.26215">
        <ele>47</ele>
        <time>2017-03-30T13:30:01Z</time>
      </trkpt>
      <trkpt lat="49.37268" lon="0.26218">
        <ele>45</ele>
        <time>2017-03-30T13:30:07Z</time>
      </trkpt>
      <trkpt lat="49.37269" lon="0.2622">
        <ele>45</ele>
        <time>2017-03-30T13:30:15Z</time>
      </trkpt>
      <trkpt lat="49.37269" lon="0.2622">
        <ele>46</ele>
        <time>2017-03-30T13:30:16Z</time>
      </trkpt>
      <trkpt lat="49.37269" lon="0.2622">
        <ele>46</ele>
        <time>2017-03-30T13:30:19Z</time>
      </trkpt>
      <trkpt lat="49.37269" lon="0.2622">
        <ele>46</ele>
        <time>2017-03-30T13:30:22Z</time>
      </trkpt>
      <trkpt lat="49.37269" lon="0.2622">
        <ele>46</ele>
        <time>2017-03-30T13:30:26Z</time>
      </trkpt>
      <trkpt lat="49.37269" lon="0.2622">
        <ele>46</ele>
        <time>2017-03-30T13:30:28Z</time>
      </trkpt>
      <trkpt lat="49.37269" lon="0.2622">
        <ele>46</ele>
        <time>2017-03-30T13:30:31Z</time>
      </trkpt>
      <trkpt lat="49.37269" lon="0.26222">
        <ele>46</ele>
        <time>2017-03-30T13:30:34Z</time>
      </trkpt>
      <trkpt lat="49.37268" lon="0.26224">
        <ele>46</ele>
        <time>2017-03-30T13:30:40Z</time>
      </trkpt>
      <trkpt lat="49.37268" lon="0.26224">
        <ele>46</ele>
        <time>2017-03-30T13:30:44Z</time>
      </trkpt>
      <trkpt lat="49.37268" lon="0.26224">
        <ele>46</ele>
        <time>2017-03-30T13:30:46Z</time>
      </trkpt>
      <trkpt lat="49.37268" lon="0.26224">
        <ele>48</ele>
        <time>2017-03-30T13:30:49Z</time>
      </trkpt>
      <trkpt lat="49.37271" lon="0.26223">
        <ele>48</ele>
        <time>2017-03-30T13:30:53Z</time>
      </trkpt>
      <trkpt lat="49.37276" lon="0.2622">
        <ele>48</ele>
        <time>2017-03-30T13:30:58Z</time>
      </trkpt>
      <trkpt lat="49.37286" lon="0.26215">
        <ele>50</ele>
        <time>2017-03-30T13:31:09Z</time>
      </trkpt>
      <trkpt lat="49.3729" lon="0.26212">
        <ele>52</ele>
        <time>2017-03-30T13:31:13Z</time>
      </trkpt>
      <trkpt lat="49.37292" lon="0.26211">
        <ele>52</ele>
        <time>2017-03-30T13:31:16Z</time>
      </trkpt>
      <trkpt lat="49.37297" lon="0.26209">
        <ele>51</ele>
        <time>2017-03-30T13:31:22Z</time>
      </trkpt>
      <trkpt lat="49.373" lon="0.26206">
        <ele>51</ele>
        <time>2017-03-30T13:31:28Z</time>
      </trkpt>
      <trkpt lat="49.37309" lon="0.26204">
        <ele>51</ele>
        <time>2017-03-30T13:31:34Z</time>
      </trkpt>
      <trkpt lat="49.37312" lon="0.26205">
        <ele>51</ele>
        <time>2017-03-30T13:31:40Z</time>
      </trkpt>
      <trkpt lat="49.3732" lon="0.2621">
        <ele>48</ele>
        <time>2017-03-30T13:31:46Z</time>
      </trkpt>
      <trkpt lat="49.37325" lon="0.26212">
        <ele>50</ele>
        <time>2017-03-30T13:31:52Z</time>
      </trkpt>
      <trkpt lat="49.3733" lon="0.26224">
        <ele>50</ele>
        <time>2017-03-30T13:32:03Z</time>
      </trkpt>
      <trkpt lat="49.3733" lon="0.26226">
        <ele>50</ele>
        <time>2017-03-30T13:32:04Z</time>
      </trkpt>
      <trkpt lat="49.37334" lon="0.26236">
        <ele>50</ele>
        <time>2017-03-30T13:32:12Z</time>
      </trkpt>
      <trkpt lat="49.37336" lon="0.26241">
        <ele>51</ele>
        <time>2017-03-30T13:32:16Z</time>
      </trkpt>
      <trkpt lat="49.37337" lon="0.26253">
        <ele>49</ele>
        <time>2017-03-30T13:32:25Z</time>
      </trkpt>
      <trkpt lat="49.3734" lon="0.26255">
        <ele>50</ele>
        <time>2017-03-30T13:32:28Z</time>
      </trkpt>
      <trkpt lat="49.37342" lon="0.26264">
        <ele>51</ele>
        <time>2017-03-30T13:32:34Z</time>
      </trkpt>
      <trkpt lat="49.37343" lon="0.2627">
        <ele>51</ele>
        <time>2017-03-30T13:32:40Z</time>
      </trkpt>
      <trkpt lat="49.37343" lon="0.26272">
        <ele>53</ele>
        <time>2017-03-30T13:32:47Z</time>
      </trkpt>
      <trkpt lat="49.37343" lon="0.26272">
        <ele>53</ele>
        <time>2017-03-30T13:32:49Z</time>
      </trkpt>
      <trkpt lat="49.37342" lon="0.26272">
        <ele>54</ele>
        <time>2017-03-30T13:32:52Z</time>
      </trkpt>
      <trkpt lat="49.37342" lon="0.26272">
        <ele>54</ele>
        <time>2017-03-30T13:32:55Z</time>
      </trkpt>
      <trkpt lat="49.37342" lon="0.26272">
        <ele>53</ele>
        <time>2017-03-30T13:32:58Z</time>
      </trkpt>
      <trkpt lat="49.37342" lon="0.26274">
        <ele>53</ele>
        <time>2017-03-30T13:33:01Z</time>
      </trkpt>
      <trkpt lat="49.37343" lon="0.26283">
        <ele>52</ele>
        <time>2017-03-30T13:33:08Z</time>
      </trkpt>
      <trkpt lat="49.37343" lon="0.26291">
        <ele>52</ele>
        <time>2017-03-30T13:33:15Z</time>
      </trkpt>
      <trkpt lat="49.37345" lon="0.26295">
        <ele>53</ele>
        <time>2017-03-30T13:33:19Z</time>
      </trkpt>
      <trkpt lat="49.37347" lon="0.26302">
        <ele>53</ele>
        <time>2017-03-30T13:33:25Z</time>
      </trkpt>
      <trkpt lat="49.37351" lon="0.26307">
        <ele>53</ele>
        <time>2017-03-30T13:33:32Z</time>
      </trkpt>
      <trkpt lat="49.37351" lon="0.26313">
        <ele>54</ele>
        <time>2017-03-30T13:33:37Z</time>
      </trkpt>
      <trkpt lat="49.37353" lon="0.26318">
        <ele>55</ele>
        <time>2017-03-30T13:33:43Z</time>
      </trkpt>
      <trkpt lat="49.37356" lon="0.26328">
        <ele>58</ele>
        <time>2017-03-30T13:33:51Z</time>
      </trkpt>
      <trkpt lat="49.37361" lon="0.2633">
        <ele>60</ele>
        <time>2017-03-30T13:33:55Z</time>
      </trkpt>
      <trkpt lat="49.37364" lon="0.26328">
        <ele>61</ele>
        <time>2017-03-30T13:34:01Z</time>
      </trkpt>
      <trkpt lat="49.37365" lon="0.26326">
        <ele>61</ele>
        <time>2017-03-30T13:34:07Z</time>
      </trkpt>
      <trkpt lat="49.37366" lon="0.26326">
        <ele>61</ele>
        <time>2017-03-30T13:34:10Z</time>
      </trkpt>
      <trkpt lat="49.37367" lon="0.2633">
        <ele>59</ele>
        <time>2017-03-30T13:34:13Z</time>
      </trkpt>
      <trkpt lat="49.3737" lon="0.26345">
        <ele>58</ele>
        <time>2017-03-30T13:34:23Z</time>
      </trkpt>
      <trkpt lat="49.37371" lon="0.26346">
        <ele>57</ele>
        <time>2017-03-30T13:34:25Z</time>
      </trkpt>
      <trkpt lat="49.37373" lon="0.26362">
        <ele>55</ele>
        <time>2017-03-30T13:34:36Z</time>
      </trkpt>
      <trkpt lat="49.37374" lon="0.26361">
        <ele>57</ele>
        <time>2017-03-30T13:34:39Z</time>
      </trkpt>
      <trkpt lat="49.37376" lon="0.26362">
        <ele>61</ele>
        <time>2017-03-30T13:34:43Z</time>
      </trkpt>
      <trkpt lat="49.37377" lon="0.26365">
        <ele>62</ele>
        <time>2017-03-30T13:34:47Z</time>
      </trkpt>
      <trkpt lat="49.37379" lon="0.26365">
        <ele>64</ele>
        <time>2017-03-30T13:34:52Z</time>
      </trkpt>
      <trkpt lat="49.37379" lon="0.26364">
        <ele>66</ele>
        <time>2017-03-30T13:34:55Z</time>
      </trkpt>
      <trkpt lat="49.37379" lon="0.26364">
        <ele>66</ele>
        <time>2017-03-30T13:34:58Z</time>
      </trkpt>
      <trkpt lat="49.37379" lon="0.26364">
        <ele>66</ele>
        <time>2017-03-30T13:35:01Z</time>
      </trkpt>
      <trkpt lat="49.3738" lon="0.26365">
        <ele>68</ele>
        <time>2017-03-30T13:35:04Z</time>
      </trkpt>
      <trkpt lat="49.37382" lon="0.26367">
        <ele>68</ele>
        <time>2017-03-30T13:35:07Z</time>
      </trkpt>
      <trkpt lat="49.37386" lon="0.26372">
        <ele>67</ele>
        <time>2017-03-30T13:35:13Z</time>
      </trkpt>
      <trkpt lat="49.37386" lon="0.26374">
        <ele>67</ele>
        <time>2017-03-30T13:35:19Z</time>
      </trkpt>
      <trkpt lat="49.37387" lon="0.26375">
        <ele>66</ele>
        <time>2017-03-30T13:35:22Z</time>
      </trkpt>
      <trkpt lat="49.37387" lon="0.26375">
        <ele>66</ele>
        <time>2017-03-30T13:35:25Z</time>
      </trkpt>
      <trkpt lat="49.37387" lon="0.26375">
        <ele>68</ele>
        <time>2017-03-30T13:35:28Z</time>
      </trkpt>
      <trkpt lat="49.37387" lon="0.26375">
        <ele>66</ele>
        <time>2017-03-30T13:35:31Z</time>
      </trkpt>
      <trkpt lat="49.37388" lon="0.26374">
        <ele>65</ele>
        <time>2017-03-30T13:35:34Z</time>
      </trkpt>
      <trkpt lat="49.37388" lon="0.26375">
        <ele>64</ele>
        <time>2017-03-30T13:35:38Z</time>
      </trkpt>
      <trkpt lat="49.37388" lon="0.26375">
        <ele>64</ele>
        <time>2017-03-30T13:35:40Z</time>
      </trkpt>
      <trkpt lat="49.37388" lon="0.26375">
        <ele>64</ele>
        <time>2017-03-30T13:35:43Z</time>
      </trkpt>
      <trkpt lat="49.37388" lon="0.26375">
        <ele>64</ele>
        <time>2017-03-30T13:35:46Z</time>
      </trkpt>
      <trkpt lat="49.3739" lon="0.2638">
        <ele>66</ele>
        <time>2017-03-30T13:35:49Z</time>
      </trkpt>
      <trkpt lat="49.37398" lon="0.26389">
        <ele>67</ele>
        <time>2017-03-30T13:35:57Z</time>
      </trkpt>
      <trkpt lat="49.37399" lon="0.2639">
        <ele>66</ele>
        <time>2017-03-30T13:36:01Z</time>
      </trkpt>
      <trkpt lat="49.37403" lon="0.26392">
        <ele>68</ele>
        <time>2017-03-30T13:36:06Z</time>
      </trkpt>
      <trkpt lat="49.37407" lon="0.26397">
        <ele>67</ele>
        <time>2017-03-30T13:36:10Z</time>
      </trkpt>
      <trkpt lat="49.37413" lon="0.26403">
        <ele>66</ele>
        <time>2017-03-30T13:36:18Z</time>
      </trkpt>
      <trkpt lat="49.37418" lon="0.26405">
        <ele>70</ele>
        <time>2017-03-30T13:36:22Z</time>
      </trkpt>
      <trkpt lat="49.37423" lon="0.26411">
        <ele>70</ele>
        <time>2017-03-30T13:36:28Z</time>
      </trkpt>
      <trkpt lat="49.3743" lon="0.26416">
        <ele>73</ele>
        <time>2017-03-30T13:36:34Z</time>
      </trkpt>
      <trkpt lat="49.37435" lon="0.26419">
        <ele>74</ele>
        <time>2017-03-30T13:36:42Z</time>
      </trkpt>
      <trkpt lat="49.37438" lon="0.26423">
        <ele>75</ele>
        <time>2017-03-30T13:36:46Z</time>
      </trkpt>
      <trkpt lat="49.37448" lon="0.26426">
        <ele>76</ele>
        <time>2017-03-30T13:36:52Z</time>
      </trkpt>
      <trkpt lat="49.37456" lon="0.26435">
        <ele>76</ele>
        <time>2017-03-30T13:37:02Z</time>
      </trkpt>
      <trkpt lat="49.37458" lon="0.26437">
        <ele>75</ele>
        <time>2017-03-30T13:37:04Z</time>
      </trkpt>
      <trkpt lat="49.37463" lon="0.26443">
        <ele>76</ele>
        <time>2017-03-30T13:37:11Z</time>
      </trkpt>
      <trkpt lat="49.37468" lon="0.2645">
        <ele>76</ele>
        <time>2017-03-30T13:37:16Z</time>
      </trkpt>
      <trkpt lat="49.37472" lon="0.26456">
        <ele>79</ele>
        <time>2017-03-30T13:37:22Z</time>
      </trkpt>
      <trkpt lat="49.37475" lon="0.26456">
        <ele>81</ele>
        <time>2017-03-30T13:37:31Z</time>
      </trkpt>
      <trkpt lat="49.37475" lon="0.26457">
        <ele>80</ele>
        <time>2017-03-30T13:37:34Z</time>
      </trkpt>
      <trkpt lat="49.37479" lon="0.26461">
        <ele>80</ele>
        <time>2017-03-30T13:37:37Z</time>
      </trkpt>
      <trkpt lat="49.37481" lon="0.26463">
        <ele>81</ele>
        <time>2017-03-30T13:37:43Z</time>
      </trkpt>
      <trkpt lat="49.3749" lon="0.26472">
        <ele>82</ele>
        <time>2017-03-30T13:37:52Z</time>
      </trkpt>
      <trkpt lat="49.37495" lon="0.26476">
        <ele>81</ele>
        <time>2017-03-30T13:37:55Z</time>
      </trkpt>
      <trkpt lat="49.37503" lon="0.26486">
        <ele>79</ele>
        <time>2017-03-30T13:38:02Z</time>
      </trkpt>
      <trkpt lat="49.37509" lon="0.26488">
        <ele>80</ele>
        <time>2017-03-30T13:38:07Z</time>
      </trkpt>
      <trkpt lat="49.37512" lon="0.26495">
        <ele>78</ele>
        <time>2017-03-30T13:38:13Z</time>
      </trkpt>
      <trkpt lat="49.37516" lon="0.26499">
        <ele>82</ele>
        <time>2017-03-30T13:38:19Z</time>
      </trkpt>
      <trkpt lat="49.37523" lon="0.26508">
        <ele>79</ele>
        <time>2017-03-30T13:38:25Z</time>
      </trkpt>
      <trkpt lat="49.37526" lon="0.26511">
        <ele>82</ele>
        <time>2017-03-30T13:38:33Z</time>
      </trkpt>
      <trkpt lat="49.3753" lon="0.26516">
        <ele>84</ele>
        <time>2017-03-30T13:38:39Z</time>
      </trkpt>
      <trkpt lat="49.3754" lon="0.26525">
        <ele>84</ele>
        <time>2017-03-30T13:38:45Z</time>
      </trkpt>
      <trkpt lat="49.37546" lon="0.26531">
        <ele>85</ele>
        <time>2017-03-30T13:38:49Z</time>
      </trkpt>
      <trkpt lat="49.37554" lon="0.26543">
        <ele>86</ele>
        <time>2017-03-30T13:38:58Z</time>
      </trkpt>
      <trkpt lat="49.37555" lon="0.26544">
        <ele>85</ele>
        <time>2017-03-30T13:39:01Z</time>
      </trkpt>
      <trkpt lat="49.3756" lon="0.26552">
        <ele>85</ele>
        <time>2017-03-30T13:39:10Z</time>
      </trkpt>
      <trkpt lat="49.37564" lon="0.26556">
        <ele>84</ele>
        <time>2017-03-30T13:39:13Z</time>
      </trkpt>
      <trkpt lat="49.37572" lon="0.26568">
        <ele>85</ele>
        <time>2017-03-30T13:39:19Z</time>
      </trkpt>
      <trkpt lat="49.37576" lon="0.26574">
        <ele>86</ele>
        <time>2017-03-30T13:39:25Z</time>
      </trkpt>
      <trkpt lat="49.37582" lon="0.26583">
        <ele>88</ele>
        <time>2017-03-30T13:39:31Z</time>
      </trkpt>
      <trkpt lat="49.37586" lon="0.26595">
        <ele>89</ele>
        <time>2017-03-30T13:39:40Z</time>
      </trkpt>
      <trkpt lat="49.37588" lon="0.266">
        <ele>89</ele>
        <time>2017-03-30T13:39:45Z</time>
      </trkpt>
      <trkpt lat="49.37589" lon="0.26606">
        <ele>90</ele>
        <time>2017-03-30T13:39:49Z</time>
      </trkpt>
      <trkpt lat="49.37594" lon="0.26619">
        <ele>91</ele>
        <time>2017-03-30T13:39:55Z</time>
      </trkpt>
      <trkpt lat="49.37595" lon="0.26629">
        <ele>93</ele>
        <time>2017-03-30T13:40:01Z</time>
      </trkpt>
      <trkpt lat="49.37597" lon="0.2664">
        <ele>98</ele>
        <time>2017-03-30T13:40:11Z</time>
      </trkpt>
      <trkpt lat="49.37598" lon="0.26643">
        <ele>98</ele>
        <time>2017-03-30T13:40:13Z</time>
      </trkpt>
      <trkpt lat="49.37602" lon="0.26652">
        <ele>97</ele>
        <time>2017-03-30T13:40:19Z</time>
      </trkpt>
      <trkpt lat="49.37602" lon="0.26661">
        <ele>96</ele>
        <time>2017-03-30T13:40:26Z</time>
      </trkpt>
      <trkpt lat="49.37604" lon="0.2667">
        <ele>94</ele>
        <time>2017-03-30T13:40:31Z</time>
      </trkpt>
      <trkpt lat="49.37609" lon="0.26685">
        <ele>94</ele>
        <time>2017-03-30T13:40:37Z</time>
      </trkpt>
      <trkpt lat="49.37613" lon="0.26694">
        <ele>94</ele>
        <time>2017-03-30T13:40:43Z</time>
      </trkpt>
      <trkpt lat="49.37613" lon="0.267">
        <ele>94</ele>
        <time>2017-03-30T13:40:51Z</time>
      </trkpt>
      <trkpt lat="49.37614" lon="0.26703">
        <ele>95</ele>
        <time>2017-03-30T13:40:55Z</time>
      </trkpt>
      <trkpt lat="49.37621" lon="0.26715">
        <ele>97</ele>
        <time>2017-03-30T13:41:01Z</time>
      </trkpt>
      <trkpt lat="49.37628" lon="0.26722">
        <ele>97</ele>
        <time>2017-03-30T13:41:07Z</time>
      </trkpt>
      <trkpt lat="49.37631" lon="0.26724">
        <ele>97</ele>
        <time>2017-03-30T13:41:13Z</time>
      </trkpt>
      <trkpt lat="49.37632" lon="0.26731">
        <ele>96</ele>
        <time>2017-03-30T13:41:19Z</time>
      </trkpt>
      <trkpt lat="49.37633" lon="0.26737">
        <ele>95</ele>
        <time>2017-03-30T13:41:25Z</time>
      </trkpt>
      <trkpt lat="49.37636" lon="0.26743">
        <ele>92</ele>
        <time>2017-03-30T13:41:31Z</time>
      </trkpt>
      <trkpt lat="49.37639" lon="0.2675">
        <ele>90</ele>
        <time>2017-03-30T13:41:38Z</time>
      </trkpt>
      <trkpt lat="49.37645" lon="0.26754">
        <ele>94</ele>
        <time>2017-03-30T13:41:48Z</time>
      </trkpt>
      <trkpt lat="49.37646" lon="0.26758">
        <ele>92</ele>
        <time>2017-03-30T13:41:50Z</time>
      </trkpt>
      <trkpt lat="49.37648" lon="0.26762">
        <ele>91</ele>
        <time>2017-03-30T13:41:55Z</time>
      </trkpt>
      <trkpt lat="49.37654" lon="0.26775">
        <ele>87</ele>
        <time>2017-03-30T13:42:01Z</time>
      </trkpt>
      <trkpt lat="49.37658" lon="0.26783">
        <ele>84</ele>
        <time>2017-03-30T13:42:07Z</time>
      </trkpt>
      <trkpt lat="49.37662" lon="0.26791">
        <ele>82</ele>
        <time>2017-03-30T13:42:13Z</time>
      </trkpt>
      <trkpt lat="49.37673" lon="0.26803">
        <ele>85</ele>
        <time>2017-03-30T13:42:24Z</time>
      </trkpt>
      <trkpt lat="49.37683" lon="0.26812">
        <ele>89</ele>
        <time>2017-03-30T13:42:30Z</time>
      </trkpt>
      <trkpt lat="49.37695" lon="0.26819">
        <ele>95</ele>
        <time>2017-03-30T13:42:36Z</time>
      </trkpt>
      <trkpt lat="49.37705" lon="0.26822">
        <ele>98</ele>
        <time>2017-03-30T13:42:42Z</time>
      </trkpt>
      <trkpt lat="49.37706" lon="0.26823">
        <ele>99</ele>
        <time>2017-03-30T13:42:43Z</time>
      </trkpt>
      <trkpt lat="49.37716" lon="0.26831">
        <ele>98</ele>
        <time>2017-03-30T13:42:49Z</time>
      </trkpt>
      <trkpt lat="49.37724" lon="0.26843">
        <ele>100</ele>
        <time>2017-03-30T13:42:55Z</time>
      </trkpt>
      <trkpt lat="49.37727" lon="0.26851">
        <ele>99</ele>
        <time>2017-03-30T13:43:01Z</time>
      </trkpt>
      <trkpt lat="49.3773" lon="0.2686">
        <ele>97</ele>
        <time>2017-03-30T13:43:07Z</time>
      </trkpt>
      <trkpt lat="49.3773" lon="0.26861">
        <ele>96</ele>
        <time>2017-03-30T13:43:13Z</time>
      </trkpt>
      <trkpt lat="49.37732" lon="0.26862">
        <ele>98</ele>
        <time>2017-03-30T13:43:18Z</time>
      </trkpt>
      <trkpt lat="49.37734" lon="0.26864">
        <ele>98</ele>
        <time>2017-03-30T13:43:22Z</time>
      </trkpt>
      <trkpt lat="49.37738" lon="0.26874">
        <ele>100</ele>
        <time>2017-03-30T13:43:31Z</time>
      </trkpt>
      <trkpt lat="49.37746" lon="0.26883">
        <ele>98</ele>
        <time>2017-03-30T13:43:37Z</time>
      </trkpt>
      <trkpt lat="49.3775" lon="0.2689">
        <ele>98</ele>
        <time>2017-03-30T13:43:40Z</time>
      </trkpt>
      <trkpt lat="49.3776" lon="0.26904">
        <ele>93</ele>
        <time>2017-03-30T13:43:46Z</time>
      </trkpt>
      <trkpt lat="49.37772" lon="0.26922">
        <ele>97</ele>
        <time>2017-03-30T13:43:57Z</time>
      </trkpt>
      <trkpt lat="49.37772" lon="0.26924">
        <ele>98</ele>
        <time>2017-03-30T13:43:58Z</time>
      </trkpt>
      <trkpt lat="49.37778" lon="0.26934">
        <ele>97</ele>
        <time>2017-03-30T13:44:04Z</time>
      </trkpt>
      <trkpt lat="49.37785" lon="0.26942">
        <ele>97</ele>
        <time>2017-03-30T13:44:13Z</time>
      </trkpt>
      <trkpt lat="49.37785" lon="0.26945">
        <ele>96</ele>
        <time>2017-03-30T13:44:16Z</time>
      </trkpt>
      <trkpt lat="49.37787" lon="0.2695">
        <ele>97</ele>
        <time>2017-03-30T13:44:23Z</time>
      </trkpt>
      <trkpt lat="49.37794" lon="0.26953">
        <ele>100</ele>
        <time>2017-03-30T13:44:28Z</time>
      </trkpt>
      <trkpt lat="49.37804" lon="0.26964">
        <ele>97</ele>
        <time>2017-03-30T13:44:35Z</time>
      </trkpt>
      <trkpt lat="49.37812" lon="0.26973">
        <ele>95</ele>
        <time>2017-03-30T13:44:40Z</time>
      </trkpt>
      <trkpt lat="49.37818" lon="0.26981">
        <ele>94</ele>
        <time>2017-03-30T13:44:46Z</time>
      </trkpt>
      <trkpt lat="49.37822" lon="0.26988">
        <ele>97</ele>
        <time>2017-03-30T13:44:52Z</time>
      </trkpt>
      <trkpt lat="49.37826" lon="0.26989">
        <ele>99</ele>
        <time>2017-03-30T13:44:59Z</time>
      </trkpt>
      <trkpt lat="49.37827" lon="0.26994">
        <ele>98</ele>
        <time>2017-03-30T13:45:04Z</time>
      </trkpt>
      <trkpt lat="49.37834" lon="0.27003">
        <ele>98</ele>
        <time>2017-03-30T13:45:11Z</time>
      </trkpt>
      <trkpt lat="49.37842" lon="0.27012">
        <ele>98</ele>
        <time>2017-03-30T13:45:17Z</time>
      </trkpt>
      <trkpt lat="49.37849" lon="0.2702">
        <ele>100</ele>
        <time>2017-03-30T13:45:22Z</time>
      </trkpt>
      <trkpt lat="49.3785" lon="0.27025">
        <ele>100</ele>
        <time>2017-03-30T13:45:29Z</time>
      </trkpt>
      <trkpt lat="49.37853" lon="0.27031">
        <ele>98</ele>
        <time>2017-03-30T13:45:34Z</time>
      </trkpt>
      <trkpt lat="49.37865" lon="0.27043">
        <ele>99</ele>
        <time>2017-03-30T13:45:45Z</time>
      </trkpt>
      <trkpt lat="49.37872" lon="0.27052">
        <ele>95</ele>
        <time>2017-03-30T13:45:50Z</time>
      </trkpt>
      <trkpt lat="49.37874" lon="0.27056">
        <ele>97</ele>
        <time>2017-03-30T13:45:52Z</time>
      </trkpt>
      <trkpt lat="49.37882" lon="0.27068">
        <ele>96</ele>
        <time>2017-03-30T13:45:58Z</time>
      </trkpt>
      <trkpt lat="49.37893" lon="0.27084">
        <ele>98</ele>
        <time>2017-03-30T13:46:09Z</time>
      </trkpt>
      <trkpt lat="49.37894" lon="0.27086">
        <ele>99</ele>
        <time>2017-03-30T13:46:10Z</time>
      </trkpt>
      <trkpt lat="49.37895" lon="0.27089">
        <ele>98</ele>
        <time>2017-03-30T13:46:16Z</time>
      </trkpt>
      <trkpt lat="49.37895" lon="0.27087">
        <ele>99</ele>
        <time>2017-03-30T13:46:20Z</time>
      </trkpt>
      <trkpt lat="49.37896" lon="0.27087">
        <ele>98</ele>
        <time>2017-03-30T13:46:22Z</time>
      </trkpt>
      <trkpt lat="49.3791" lon="0.27082">
        <ele>99</ele>
        <time>2017-03-30T13:46:32Z</time>
      </trkpt>
      <trkpt lat="49.37913" lon="0.27083">
        <ele>101</ele>
        <time>2017-03-30T13:46:34Z</time>
      </trkpt>
      <trkpt lat="49.37922" lon="0.2708">
        <ele>99</ele>
        <time>2017-03-30T13:46:40Z</time>
      </trkpt>
      <trkpt lat="49.37928" lon="0.27078">
        <ele>98</ele>
        <time>2017-03-30T13:46:46Z</time>
      </trkpt>
      <trkpt lat="49.3793" lon="0.27077">
        <ele>100</ele>
        <time>2017-03-30T13:46:54Z</time>
      </trkpt>
      <trkpt lat="49.37932" lon="0.27077">
        <ele>99</ele>
        <time>2017-03-30T13:46:55Z</time>
      </trkpt>
      <trkpt lat="49.37938" lon="0.27078">
        <ele>94</ele>
        <time>2017-03-30T13:47:01Z</time>
      </trkpt>
      <trkpt lat="49.37943" lon="0.27078">
        <ele>93</ele>
        <time>2017-03-30T13:47:07Z</time>
      </trkpt>
      <trkpt lat="49.37951" lon="0.27079">
        <ele>94</ele>
        <time>2017-03-30T13:47:13Z</time>
      </trkpt>
      <trkpt lat="49.37959" lon="0.27082">
        <ele>94</ele>
        <time>2017-03-30T13:47:20Z</time>
      </trkpt>
      <trkpt lat="49.37963" lon="0.27081">
        <ele>96</ele>
        <time>2017-03-30T13:47:25Z</time>
      </trkpt>
      <trkpt lat="49.37968" lon="0.27081">
        <ele>94</ele>
        <time>2017-03-30T13:47:31Z</time>
      </trkpt>
      <trkpt lat="49.3797" lon="0.27082">
        <ele>94</ele>
        <time>2017-03-30T13:47:37Z</time>
      </trkpt>
      <trkpt lat="49.37973" lon="0.27084">
        <ele>92</ele>
        <time>2017-03-30T13:47:43Z</time>
      </trkpt>
      <trkpt lat="49.3798" lon="0.27084">
        <ele>89</ele>
        <time>2017-03-30T13:47:49Z</time>
      </trkpt>
      <trkpt lat="49.37986" lon="0.27084">
        <ele>89</ele>
        <time>2017-03-30T13:47:55Z</time>
      </trkpt>
      <trkpt lat="49.37996" lon="0.27086">
        <ele>89</ele>
        <time>2017-03-30T13:48:01Z</time>
      </trkpt>
      <trkpt lat="49.38007" lon="0.27093">
        <ele>83</ele>
        <time>2017-03-30T13:48:07Z</time>
      </trkpt>
      <trkpt lat="49.38016" lon="0.27092">
        <ele>86</ele>
        <time>2017-03-30T13:48:14Z</time>
      </trkpt>
      <trkpt lat="49.38031" lon="0.27098">
        <ele>88</ele>
        <time>2017-03-30T13:48:24Z</time>
      </trkpt>
      <trkpt lat="49.38037" lon="0.27096">
        <ele>87</ele>
        <time>2017-03-30T13:48:28Z</time>
      </trkpt>
      <trkpt lat="49.3804" lon="0.27098">
        <ele>85</ele>
        <time>2017-03-30T13:48:31Z</time>
      </trkpt>
      <trkpt lat="49.38048" lon="0.27098">
        <ele>84</ele>
        <time>2017-03-30T13:48:38Z</time>
      </trkpt>
      <trkpt lat="49.38059" lon="0.27098">
        <ele>84</ele>
        <time>2017-03-30T13:48:48Z</time>
      </trkpt>
      <trkpt lat="49.38061" lon="0.27099">
        <ele>82</ele>
        <time>2017-03-30T13:48:51Z</time>
      </trkpt>
      <trkpt lat="49.38065" lon="0.27095">
        <ele>82</ele>
        <time>2017-03-30T13:48:59Z</time>
      </trkpt>
      <trkpt lat="49.38066" lon="0.27095">
        <ele>81</ele>
        <time>2017-03-30T13:49:01Z</time>
      </trkpt>
      <trkpt lat="49.38067" lon="0.27095">
        <ele>82</ele>
        <time>2017-03-30T13:49:04Z</time>
      </trkpt>
      <trkpt lat="49.38067" lon="0.27095">
        <ele>82</ele>
        <time>2017-03-30T13:49:07Z</time>
      </trkpt>
      <trkpt lat="49.38082" lon="0.27098">
        <ele>84</ele>
        <time>2017-03-30T13:49:15Z</time>
      </trkpt>
      <trkpt lat="49.38092" lon="0.27097">
        <ele>89</ele>
        <time>2017-03-30T13:49:19Z</time>
      </trkpt>
      <trkpt lat="49.38098" lon="0.27095">
        <ele>92</ele>
        <time>2017-03-30T13:49:22Z</time>
      </trkpt>
      <trkpt lat="49.38106" lon="0.27104">
        <ele>79</ele>
        <time>2017-03-30T13:49:31Z</time>
      </trkpt>
      <trkpt lat="49.38112" lon="0.27104">
        <ele>78</ele>
        <time>2017-03-30T13:49:34Z</time>
      </trkpt>
      <trkpt lat="49.38114" lon="0.27105">
        <ele>80</ele>
        <time>2017-03-30T13:49:40Z</time>
      </trkpt>
      <trkpt lat="49.38116" lon="0.27107">
        <ele>80</ele>
        <time>2017-03-30T13:49:47Z</time>
      </trkpt>
      <trkpt lat="49.38117" lon="0.27111">
        <ele>77</ele>
        <time>2017-03-30T13:49:49Z</time>
      </trkpt>
      <trkpt lat="49.38126" lon="0.27117">
        <ele>69</ele>
        <time>2017-03-30T13:50:00Z</time>
      </trkpt>
      <trkpt lat="49.38128" lon="0.27115">
        <ele>72</ele>
        <time>2017-03-30T13:50:05Z</time>
      </trkpt>
      <trkpt lat="49.38128" lon="0.27115">
        <ele>73</ele>
        <time>2017-03-30T13:50:07Z</time>
      </trkpt>
      <trkpt lat="49.38129" lon="0.27115">
        <ele>73</ele>
        <time>2017-03-30T13:50:10Z</time>
      </trkpt>
      <trkpt lat="49.38129" lon="0.27115">
        <ele>73</ele>
        <time>2017-03-30T13:50:14Z</time>
      </trkpt>
      <trkpt lat="49.38129" lon="0.27115">
        <ele>73</ele>
        <time>2017-03-30T13:50:16Z</time>
      </trkpt>
      <trkpt lat="49.38129" lon="0.27115">
        <ele>73</ele>
        <time>2017-03-30T13:50:21Z</time>
      </trkpt>
      <trkpt lat="49.38129" lon="0.27115">
        <ele>73</ele>
        <time>2017-03-30T13:50:22Z</time>
      </trkpt>
      <trkpt lat="49.38129" lon="0.27115">
        <ele>73</ele>
        <time>2017-03-30T13:50:25Z</time>
      </trkpt>
      <trkpt lat="49.38129" lon="0.27115">
        <ele>73</ele>
        <time>2017-03-30T13:50:28Z</time>
      </trkpt>
      <trkpt lat="49.38129" lon="0.27115">
        <ele>73</ele>
        <time>2017-03-30T13:50:31Z</time>
      </trkpt>
      <trkpt lat="49.38129" lon="0.27115">
        <ele>73</ele>
        <time>2017-03-30T13:50:34Z</time>
      </trkpt>
      <trkpt lat="49.38129" lon="0.27115">
        <ele>73</ele>
        <time>2017-03-30T13:50:37Z</time>
      </trkpt>
      <trkpt lat="49.38129" lon="0.27115">
        <ele>73</ele>
        <time>2017-03-30T13:50:40Z</time>
      </trkpt>
      <trkpt lat="49.38129" lon="0.27115">
        <ele>73</ele>
        <time>2017-03-30T13:50:43Z</time>
      </trkpt>
      <trkpt lat="49.38129" lon="0.27115">
        <ele>73</ele>
        <time>2017-03-30T13:50:46Z</time>
      </trkpt>
      <trkpt lat="49.38129" lon="0.27115">
        <ele>73</ele>
        <time>2017-03-30T13:50:51Z</time>
      </trkpt>
      <trkpt lat="49.38129" lon="0.27115">
        <ele>73</ele>
        <time>2017-03-30T13:50:52Z</time>
      </trkpt>
      <trkpt lat="49.38129" lon="0.27115">
        <ele>73</ele>
        <time>2017-03-30T13:50:56Z</time>
      </trkpt>
      <trkpt lat="49.38129" lon="0.27115">
        <ele>73</ele>
        <time>2017-03-30T13:50:58Z</time>
      </trkpt>
      <trkpt lat="49.38129" lon="0.27115">
        <ele>73</ele>
        <time>2017-03-30T13:51:03Z</time>
      </trkpt>
      <trkpt lat="49.38129" lon="0.27115">
        <ele>73</ele>
        <time>2017-03-30T13:51:04Z</time>
      </trkpt>
      <trkpt lat="49.3813" lon="0.27113">
        <ele>75</ele>
        <time>2017-03-30T13:51:07Z</time>
      </trkpt>
      <trkpt lat="49.38131" lon="0.27115">
        <ele>75</ele>
        <time>2017-03-30T13:51:14Z</time>
      </trkpt>
      <trkpt lat="49.38131" lon="0.27115">
        <ele>75</ele>
        <time>2017-03-30T13:51:18Z</time>
      </trkpt>
      <trkpt lat="49.38131" lon="0.27115">
        <ele>75</ele>
        <time>2017-03-30T13:51:20Z</time>
      </trkpt>
      <trkpt lat="49.38131" lon="0.27115">
        <ele>75</ele>
        <time>2017-03-30T13:51:23Z</time>
      </trkpt>
      <trkpt lat="49.38131" lon="0.27115">
        <ele>75</ele>
        <time>2017-03-30T13:51:27Z</time>
      </trkpt>
      <trkpt lat="49.38131" lon="0.27115">
        <ele>75</ele>
        <time>2017-03-30T13:51:28Z</time>
      </trkpt>
      <trkpt lat="49.38131" lon="0.27115">
        <ele>75</ele>
        <time>2017-03-30T13:51:31Z</time>
      </trkpt>
      <trkpt lat="49.38131" lon="0.27115">
        <ele>75</ele>
        <time>2017-03-30T13:51:34Z</time>
      </trkpt>
      <trkpt lat="49.38131" lon="0.27115">
        <ele>75</ele>
        <time>2017-03-30T13:51:37Z</time>
      </trkpt>
      <trkpt lat="49.38131" lon="0.27115">
        <ele>75</ele>
        <time>2017-03-30T13:51:40Z</time>
      </trkpt>
      <trkpt lat="49.38131" lon="0.27115">
        <ele>75</ele>
        <time>2017-03-30T13:51:44Z</time>
      </trkpt>
      <trkpt lat="49.38131" lon="0.27115">
        <ele>75</ele>
        <time>2017-03-30T13:51:47Z</time>
      </trkpt>
      <trkpt lat="49.38131" lon="0.27115">
        <ele>75</ele>
        <time>2017-03-30T13:51:49Z</time>
      </trkpt>
      <trkpt lat="49.38131" lon="0.27115">
        <ele>75</ele>
        <time>2017-03-30T13:51:52Z</time>
      </trkpt>
      <trkpt lat="49.38131" lon="0.27115">
        <ele>75</ele>
        <time>2017-03-30T13:51:55Z</time>
      </trkpt>
      <trkpt lat="49.38131" lon="0.27115">
        <ele>75</ele>
        <time>2017-03-30T13:51:58Z</time>
      </trkpt>
      <trkpt lat="49.38131" lon="0.27115">
        <ele>75</ele>
        <time>2017-03-30T13:52:01Z</time>
      </trkpt>
      <trkpt lat="49.38131" lon="0.27115">
        <ele>75</ele>
        <time>2017-03-30T13:52:04Z</time>
      </trkpt>
      <trkpt lat="49.38131" lon="0.27115">
        <ele>75</ele>
        <time>2017-03-30T13:52:07Z</time>
      </trkpt>
      <trkpt lat="49.38131" lon="0.27115">
        <ele>75</ele>
        <time>2017-03-30T13:52:11Z</time>
      </trkpt>
      <trkpt lat="49.38131" lon="0.27115">
        <ele>75</ele>
        <time>2017-03-30T13:52:13Z</time>
      </trkpt>
      <trkpt lat="49.38131" lon="0.27115">
        <ele>75</ele>
        <time>2017-03-30T13:52:16Z</time>
      </trkpt>
      <trkpt lat="49.38131" lon="0.27115">
        <ele>75</ele>
        <time>2017-03-30T13:52:19Z</time>
      </trkpt>
      <trkpt lat="49.38131" lon="0.27116">
        <ele>75</ele>
        <time>2017-03-30T13:52:22Z</time>
      </trkpt>
      <trkpt lat="49.38131" lon="0.27116">
        <ele>75</ele>
        <time>2017-03-30T13:52:25Z</time>
      </trkpt>
      <trkpt lat="49.38131" lon="0.27116">
        <ele>75</ele>
        <time>2017-03-30T13:52:29Z</time>
      </trkpt>
      <trkpt lat="49.38131" lon="0.27116">
        <ele>75</ele>
        <time>2017-03-30T13:52:31Z</time>
      </trkpt>
      <trkpt lat="49.38131" lon="0.27116">
        <ele>75</ele>
        <time>2017-03-30T13:52:34Z</time>
      </trkpt>
      <trkpt lat="49.38131" lon="0.27116">
        <ele>75</ele>
        <time>2017-03-30T13:52:37Z</time>
      </trkpt>
      <trkpt lat="49.38131" lon="0.27116">
        <ele>75</ele>
        <time>2017-03-30T13:52:40Z</time>
      </trkpt>
      <trkpt lat="49.38131" lon="0.27116">
        <ele>75</ele>
        <time>2017-03-30T13:52:45Z</time>
      </trkpt>
      <trkpt lat="49.38131" lon="0.27116">
        <ele>75</ele>
        <time>2017-03-30T13:52:48Z</time>
      </trkpt>
      <trkpt lat="49.38131" lon="0.27116">
        <ele>75</ele>
        <time>2017-03-30T13:52:49Z</time>
      </trkpt>
      <trkpt lat="49.3813" lon="0.27118">
        <ele>75</ele>
        <time>2017-03-30T13:52:52Z</time>
      </trkpt>
      <trkpt lat="49.3813" lon="0.27121">
        <ele>74</ele>
        <time>2017-03-30T13:52:58Z</time>
      </trkpt>
      <trkpt lat="49.38129" lon="0.27122">
        <ele>75</ele>
        <time>2017-03-30T13:53:06Z</time>
      </trkpt>
      <trkpt lat="49.38129" lon="0.27122">
        <ele>75</ele>
        <time>2017-03-30T13:53:08Z</time>
      </trkpt>
      <trkpt lat="49.38129" lon="0.27122">
        <ele>75</ele>
        <time>2017-03-30T13:53:10Z</time>
      </trkpt>
      <trkpt lat="49.38129" lon="0.27122">
        <ele>75</ele>
        <time>2017-03-30T13:53:13Z</time>
      </trkpt>
      <trkpt lat="49.38129" lon="0.27122">
        <ele>76</ele>
        <time>2017-03-30T13:53:16Z</time>
      </trkpt>
      <trkpt lat="49.38129" lon="0.27122">
        <ele>76</ele>
        <time>2017-03-30T13:53:20Z</time>
      </trkpt>
      <trkpt lat="49.38129" lon="0.27122">
        <ele>76</ele>
        <time>2017-03-30T13:53:22Z</time>
      </trkpt>
      <trkpt lat="49.38129" lon="0.27122">
        <ele>76</ele>
        <time>2017-03-30T13:53:25Z</time>
      </trkpt>
      <trkpt lat="49.38129" lon="0.27122">
        <ele>76</ele>
        <time>2017-03-30T13:53:28Z</time>
      </trkpt>
      <trkpt lat="49.38129" lon="0.27122">
        <ele>76</ele>
        <time>2017-03-30T13:53:31Z</time>
      </trkpt>
      <trkpt lat="49.38129" lon="0.27122">
        <ele>76</ele>
        <time>2017-03-30T13:53:34Z</time>
      </trkpt>
      <trkpt lat="49.38129" lon="0.27122">
        <ele>75</ele>
        <time>2017-03-30T13:53:39Z</time>
      </trkpt>
      <trkpt lat="49.38129" lon="0.27122">
        <ele>75</ele>
        <time>2017-03-30T13:53:40Z</time>
      </trkpt>
      <trkpt lat="49.38129" lon="0.27122">
        <ele>75</ele>
        <time>2017-03-30T13:53:43Z</time>
      </trkpt>
      <trkpt lat="49.38129" lon="0.27122">
        <ele>75</ele>
        <time>2017-03-30T13:53:48Z</time>
      </trkpt>
      <trkpt lat="49.38129" lon="0.27122">
        <ele>75</ele>
        <time>2017-03-30T13:53:49Z</time>
      </trkpt>
      <trkpt lat="49.38129" lon="0.27122">
        <ele>75</ele>
        <time>2017-03-30T13:53:54Z</time>
      </trkpt>
      <trkpt lat="49.38129" lon="0.27122">
        <ele>75</ele>
        <time>2017-03-30T13:53:55Z</time>
      </trkpt>
      <trkpt lat="49.38129" lon="0.27122">
        <ele>75</ele>
        <time>2017-03-30T13:53:58Z</time>
      </trkpt>
      <trkpt lat="49.38129" lon="0.27122">
        <ele>75</ele>
        <time>2017-03-30T13:54:01Z</time>
      </trkpt>
      <trkpt lat="49.3813" lon="0.27119">
        <ele>83</ele>
        <time>2017-03-30T13:54:08Z</time>
      </trkpt>
      <trkpt lat="49.38131" lon="0.27119">
        <ele>81</ele>
        <time>2017-03-30T13:54:10Z</time>
      </trkpt>
      <trkpt lat="49.38131" lon="0.2712">
        <ele>82</ele>
        <time>2017-03-30T13:54:16Z</time>
      </trkpt>
      <trkpt lat="49.38131" lon="0.2712">
        <ele>82</ele>
        <time>2017-03-30T13:54:20Z</time>
      </trkpt>
      <trkpt lat="49.38131" lon="0.2712">
        <ele>82</ele>
        <time>2017-03-30T13:54:22Z</time>
      </trkpt>
      <trkpt lat="49.38132" lon="0.2712">
        <ele>83</ele>
        <time>2017-03-30T13:54:27Z</time>
      </trkpt>
      <trkpt lat="49.38133" lon="0.2712">
        <ele>82</ele>
        <time>2017-03-30T13:54:30Z</time>
      </trkpt>
      <trkpt lat="49.38132" lon="0.2712">
        <ele>82</ele>
        <time>2017-03-30T13:54:36Z</time>
      </trkpt>
      <trkpt lat="49.38131" lon="0.2712">
        <ele>81</ele>
        <time>2017-03-30T13:54:40Z</time>
      </trkpt>
      <trkpt lat="49.38131" lon="0.2712">
        <ele>81</ele>
        <time>2017-03-30T13:54:43Z</time>
      </trkpt>
      <trkpt lat="49.38131" lon="0.27119">
        <ele>80</ele>
        <time>2017-03-30T13:54:46Z</time>
      </trkpt>
      <trkpt lat="49.38131" lon="0.27118">
        <ele>81</ele>
        <time>2017-03-30T13:54:49Z</time>
      </trkpt>
      <trkpt lat="49.38131" lon="0.27118">
        <ele>80</ele>
        <time>2017-03-30T13:54:52Z</time>
      </trkpt>
      <trkpt lat="49.38134" lon="0.27116">
        <ele>80</ele>
        <time>2017-03-30T13:54:55Z</time>
      </trkpt>
      <trkpt lat="49.38141" lon="0.27111">
        <ele>79</ele>
        <time>2017-03-30T13:55:01Z</time>
      </trkpt>
      <trkpt lat="49.3815" lon="0.27099">
        <ele>81</ele>
        <time>2017-03-30T13:55:07Z</time>
      </trkpt>
      <trkpt lat="49.38156" lon="0.27084">
        <ele>78</ele>
        <time>2017-03-30T13:55:14Z</time>
      </trkpt>
      <trkpt lat="49.38159" lon="0.27076">
        <ele>81</ele>
        <time>2017-03-30T13:55:19Z</time>
      </trkpt>
      <trkpt lat="49.3816" lon="0.27061">
        <ele>75</ele>
        <time>2017-03-30T13:55:28Z</time>
      </trkpt>
      <trkpt lat="49.38156" lon="0.27046">
        <ele>69</ele>
        <time>2017-03-30T13:55:36Z</time>
      </trkpt>
      <trkpt lat="49.38155" lon="0.27045">
        <ele>68</ele>
        <time>2017-03-30T13:55:37Z</time>
      </trkpt>
      <trkpt lat="49.38157" lon="0.27038">
        <ele>67</ele>
        <time>2017-03-30T13:55:43Z</time>
      </trkpt>
      <trkpt lat="49.38157" lon="0.27025">
        <ele>64</ele>
        <time>2017-03-30T13:55:49Z</time>
      </trkpt>
      <trkpt lat="49.3816" lon="0.27018">
        <ele>65</ele>
        <time>2017-03-30T13:55:55Z</time>
      </trkpt>
      <trkpt lat="49.38161" lon="0.27012">
        <ele>65</ele>
        <time>2017-03-30T13:56:01Z</time>
      </trkpt>
      <trkpt lat="49.38164" lon="0.27005">
        <ele>63</ele>
        <time>2017-03-30T13:56:07Z</time>
      </trkpt>
      <trkpt lat="49.38174" lon="0.26997">
        <ele>65</ele>
        <time>2017-03-30T13:56:14Z</time>
      </trkpt>
      <trkpt lat="49.38185" lon="0.26989">
        <ele>67</ele>
        <time>2017-03-30T13:56:21Z</time>
      </trkpt>
      <trkpt lat="49.3819" lon="0.26986">
        <ele>64</ele>
        <time>2017-03-30T13:56:25Z</time>
      </trkpt>
      <trkpt lat="49.38194" lon="0.26983">
        <ele>62</ele>
        <time>2017-03-30T13:56:31Z</time>
      </trkpt>
      <trkpt lat="49.38199" lon="0.26982">
        <ele>60</ele>
        <time>2017-03-30T13:56:37Z</time>
      </trkpt>
      <trkpt lat="49.38202" lon="0.26979">
        <ele>57</ele>
        <time>2017-03-30T13:56:44Z</time>
      </trkpt>
      <trkpt lat="49.38201" lon="0.26977">
        <ele>56</ele>
        <time>2017-03-30T13:56:49Z</time>
      </trkpt>
      <trkpt lat="49.38202" lon="0.26973">
        <ele>57</ele>
        <time>2017-03-30T13:56:52Z</time>
      </trkpt>
      <trkpt lat="49.38213" lon="0.26955">
        <ele>58</ele>
        <time>2017-03-30T13:57:01Z</time>
      </trkpt>
      <trkpt lat="49.38214" lon="0.26948">
        <ele>56</ele>
        <time>2017-03-30T13:57:08Z</time>
      </trkpt>
      <trkpt lat="49.38215" lon="0.26948">
        <ele>56</ele>
        <time>2017-03-30T13:57:10Z</time>
      </trkpt>
      <trkpt lat="49.38217" lon="0.26943">
        <ele>53</ele>
        <time>2017-03-30T13:57:16Z</time>
      </trkpt>
      <trkpt lat="49.38218" lon="0.26941">
        <ele>54</ele>
        <time>2017-03-30T13:57:22Z</time>
      </trkpt>
      <trkpt lat="49.38217" lon="0.26941">
        <ele>53</ele>
        <time>2017-03-30T13:57:25Z</time>
      </trkpt>
      <trkpt lat="49.38215" lon="0.26941">
        <ele>54</ele>
        <time>2017-03-30T13:57:29Z</time>
      </trkpt>
      <trkpt lat="49.38218" lon="0.26937">
        <ele>59</ele>
        <time>2017-03-30T13:57:36Z</time>
      </trkpt>
      <trkpt lat="49.38219" lon="0.26937">
        <ele>61</ele>
        <time>2017-03-30T13:57:40Z</time>
      </trkpt>
      <trkpt lat="49.38217" lon="0.26933">
        <ele>63</ele>
        <time>2017-03-30T13:57:44Z</time>
      </trkpt>
      <trkpt lat="49.38216" lon="0.26927">
        <ele>64</ele>
        <time>2017-03-30T13:57:49Z</time>
      </trkpt>
      <trkpt lat="49.38217" lon="0.26918">
        <ele>68</ele>
        <time>2017-03-30T13:57:55Z</time>
      </trkpt>
      <trkpt lat="49.38205" lon="0.26912">
        <ele>60</ele>
        <time>2017-03-30T13:58:02Z</time>
      </trkpt>
      <trkpt lat="49.38198" lon="0.26909">
        <ele>57</ele>
        <time>2017-03-30T13:58:07Z</time>
      </trkpt>
      <trkpt lat="49.38193" lon="0.26904">
        <ele>54</ele>
        <time>2017-03-30T13:58:14Z</time>
      </trkpt>
      <trkpt lat="49.38185" lon="0.26895">
        <ele>53</ele>
        <time>2017-03-30T13:58:22Z</time>
      </trkpt>
      <trkpt lat="49.38184" lon="0.26891">
        <ele>55</ele>
        <time>2017-03-30T13:58:25Z</time>
      </trkpt>
      <trkpt lat="49.38178" lon="0.26882">
        <ele>65</ele>
        <time>2017-03-30T13:58:35Z</time>
      </trkpt>
      <trkpt lat="49.38175" lon="0.2688">
        <ele>67</ele>
        <time>2017-03-30T13:58:38Z</time>
      </trkpt>
      <trkpt lat="49.38174" lon="0.26872">
        <ele>68</ele>
        <time>2017-03-30T13:58:43Z</time>
      </trkpt>
      <trkpt lat="49.38169" lon="0.26865">
        <ele>65</ele>
        <time>2017-03-30T13:58:49Z</time>
      </trkpt>
      <trkpt lat="49.38159" lon="0.26851">
        <ele>62</ele>
        <time>2017-03-30T13:58:59Z</time>
      </trkpt>
      <trkpt lat="49.38155" lon="0.26847">
        <ele>62</ele>
        <time>2017-03-30T13:59:05Z</time>
      </trkpt>
      <trkpt lat="49.38153" lon="0.26844">
        <ele>64</ele>
        <time>2017-03-30T13:59:07Z</time>
      </trkpt>
      <trkpt lat="49.38146" lon="0.26837">
        <ele>67</ele>
        <time>2017-03-30T13:59:13Z</time>
      </trkpt>
      <trkpt lat="49.3814" lon="0.26833">
        <ele>67</ele>
        <time>2017-03-30T13:59:19Z</time>
      </trkpt>
      <trkpt lat="49.38136" lon="0.26826">
        <ele>72</ele>
        <time>2017-03-30T13:59:25Z</time>
      </trkpt>
      <trkpt lat="49.38125" lon="0.26821">
        <ele>69</ele>
        <time>2017-03-30T13:59:34Z</time>
      </trkpt>
      <trkpt lat="49.38118" lon="0.26818">
        <ele>69</ele>
        <time>2017-03-30T13:59:38Z</time>
      </trkpt>
      <trkpt lat="49.38113" lon="0.26816">
        <ele>71</ele>
        <time>2017-03-30T13:59:44Z</time>
      </trkpt>
      <trkpt lat="49.38106" lon="0.26812">
        <ele>72</ele>
        <time>2017-03-30T13:59:49Z</time>
      </trkpt>
      <trkpt lat="49.38098" lon="0.26809">
        <ele>74</ele>
        <time>2017-03-30T13:59:58Z</time>
      </trkpt>
      <trkpt lat="49.38094" lon="0.26809">
        <ele>71</ele>
        <time>2017-03-30T14:00:01Z</time>
      </trkpt>
      <trkpt lat="49.38083" lon="0.26811">
        <ele>67</ele>
        <time>2017-03-30T14:00:07Z</time>
      </trkpt>
      <trkpt lat="49.38079" lon="0.26813">
        <ele>68</ele>
        <time>2017-03-30T14:00:13Z</time>
      </trkpt>
      <trkpt lat="49.38061" lon="0.26811">
        <ele>66</ele>
        <time>2017-03-30T14:00:23Z</time>
      </trkpt>
      <trkpt lat="49.38057" lon="0.26815">
        <ele>65</ele>
        <time>2017-03-30T14:00:29Z</time>
      </trkpt>
      <trkpt lat="49.38056" lon="0.26814">
        <ele>67</ele>
        <time>2017-03-30T14:00:31Z</time>
      </trkpt>
      <trkpt lat="49.38045" lon="0.26808">
        <ele>65</ele>
        <time>2017-03-30T14:00:41Z</time>
      </trkpt>
      <trkpt lat="49.38045" lon="0.26808">
        <ele>69</ele>
        <time>2017-03-30T14:00:44Z</time>
      </trkpt>
      <trkpt lat="49.38046" lon="0.26806">
        <ele>74</ele>
        <time>2017-03-30T14:00:46Z</time>
      </trkpt>
      <trkpt lat="49.38043" lon="0.268">
        <ele>82</ele>
        <time>2017-03-30T14:00:52Z</time>
      </trkpt>
      <trkpt lat="49.38042" lon="0.26793">
        <ele>87</ele>
        <time>2017-03-30T14:00:59Z</time>
      </trkpt>
      <trkpt lat="49.38042" lon="0.26787">
        <ele>90</ele>
        <time>2017-03-30T14:01:04Z</time>
      </trkpt>
      <trkpt lat="49.38026" lon="0.26784">
        <ele>75</ele>
        <time>2017-03-30T14:01:10Z</time>
      </trkpt>
      <trkpt lat="49.38021" lon="0.26777">
        <ele>76</ele>
        <time>2017-03-30T14:01:16Z</time>
      </trkpt>
      <trkpt lat="49.38002" lon="0.2677">
        <ele>67</ele>
        <time>2017-03-30T14:01:27Z</time>
      </trkpt>
      <trkpt lat="49.38001" lon="0.26768">
        <ele>67</ele>
        <time>2017-03-30T14:01:28Z</time>
      </trkpt>
      <trkpt lat="49.37995" lon="0.26765">
        <ele>65</ele>
        <time>2017-03-30T14:01:34Z</time>
      </trkpt>
      <trkpt lat="49.3799" lon="0.26759">
        <ele>63</ele>
        <time>2017-03-30T14:01:40Z</time>
      </trkpt>
      <trkpt lat="49.37981" lon="0.2675">
        <ele>61</ele>
        <time>2017-03-30T14:01:48Z</time>
      </trkpt>
      <trkpt lat="49.37979" lon="0.26743">
        <ele>63</ele>
        <time>2017-03-30T14:01:52Z</time>
      </trkpt>
      <trkpt lat="49.37976" lon="0.26735">
        <ele>65</ele>
        <time>2017-03-30T14:02:00Z</time>
      </trkpt>
      <trkpt lat="49.37968" lon="0.26731">
        <ele>67</ele>
        <time>2017-03-30T14:02:06Z</time>
      </trkpt>
      <trkpt lat="49.37958" lon="0.26724">
        <ele>62</ele>
        <time>2017-03-30T14:02:14Z</time>
      </trkpt>
      <trkpt lat="49.37959" lon="0.26717">
        <ele>62</ele>
        <time>2017-03-30T14:02:19Z</time>
      </trkpt>
      <trkpt lat="49.37961" lon="0.26711">
        <ele>69</ele>
        <time>2017-03-30T14:02:23Z</time>
      </trkpt>
      <trkpt lat="49.37956" lon="0.26708">
        <ele>73</ele>
        <time>2017-03-30T14:02:31Z</time>
      </trkpt>
      <trkpt lat="49.3795" lon="0.26702">
        <ele>67</ele>
        <time>2017-03-30T14:02:35Z</time>
      </trkpt>
      <trkpt lat="49.37944" lon="0.26693">
        <ele>63</ele>
        <time>2017-03-30T14:02:40Z</time>
      </trkpt>
      <trkpt lat="49.37937" lon="0.26681">
        <ele>63</ele>
        <time>2017-03-30T14:02:48Z</time>
      </trkpt>
      <trkpt lat="49.37935" lon="0.26667">
        <ele>69</ele>
        <time>2017-03-30T14:02:56Z</time>
      </trkpt>
      <trkpt lat="49.37937" lon="0.26662">
        <ele>73</ele>
        <time>2017-03-30T14:02:59Z</time>
      </trkpt>
      <trkpt lat="49.3793" lon="0.26648">
        <ele>74</ele>
        <time>2017-03-30T14:03:07Z</time>
      </trkpt>
      <trkpt lat="49.37926" lon="0.26645">
        <ele>69</ele>
        <time>2017-03-30T14:03:10Z</time>
      </trkpt>
      <trkpt lat="49.37923" lon="0.26625">
        <ele>71</ele>
        <time>2017-03-30T14:03:21Z</time>
      </trkpt>
      <trkpt lat="49.37922" lon="0.26622">
        <ele>72</ele>
        <time>2017-03-30T14:03:23Z</time>
      </trkpt>
      <trkpt lat="49.37918" lon="0.26615">
        <ele>70</ele>
        <time>2017-03-30T14:03:28Z</time>
      </trkpt>
      <trkpt lat="49.3791" lon="0.2661">
        <ele>69</ele>
        <time>2017-03-30T14:03:34Z</time>
      </trkpt>
      <trkpt lat="49.37901" lon="0.26602">
        <ele>64</ele>
        <time>2017-03-30T14:03:40Z</time>
      </trkpt>
      <trkpt lat="49.37896" lon="0.26594">
        <ele>64</ele>
        <time>2017-03-30T14:03:46Z</time>
      </trkpt>
      <trkpt lat="49.37893" lon="0.26582">
        <ele>68</ele>
        <time>2017-03-30T14:03:54Z</time>
      </trkpt>
      <trkpt lat="49.37877" lon="0.2657">
        <ele>57</ele>
        <time>2017-03-30T14:04:02Z</time>
      </trkpt>
      <trkpt lat="49.37876" lon="0.26568">
        <ele>59</ele>
        <time>2017-03-30T14:04:05Z</time>
      </trkpt>
      <trkpt lat="49.37876" lon="0.26562">
        <ele>61</ele>
        <time>2017-03-30T14:04:10Z</time>
      </trkpt>
      <trkpt lat="49.37873" lon="0.26559">
        <ele>56</ele>
        <time>2017-03-30T14:04:16Z</time>
      </trkpt>
      <trkpt lat="49.37866" lon="0.26562">
        <ele>52</ele>
        <time>2017-03-30T14:04:22Z</time>
      </trkpt>
      <trkpt lat="49.37868" lon="0.26553">
        <ele>56</ele>
        <time>2017-03-30T14:04:29Z</time>
      </trkpt>
      <trkpt lat="49.37871" lon="0.26546">
        <ele>55</ele>
        <time>2017-03-30T14:04:34Z</time>
      </trkpt>
      <trkpt lat="49.37883" lon="0.26533">
        <ele>55</ele>
        <time>2017-03-30T14:04:43Z</time>
      </trkpt>
      <trkpt lat="49.37886" lon="0.26532">
        <ele>56</ele>
        <time>2017-03-30T14:04:46Z</time>
      </trkpt>
      <trkpt lat="49.37897" lon="0.26517">
        <ele>58</ele>
        <time>2017-03-30T14:04:55Z</time>
      </trkpt>
      <trkpt lat="49.37903" lon="0.26509">
        <ele>57</ele>
        <time>2017-03-30T14:05:02Z</time>
      </trkpt>
      <trkpt lat="49.37906" lon="0.26512">
        <ele>53</ele>
        <time>2017-03-30T14:05:06Z</time>
      </trkpt>
      <trkpt lat="49.37909" lon="0.26516">
        <ele>49</ele>
        <time>2017-03-30T14:05:14Z</time>
      </trkpt>
      <trkpt lat="49.37912" lon="0.26522">
        <ele>46</ele>
        <time>2017-03-30T14:05:21Z</time>
      </trkpt>
      <trkpt lat="49.37915" lon="0.26525">
        <ele>48</ele>
        <time>2017-03-30T14:05:25Z</time>
      </trkpt>
      <trkpt lat="49.37915" lon="0.26527">
        <ele>53</ele>
        <time>2017-03-30T14:05:28Z</time>
      </trkpt>
      <trkpt lat="49.37919" lon="0.26534">
        <ele>49</ele>
        <time>2017-03-30T14:05:34Z</time>
      </trkpt>
      <trkpt lat="49.37924" lon="0.2655">
        <ele>49</ele>
        <time>2017-03-30T14:05:44Z</time>
      </trkpt>
      <trkpt lat="49.37923" lon="0.26554">
        <ele>48</ele>
        <time>2017-03-30T14:05:46Z</time>
      </trkpt>
      <trkpt lat="49.37927" lon="0.26558">
        <ele>51</ele>
        <time>2017-03-30T14:05:52Z</time>
      </trkpt>
      <trkpt lat="49.37933" lon="0.26566">
        <ele>48</ele>
        <time>2017-03-30T14:05:58Z</time>
      </trkpt>
      <trkpt lat="49.37936" lon="0.26566">
        <ele>51</ele>
        <time>2017-03-30T14:06:04Z</time>
      </trkpt>
      <trkpt lat="49.37948" lon="0.26564">
        <ele>49</ele>
        <time>2017-03-30T14:06:12Z</time>
      </trkpt>
      <trkpt lat="49.3796" lon="0.26558">
        <ele>48</ele>
        <time>2017-03-30T14:06:20Z</time>
      </trkpt>
      <trkpt lat="49.37962" lon="0.26556">
        <ele>48</ele>
        <time>2017-03-30T14:06:22Z</time>
      </trkpt>
      <trkpt lat="49.3797" lon="0.26547">
        <ele>46</ele>
        <time>2017-03-30T14:06:31Z</time>
      </trkpt>
      <trkpt lat="49.37975" lon="0.26543">
        <ele>48</ele>
        <time>2017-03-30T14:06:34Z</time>
      </trkpt>
      <trkpt lat="49.37981" lon="0.26539">
        <ele>50</ele>
        <time>2017-03-30T14:06:40Z</time>
      </trkpt>
      <trkpt lat="49.37987" lon="0.26533">
        <ele>47</ele>
        <time>2017-03-30T14:06:49Z</time>
      </trkpt>
      <trkpt lat="49.3799" lon="0.26531">
        <ele>46</ele>
        <time>2017-03-30T14:06:52Z</time>
      </trkpt>
      <trkpt lat="49.37996" lon="0.26524">
        <ele>47</ele>
        <time>2017-03-30T14:06:59Z</time>
      </trkpt>
      <trkpt lat="49.38" lon="0.26517">
        <ele>44</ele>
        <time>2017-03-30T14:07:04Z</time>
      </trkpt>
      <trkpt lat="49.38003" lon="0.26516">
        <ele>43</ele>
        <time>2017-03-30T14:07:12Z</time>
      </trkpt>
      <trkpt lat="49.38007" lon="0.2651">
        <ele>40</ele>
        <time>2017-03-30T14:07:16Z</time>
      </trkpt>
      <trkpt lat="49.38009" lon="0.26501">
        <ele>37</ele>
        <time>2017-03-30T14:07:22Z</time>
      </trkpt>
      <trkpt lat="49.3801" lon="0.26492">
        <ele>39</ele>
        <time>2017-03-30T14:07:28Z</time>
      </trkpt>
      <trkpt lat="49.38009" lon="0.26486">
        <ele>43</ele>
        <time>2017-03-30T14:07:34Z</time>
      </trkpt>
      <trkpt lat="49.38007" lon="0.26475">
        <ele>40</ele>
        <time>2017-03-30T14:07:40Z</time>
      </trkpt>
      <trkpt lat="49.38007" lon="0.26473">
        <ele>41</ele>
        <time>2017-03-30T14:07:46Z</time>
      </trkpt>
      <trkpt lat="49.38007" lon="0.26469">
        <ele>40</ele>
        <time>2017-03-30T14:07:51Z</time>
      </trkpt>
      <trkpt lat="49.38007" lon="0.26468">
        <ele>40</ele>
        <time>2017-03-30T14:07:55Z</time>
      </trkpt>
      <trkpt lat="49.38008" lon="0.26466">
        <ele>40</ele>
        <time>2017-03-30T14:07:58Z</time>
      </trkpt>
      <trkpt lat="49.38009" lon="0.26467">
        <ele>39</ele>
        <time>2017-03-30T14:08:02Z</time>
      </trkpt>
      <trkpt lat="49.38011" lon="0.26463">
        <ele>40</ele>
        <time>2017-03-30T14:08:06Z</time>
      </trkpt>
      <trkpt lat="49.38014" lon="0.26459">
        <ele>40</ele>
        <time>2017-03-30T14:08:11Z</time>
      </trkpt>
      <trkpt lat="49.38017" lon="0.26452">
        <ele>41</ele>
        <time>2017-03-30T14:08:17Z</time>
      </trkpt>
      <trkpt lat="49.38019" lon="0.26445">
        <ele>45</ele>
        <time>2017-03-30T14:08:22Z</time>
      </trkpt>
      <trkpt lat="49.38025" lon="0.2644">
        <ele>44</ele>
        <time>2017-03-30T14:08:29Z</time>
      </trkpt>
      <trkpt lat="49.38032" lon="0.26437">
        <ele>39</ele>
        <time>2017-03-30T14:08:39Z</time>
      </trkpt>
      <trkpt lat="49.38032" lon="0.26439">
        <ele>38</ele>
        <time>2017-03-30T14:08:40Z</time>
      </trkpt>
      <trkpt lat="49.38037" lon="0.26443">
        <ele>40</ele>
        <time>2017-03-30T14:08:46Z</time>
      </trkpt>
      <trkpt lat="49.38042" lon="0.26441">
        <ele>45</ele>
        <time>2017-03-30T14:08:52Z</time>
      </trkpt>
      <trkpt lat="49.38056" lon="0.26452">
        <ele>40</ele>
        <time>2017-03-30T14:09:02Z</time>
      </trkpt>
      <trkpt lat="49.38059" lon="0.26453">
        <ele>41</ele>
        <time>2017-03-30T14:09:05Z</time>
      </trkpt>
      <trkpt lat="49.38061" lon="0.26456">
        <ele>44</ele>
        <time>2017-03-30T14:09:10Z</time>
      </trkpt>
      <trkpt lat="49.38067" lon="0.26456">
        <ele>46</ele>
        <time>2017-03-30T14:09:16Z</time>
      </trkpt>
      <trkpt lat="49.38076" lon="0.2646">
        <ele>46</ele>
        <time>2017-03-30T14:09:25Z</time>
      </trkpt>
      <trkpt lat="49.38081" lon="0.26461">
        <ele>46</ele>
        <time>2017-03-30T14:09:30Z</time>
      </trkpt>
      <trkpt lat="49.38087" lon="0.26463">
        <ele>45</ele>
        <time>2017-03-30T14:09:34Z</time>
      </trkpt>
      <trkpt lat="49.38089" lon="0.26462">
        <ele>46</ele>
        <time>2017-03-30T14:09:40Z</time>
      </trkpt>
      <trkpt lat="49.38094" lon="0.26465">
        <ele>43</ele>
        <time>2017-03-30T14:09:46Z</time>
      </trkpt>
      <trkpt lat="49.381" lon="0.26471">
        <ele>37</ele>
        <time>2017-03-30T14:09:50Z</time>
      </trkpt>
      <trkpt lat="49.38101" lon="0.26472">
        <ele>34</ele>
        <time>2017-03-30T14:09:55Z</time>
      </trkpt>
      <trkpt lat="49.38112" lon="0.2648">
        <ele>37</ele>
        <time>2017-03-30T14:10:03Z</time>
      </trkpt>
      <trkpt lat="49.38113" lon="0.26479">
        <ele>40</ele>
        <time>2017-03-30T14:10:05Z</time>
      </trkpt>
      <trkpt lat="49.38119" lon="0.26488">
        <ele>50</ele>
        <time>2017-03-30T14:10:13Z</time>
      </trkpt>
      <trkpt lat="49.38125" lon="0.26485">
        <ele>53</ele>
        <time>2017-03-30T14:10:19Z</time>
      </trkpt>
      <trkpt lat="49.38125" lon="0.26483">
        <ele>60</ele>
        <time>2017-03-30T14:10:24Z</time>
      </trkpt>
      <trkpt lat="49.38124" lon="0.26484">
        <ele>60</ele>
        <time>2017-03-30T14:10:25Z</time>
      </trkpt>
      <trkpt lat="49.38148" lon="0.26491">
        <ele>49</ele>
        <time>2017-03-30T14:10:36Z</time>
      </trkpt>
      <trkpt lat="49.38149" lon="0.26491">
        <ele>50</ele>
        <time>2017-03-30T14:10:37Z</time>
      </trkpt>
      <trkpt lat="49.3816" lon="0.26495">
        <ele>52</ele>
        <time>2017-03-30T14:10:48Z</time>
      </trkpt>
      <trkpt lat="49.38161" lon="0.26496">
        <ele>52</ele>
        <time>2017-03-30T14:10:49Z</time>
      </trkpt>
      <trkpt lat="49.38166" lon="0.265">
        <ele>54</ele>
        <time>2017-03-30T14:10:55Z</time>
      </trkpt>
      <trkpt lat="49.3817" lon="0.26503">
        <ele>60</ele>
        <time>2017-03-30T14:11:02Z</time>
      </trkpt>
      <trkpt lat="49.38179" lon="0.26506">
        <ele>56</ele>
        <time>2017-03-30T14:11:07Z</time>
      </trkpt>
      <trkpt lat="49.38186" lon="0.26509">
        <ele>56</ele>
        <time>2017-03-30T14:11:14Z</time>
      </trkpt>
      <trkpt lat="49.38187" lon="0.2651">
        <ele>57</ele>
        <time>2017-03-30T14:11:19Z</time>
      </trkpt>
      <trkpt lat="49.38187" lon="0.26515">
        <ele>58</ele>
        <time>2017-03-30T14:11:22Z</time>
      </trkpt>
      <trkpt lat="49.38197" lon="0.26518">
        <ele>57</ele>
        <time>2017-03-30T14:11:31Z</time>
      </trkpt>
      <trkpt lat="49.38201" lon="0.26521">
        <ele>55</ele>
        <time>2017-03-30T14:11:34Z</time>
      </trkpt>
      <trkpt lat="49.38209" lon="0.26522">
        <ele>58</ele>
        <time>2017-03-30T14:11:43Z</time>
      </trkpt>
      <trkpt lat="49.38224" lon="0.26528">
        <ele>55</ele>
        <time>2017-03-30T14:11:50Z</time>
      </trkpt>
      <trkpt lat="49.38226" lon="0.26531">
        <ele>55</ele>
        <time>2017-03-30T14:11:53Z</time>
      </trkpt>
      <trkpt lat="49.38229" lon="0.26531">
        <ele>57</ele>
        <time>2017-03-30T14:11:58Z</time>
      </trkpt>
      <trkpt lat="49.38232" lon="0.26531">
        <ele>54</ele>
        <time>2017-03-30T14:12:05Z</time>
      </trkpt>
      <trkpt lat="49.38241" lon="0.26533">
        <ele>50</ele>
        <time>2017-03-30T14:12:13Z</time>
      </trkpt>
      <trkpt lat="49.38242" lon="0.26532">
        <ele>51</ele>
        <time>2017-03-30T14:12:18Z</time>
      </trkpt>
      <trkpt lat="49.38242" lon="0.26532">
        <ele>51</ele>
        <time>2017-03-30T14:12:19Z</time>
      </trkpt>
      <trkpt lat="49.38246" lon="0.26534">
        <ele>49</ele>
        <time>2017-03-30T14:12:22Z</time>
      </trkpt>
      <trkpt lat="49.38251" lon="0.26536">
        <ele>52</ele>
        <time>2017-03-30T14:12:30Z</time>
      </trkpt>
      <trkpt lat="49.38258" lon="0.26537">
        <ele>47</ele>
        <time>2017-03-30T14:12:34Z</time>
      </trkpt>
      <trkpt lat="49.38267" lon="0.2654">
        <ele>47</ele>
        <time>2017-03-30T14:12:40Z</time>
      </trkpt>
      <trkpt lat="49.38268" lon="0.2654">
        <ele>55</ele>
        <time>2017-03-30T14:12:46Z</time>
      </trkpt>
      <trkpt lat="49.38272" lon="0.26547">
        <ele>56</ele>
        <time>2017-03-30T14:12:52Z</time>
      </trkpt>
      <trkpt lat="49.38272" lon="0.2655">
        <ele>62</ele>
        <time>2017-03-30T14:12:57Z</time>
      </trkpt>
      <trkpt lat="49.38282" lon="0.26558">
        <ele>61</ele>
        <time>2017-03-30T14:13:05Z</time>
      </trkpt>
      <trkpt lat="49.38283" lon="0.26561">
        <ele>61</ele>
        <time>2017-03-30T14:13:07Z</time>
      </trkpt>
      <trkpt lat="49.38289" lon="0.26567">
        <ele>61</ele>
        <time>2017-03-30T14:13:13Z</time>
      </trkpt>
      <trkpt lat="49.38291" lon="0.26565">
        <ele>67</ele>
        <time>2017-03-30T14:13:20Z</time>
      </trkpt>
      <trkpt lat="49.38291" lon="0.26566">
        <ele>69</ele>
        <time>2017-03-30T14:13:22Z</time>
      </trkpt>
      <trkpt lat="49.38298" lon="0.26572">
        <ele>67</ele>
        <time>2017-03-30T14:13:29Z</time>
      </trkpt>
      <trkpt lat="49.38309" lon="0.26574">
        <ele>64</ele>
        <time>2017-03-30T14:13:37Z</time>
      </trkpt>
      <trkpt lat="49.38313" lon="0.26582">
        <ele>69</ele>
        <time>2017-03-30T14:13:45Z</time>
      </trkpt>
      <trkpt lat="49.38314" lon="0.26583">
        <ele>69</ele>
        <time>2017-03-30T14:13:46Z</time>
      </trkpt>
      <trkpt lat="49.38321" lon="0.26587">
        <ele>67</ele>
        <time>2017-03-30T14:13:52Z</time>
      </trkpt>
      <trkpt lat="49.38333" lon="0.26579">
        <ele>63</ele>
        <time>2017-03-30T14:14:00Z</time>
      </trkpt>
      <trkpt lat="49.38337" lon="0.26582">
        <ele>65</ele>
        <time>2017-03-30T14:14:05Z</time>
      </trkpt>
      <trkpt lat="49.38343" lon="0.26586">
        <ele>66</ele>
        <time>2017-03-30T14:14:10Z</time>
      </trkpt>
      <trkpt lat="49.38356" lon="0.26586">
        <ele>66</ele>
        <time>2017-03-30T14:14:21Z</time>
      </trkpt>
      <trkpt lat="49.38356" lon="0.26585">
        <ele>67</ele>
        <time>2017-03-30T14:14:22Z</time>
      </trkpt>
      <trkpt lat="49.3837" lon="0.26591">
        <ele>64</ele>
        <time>2017-03-30T14:14:33Z</time>
      </trkpt>
      <trkpt lat="49.38375" lon="0.2659">
        <ele>64</ele>
        <time>2017-03-30T14:14:37Z</time>
      </trkpt>
      <trkpt lat="49.38379" lon="0.26592">
        <ele>63</ele>
        <time>2017-03-30T14:14:40Z</time>
      </trkpt>
      <trkpt lat="49.38385" lon="0.26584">
        <ele>61</ele>
        <time>2017-03-30T14:14:48Z</time>
      </trkpt>
      <trkpt lat="49.38391" lon="0.26583">
        <ele>60</ele>
        <time>2017-03-30T14:14:52Z</time>
      </trkpt>
      <trkpt lat="49.38395" lon="0.26586">
        <ele>62</ele>
        <time>2017-03-30T14:14:58Z</time>
      </trkpt>
      <trkpt lat="49.38399" lon="0.26587">
        <ele>61</ele>
        <time>2017-03-30T14:15:04Z</time>
      </trkpt>
      <trkpt lat="49.38402" lon="0.26586">
        <ele>62</ele>
        <time>2017-03-30T14:15:15Z</time>
      </trkpt>
      <trkpt lat="49.38403" lon="0.26587">
        <ele>60</ele>
        <time>2017-03-30T14:15:21Z</time>
      </trkpt>
      <trkpt lat="49.38403" lon="0.26587">
        <ele>60</ele>
        <time>2017-03-30T14:15:22Z</time>
      </trkpt>
      <trkpt lat="49.38403" lon="0.26587">
        <ele>60</ele>
        <time>2017-03-30T14:15:25Z</time>
      </trkpt>
      <trkpt lat="49.38403" lon="0.26587">
        <ele>60</ele>
        <time>2017-03-30T14:15:29Z</time>
      </trkpt>
      <trkpt lat="49.38404" lon="0.26584">
        <ele>59</ele>
        <time>2017-03-30T14:15:36Z</time>
      </trkpt>
      <trkpt lat="49.38404" lon="0.26584">
        <ele>59</ele>
        <time>2017-03-30T14:15:37Z</time>
      </trkpt>
      <trkpt lat="49.38405" lon="0.26585">
        <ele>59</ele>
        <time>2017-03-30T14:15:41Z</time>
      </trkpt>
      <trkpt lat="49.38407" lon="0.26588">
        <ele>59</ele>
        <time>2017-03-30T14:15:43Z</time>
      </trkpt>
      <trkpt lat="49.38409" lon="0.26604">
        <ele>65</ele>
        <time>2017-03-30T14:15:52Z</time>
      </trkpt>
      <trkpt lat="49.3841" lon="0.26608">
        <ele>68</ele>
        <time>2017-03-30T14:15:55Z</time>
      </trkpt>
      <trkpt lat="49.38419" lon="0.26607">
        <ele>66</ele>
        <time>2017-03-30T14:16:02Z</time>
      </trkpt>
      <trkpt lat="49.38421" lon="0.26605">
        <ele>63</ele>
        <time>2017-03-30T14:16:07Z</time>
      </trkpt>
      <trkpt lat="49.38422" lon="0.26605">
        <ele>62</ele>
        <time>2017-03-30T14:16:10Z</time>
      </trkpt>
      <trkpt lat="49.38428" lon="0.26591">
        <ele>57</ele>
        <time>2017-03-30T14:16:17Z</time>
      </trkpt>
      <trkpt lat="49.38429" lon="0.26584">
        <ele>56</ele>
        <time>2017-03-30T14:16:26Z</time>
      </trkpt>
      <trkpt lat="49.38431" lon="0.26582">
        <ele>57</ele>
        <time>2017-03-30T14:16:28Z</time>
      </trkpt>
      <trkpt lat="49.38434" lon="0.26575">
        <ele>65</ele>
        <time>2017-03-30T14:16:37Z</time>
      </trkpt>
      <trkpt lat="49.38435" lon="0.26575">
        <ele>67</ele>
        <time>2017-03-30T14:16:42Z</time>
      </trkpt>
      <trkpt lat="49.38435" lon="0.26575">
        <ele>68</ele>
        <time>2017-03-30T14:16:43Z</time>
      </trkpt>
      <trkpt lat="49.38435" lon="0.26573">
        <ele>72</ele>
        <time>2017-03-30T14:16:50Z</time>
      </trkpt>
      <trkpt lat="49.38436" lon="0.26564">
        <ele>73</ele>
        <time>2017-03-30T14:16:56Z</time>
      </trkpt>
      <trkpt lat="49.38436" lon="0.26563">
        <ele>73</ele>
        <time>2017-03-30T14:16:58Z</time>
      </trkpt>
      <trkpt lat="49.38431" lon="0.26561">
        <ele>72</ele>
        <time>2017-03-30T14:17:04Z</time>
      </trkpt>
      <trkpt lat="49.38429" lon="0.26557">
        <ele>69</ele>
        <time>2017-03-30T14:17:07Z</time>
      </trkpt>
      <trkpt lat="49.38426" lon="0.26548">
        <ele>65</ele>
        <time>2017-03-30T14:17:18Z</time>
      </trkpt>
      <trkpt lat="49.38426" lon="0.26548">
        <ele>65</ele>
        <time>2017-03-30T14:17:19Z</time>
      </trkpt>
      <trkpt lat="49.38423" lon="0.26544">
        <ele>73</ele>
        <time>2017-03-30T14:17:27Z</time>
      </trkpt>
      <trkpt lat="49.38423" lon="0.26544">
        <ele>74</ele>
        <time>2017-03-30T14:17:28Z</time>
      </trkpt>
      <trkpt lat="49.38418" lon="0.26542">
        <ele>72</ele>
        <time>2017-03-30T14:17:32Z</time>
      </trkpt>
      <trkpt lat="49.38415" lon="0.26528">
        <ele>73</ele>
        <time>2017-03-30T14:17:42Z</time>
      </trkpt>
      <trkpt lat="49.3841" lon="0.26529">
        <ele>71</ele>
        <time>2017-03-30T14:17:48Z</time>
      </trkpt>
      <trkpt lat="49.38409" lon="0.26529">
        <ele>70</ele>
        <time>2017-03-30T14:17:49Z</time>
      </trkpt>
      <trkpt lat="49.38405" lon="0.26524">
        <ele>70</ele>
        <time>2017-03-30T14:17:56Z</time>
      </trkpt>
      <trkpt lat="49.38402" lon="0.26515">
        <ele>80</ele>
        <time>2017-03-30T14:18:06Z</time>
      </trkpt>
      <trkpt lat="49.38402" lon="0.26516">
        <ele>79</ele>
        <time>2017-03-30T14:18:07Z</time>
      </trkpt>
      <trkpt lat="49.38399" lon="0.26512">
        <ele>81</ele>
        <time>2017-03-30T14:18:16Z</time>
      </trkpt>
      <trkpt lat="49.38396" lon="0.2651">
        <ele>80</ele>
        <time>2017-03-30T14:18:19Z</time>
      </trkpt>
      <trkpt lat="49.38386" lon="0.26506">
        <ele>74</ele>
        <time>2017-03-30T14:18:25Z</time>
      </trkpt>
      <trkpt lat="49.38378" lon="0.26493">
        <ele>74</ele>
        <time>2017-03-30T14:18:36Z</time>
      </trkpt>
      <trkpt lat="49.38374" lon="0.26485">
        <ele>71</ele>
        <time>2017-03-30T14:18:41Z</time>
      </trkpt>
      <trkpt lat="49.38374" lon="0.26484">
        <ele>74</ele>
        <time>2017-03-30T14:18:44Z</time>
      </trkpt>
      <trkpt lat="49.38373" lon="0.26482">
        <ele>72</ele>
        <time>2017-03-30T14:18:46Z</time>
      </trkpt>
      <trkpt lat="49.38367" lon="0.26484">
        <ele>78</ele>
        <time>2017-03-30T14:18:52Z</time>
      </trkpt>
      <trkpt lat="49.38364" lon="0.2648">
        <ele>81</ele>
        <time>2017-03-30T14:18:59Z</time>
      </trkpt>
      <trkpt lat="49.38359" lon="0.26465">
        <ele>76</ele>
        <time>2017-03-30T14:19:04Z</time>
      </trkpt>
      <trkpt lat="49.38354" lon="0.26457">
        <ele>78</ele>
        <time>2017-03-30T14:19:12Z</time>
      </trkpt>
      <trkpt lat="49.38353" lon="0.26456">
        <ele>83</ele>
        <time>2017-03-30T14:19:16Z</time>
      </trkpt>
      <trkpt lat="49.38353" lon="0.26457">
        <ele>85</ele>
        <time>2017-03-30T14:19:19Z</time>
      </trkpt>
      <trkpt lat="49.38351" lon="0.26455">
        <ele>83</ele>
        <time>2017-03-30T14:19:22Z</time>
      </trkpt>
      <trkpt lat="49.38351" lon="0.2645">
        <ele>86</ele>
        <time>2017-03-30T14:19:29Z</time>
      </trkpt>
      <trkpt lat="49.38347" lon="0.26447">
        <ele>86</ele>
        <time>2017-03-30T14:19:38Z</time>
      </trkpt>
      <trkpt lat="49.38343" lon="0.26443">
        <ele>87</ele>
        <time>2017-03-30T14:19:43Z</time>
      </trkpt>
      <trkpt lat="49.38342" lon="0.26438">
        <ele>86</ele>
        <time>2017-03-30T14:19:46Z</time>
      </trkpt>
      <trkpt lat="49.38342" lon="0.26433">
        <ele>89</ele>
        <time>2017-03-30T14:19:52Z</time>
      </trkpt>
      <trkpt lat="49.38339" lon="0.26423">
        <ele>89</ele>
        <time>2017-03-30T14:20:01Z</time>
      </trkpt>
      <trkpt lat="49.38339" lon="0.26423">
        <ele>90</ele>
        <time>2017-03-30T14:20:04Z</time>
      </trkpt>
      <trkpt lat="49.38339" lon="0.26419">
        <ele>88</ele>
        <time>2017-03-30T14:20:07Z</time>
      </trkpt>
      <trkpt lat="49.38334" lon="0.26412">
        <ele>86</ele>
        <time>2017-03-30T14:20:15Z</time>
      </trkpt>
      <trkpt lat="49.38332" lon="0.26409">
        <ele>88</ele>
        <time>2017-03-30T14:20:21Z</time>
      </trkpt>
      <trkpt lat="49.38331" lon="0.26407">
        <ele>94</ele>
        <time>2017-03-30T14:20:25Z</time>
      </trkpt>
      <trkpt lat="49.38327" lon="0.26396">
        <ele>90</ele>
        <time>2017-03-30T14:20:31Z</time>
      </trkpt>
      <trkpt lat="49.38321" lon="0.26382">
        <ele>91</ele>
        <time>2017-03-30T14:20:41Z</time>
      </trkpt>
      <trkpt lat="49.38321" lon="0.26381">
        <ele>90</ele>
        <time>2017-03-30T14:20:43Z</time>
      </trkpt>
      <trkpt lat="49.38321" lon="0.26379">
        <ele>91</ele>
        <time>2017-03-30T14:20:46Z</time>
      </trkpt>
      <trkpt lat="49.38321" lon="0.26374">
        <ele>88</ele>
        <time>2017-03-30T14:20:52Z</time>
      </trkpt>
      <trkpt lat="49.3832" lon="0.26359">
        <ele>88</ele>
        <time>2017-03-30T14:20:58Z</time>
      </trkpt>
      <trkpt lat="49.38317" lon="0.26354">
        <ele>91</ele>
        <time>2017-03-30T14:21:04Z</time>
      </trkpt>
      <trkpt lat="49.38314" lon="0.26346">
        <ele>95</ele>
        <time>2017-03-30T14:21:11Z</time>
      </trkpt>
      <trkpt lat="49.38314" lon="0.26342">
        <ele>99</ele>
        <time>2017-03-30T14:21:17Z</time>
      </trkpt>
      <trkpt lat="49.3831" lon="0.2634">
        <ele>103</ele>
        <time>2017-03-30T14:21:24Z</time>
      </trkpt>
      <trkpt lat="49.3831" lon="0.26339">
        <ele>105</ele>
        <time>2017-03-30T14:21:28Z</time>
      </trkpt>
      <trkpt lat="49.3831" lon="0.26338">
        <ele>108</ele>
        <time>2017-03-30T14:21:31Z</time>
      </trkpt>
      <trkpt lat="49.3831" lon="0.26334">
        <ele>111</ele>
        <time>2017-03-30T14:21:34Z</time>
      </trkpt>
      <trkpt lat="49.38306" lon="0.26324">
        <ele>107</ele>
        <time>2017-03-30T14:21:44Z</time>
      </trkpt>
      <trkpt lat="49.38308" lon="0.26317">
        <ele>104</ele>
        <time>2017-03-30T14:21:46Z</time>
      </trkpt>
      <trkpt lat="49.38304" lon="0.26311">
        <ele>105</ele>
        <time>2017-03-30T14:21:53Z</time>
      </trkpt>
      <trkpt lat="49.38299" lon="0.26297">
        <ele>109</ele>
        <time>2017-03-30T14:22:03Z</time>
      </trkpt>
      <trkpt lat="49.38298" lon="0.26293">
        <ele>112</ele>
        <time>2017-03-30T14:22:07Z</time>
      </trkpt>
      <trkpt lat="49.38296" lon="0.26285">
        <ele>112</ele>
        <time>2017-03-30T14:22:12Z</time>
      </trkpt>
      <trkpt lat="49.38294" lon="0.26275">
        <ele>113</ele>
        <time>2017-03-30T14:22:18Z</time>
      </trkpt>
      <trkpt lat="49.38293" lon="0.26266">
        <ele>113</ele>
        <time>2017-03-30T14:22:22Z</time>
      </trkpt>
      <trkpt lat="49.38295" lon="0.26244">
        <ele>114</ele>
        <time>2017-03-30T14:22:33Z</time>
      </trkpt>
      <trkpt lat="49.38293" lon="0.26242">
        <ele>116</ele>
        <time>2017-03-30T14:22:35Z</time>
      </trkpt>
      <trkpt lat="49.38292" lon="0.26236">
        <ele>116</ele>
        <time>2017-03-30T14:22:40Z</time>
      </trkpt>
      <trkpt lat="49.38289" lon="0.26226">
        <ele>117</ele>
        <time>2017-03-30T14:22:47Z</time>
      </trkpt>
      <trkpt lat="49.38287" lon="0.26222">
        <ele>119</ele>
        <time>2017-03-30T14:22:52Z</time>
      </trkpt>
      <trkpt lat="49.38286" lon="0.26216">
        <ele>121</ele>
        <time>2017-03-30T14:22:58Z</time>
      </trkpt>
      <trkpt lat="49.38284" lon="0.26206">
        <ele>123</ele>
        <time>2017-03-30T14:23:04Z</time>
      </trkpt>
      <trkpt lat="49.38285" lon="0.26196">
        <ele>123</ele>
        <time>2017-03-30T14:23:10Z</time>
      </trkpt>
      <trkpt lat="49.38281" lon="0.26179">
        <ele>119</ele>
        <time>2017-03-30T14:23:17Z</time>
      </trkpt>
      <trkpt lat="49.38275" lon="0.26176">
        <ele>118</ele>
        <time>2017-03-30T14:23:22Z</time>
      </trkpt>
      <trkpt lat="49.38277" lon="0.26163">
        <ele>114</ele>
        <time>2017-03-30T14:23:28Z</time>
      </trkpt>
      <trkpt lat="49.38272" lon="0.26151">
        <ele>112</ele>
        <time>2017-03-30T14:23:36Z</time>
      </trkpt>
      <trkpt lat="49.3827" lon="0.26139">
        <ele>111</ele>
        <time>2017-03-30T14:23:40Z</time>
      </trkpt>
      <trkpt lat="49.38268" lon="0.26124">
        <ele>116</ele>
        <time>2017-03-30T14:23:47Z</time>
      </trkpt>
      <trkpt lat="49.38265" lon="0.26114">
        <ele>115</ele>
        <time>2017-03-30T14:23:52Z</time>
      </trkpt>
      <trkpt lat="49.3826" lon="0.26109">
        <ele>116</ele>
        <time>2017-03-30T14:23:58Z</time>
      </trkpt>
      <trkpt lat="49.38254" lon="0.26096">
        <ele>117</ele>
        <time>2017-03-30T14:24:07Z</time>
      </trkpt>
      <trkpt lat="49.38249" lon="0.26083">
        <ele>117</ele>
        <time>2017-03-30T14:24:14Z</time>
      </trkpt>
      <trkpt lat="49.38247" lon="0.26079">
        <ele>117</ele>
        <time>2017-03-30T14:24:16Z</time>
      </trkpt>
      <trkpt lat="49.38242" lon="0.26067">
        <ele>116</ele>
        <time>2017-03-30T14:24:22Z</time>
      </trkpt>
      <trkpt lat="49.38236" lon="0.26051">
        <ele>114</ele>
        <time>2017-03-30T14:24:32Z</time>
      </trkpt>
      <trkpt lat="49.38233" lon="0.26045">
        <ele>115</ele>
        <time>2017-03-30T14:24:37Z</time>
      </trkpt>
      <trkpt lat="49.38231" lon="0.2604">
        <ele>115</ele>
        <time>2017-03-30T14:24:40Z</time>
      </trkpt>
      <trkpt lat="49.38228" lon="0.26032">
        <ele>115</ele>
        <time>2017-03-30T14:24:46Z</time>
      </trkpt>
      <trkpt lat="49.38224" lon="0.26025">
        <ele>116</ele>
        <time>2017-03-30T14:24:52Z</time>
      </trkpt>
      <trkpt lat="49.38217" lon="0.26019">
        <ele>114</ele>
        <time>2017-03-30T14:24:58Z</time>
      </trkpt>
      <trkpt lat="49.38212" lon="0.26013">
        <ele>117</ele>
        <time>2017-03-30T14:25:04Z</time>
      </trkpt>
      <trkpt lat="49.38206" lon="0.26008">
        <ele>119</ele>
        <time>2017-03-30T14:25:12Z</time>
      </trkpt>
      <trkpt lat="49.38203" lon="0.25999">
        <ele>118</ele>
        <time>2017-03-30T14:25:16Z</time>
      </trkpt>
      <trkpt lat="49.38196" lon="0.25987">
        <ele>114</ele>
        <time>2017-03-30T14:25:22Z</time>
      </trkpt>
      <trkpt lat="49.38191" lon="0.25981">
        <ele>113</ele>
        <time>2017-03-30T14:25:28Z</time>
      </trkpt>
      <trkpt lat="49.38186" lon="0.25978">
        <ele>116</ele>
        <time>2017-03-30T14:25:34Z</time>
      </trkpt>
      <trkpt lat="49.38181" lon="0.25975">
        <ele>118</ele>
        <time>2017-03-30T14:25:40Z</time>
      </trkpt>
      <trkpt lat="49.38174" lon="0.25963">
        <ele>115</ele>
        <time>2017-03-30T14:25:46Z</time>
      </trkpt>
      <trkpt lat="49.38169" lon="0.2595">
        <ele>117</ele>
        <time>2017-03-30T14:25:53Z</time>
      </trkpt>
      <trkpt lat="49.38166" lon="0.25943">
        <ele>119</ele>
        <time>2017-03-30T14:25:58Z</time>
      </trkpt>
      <trkpt lat="49.38158" lon="0.25936">
        <ele>120</ele>
        <time>2017-03-30T14:26:05Z</time>
      </trkpt>
      <trkpt lat="49.38151" lon="0.25931">
        <ele>119</ele>
        <time>2017-03-30T14:26:12Z</time>
      </trkpt>
      <trkpt lat="49.38149" lon="0.25924">
        <ele>120</ele>
        <time>2017-03-30T14:26:16Z</time>
      </trkpt>
      <trkpt lat="49.38142" lon="0.25914">
        <ele>115</ele>
        <time>2017-03-30T14:26:22Z</time>
      </trkpt>
      <trkpt lat="49.38127" lon="0.25904">
        <ele>109</ele>
        <time>2017-03-30T14:26:31Z</time>
      </trkpt>
      <trkpt lat="49.38122" lon="0.25899">
        <ele>107</ele>
        <time>2017-03-30T14:26:35Z</time>
      </trkpt>
      <trkpt lat="49.38112" lon="0.25889">
        <ele>109</ele>
        <time>2017-03-30T14:26:44Z</time>
      </trkpt>
      <trkpt lat="49.38112" lon="0.25888">
        <ele>110</ele>
        <time>2017-03-30T14:26:46Z</time>
      </trkpt>
      <trkpt lat="49.38111" lon="0.25887">
        <ele>117</ele>
        <time>2017-03-30T14:26:52Z</time>
      </trkpt>
      <trkpt lat="49.3811" lon="0.25883">
        <ele>118</ele>
        <time>2017-03-30T14:26:55Z</time>
      </trkpt>
      <trkpt lat="49.38099" lon="0.25875">
        <ele>112</ele>
        <time>2017-03-30T14:27:02Z</time>
      </trkpt>
      <trkpt lat="49.38094" lon="0.25874">
        <ele>109</ele>
        <time>2017-03-30T14:27:07Z</time>
      </trkpt>
      <trkpt lat="49.38093" lon="0.25873">
        <ele>109</ele>
        <time>2017-03-30T14:27:13Z</time>
      </trkpt>
      <trkpt lat="49.38088" lon="0.2587">
        <ele>110</ele>
        <time>2017-03-30T14:27:20Z</time>
      </trkpt>
      <trkpt lat="49.38078" lon="0.25866">
        <ele>107</ele>
        <time>2017-03-30T14:27:27Z</time>
      </trkpt>
      <trkpt lat="49.38078" lon="0.25865">
        <ele>107</ele>
        <time>2017-03-30T14:27:28Z</time>
      </trkpt>
      <trkpt lat="49.3807" lon="0.25857">
        <ele>106</ele>
        <time>2017-03-30T14:27:34Z</time>
      </trkpt>
      <trkpt lat="49.38062" lon="0.25848">
        <ele>106</ele>
        <time>2017-03-30T14:27:42Z</time>
      </trkpt>
      <trkpt lat="49.38058" lon="0.25844">
        <ele>107</ele>
        <time>2017-03-30T14:27:46Z</time>
      </trkpt>
      <trkpt lat="49.38056" lon="0.25839">
        <ele>107</ele>
        <time>2017-03-30T14:27:52Z</time>
      </trkpt>
      <trkpt lat="49.38048" lon="0.25836">
        <ele>100</ele>
        <time>2017-03-30T14:27:58Z</time>
      </trkpt>
      <trkpt lat="49.38033" lon="0.25825">
        <ele>99</ele>
        <time>2017-03-30T14:28:09Z</time>
      </trkpt>
      <trkpt lat="49.38029" lon="0.25824">
        <ele>101</ele>
        <time>2017-03-30T14:28:12Z</time>
      </trkpt>
      <trkpt lat="49.38024" lon="0.25822">
        <ele>99</ele>
        <time>2017-03-30T14:28:16Z</time>
      </trkpt>
      <trkpt lat="49.3802" lon="0.25816">
        <ele>103</ele>
        <time>2017-03-30T14:28:22Z</time>
      </trkpt>
      <trkpt lat="49.38011" lon="0.25802">
        <ele>103</ele>
        <time>2017-03-30T14:28:33Z</time>
      </trkpt>
      <trkpt lat="49.38011" lon="0.25802">
        <ele>103</ele>
        <time>2017-03-30T14:28:34Z</time>
      </trkpt>
      <trkpt lat="49.38008" lon="0.25799">
        <ele>104</ele>
        <time>2017-03-30T14:28:37Z</time>
      </trkpt>
      <trkpt lat="49.38002" lon="0.25798">
        <ele>108</ele>
        <time>2017-03-30T14:28:43Z</time>
      </trkpt>
      <trkpt lat="49.37998" lon="0.25791">
        <ele>108</ele>
        <time>2017-03-30T14:28:51Z</time>
      </trkpt>
      <trkpt lat="49.37996" lon="0.2579">
        <ele>108</ele>
        <time>2017-03-30T14:28:55Z</time>
      </trkpt>
      <trkpt lat="49.37989" lon="0.25788">
        <ele>109</ele>
        <time>2017-03-30T14:29:01Z</time>
      </trkpt>
      <trkpt lat="49.37979" lon="0.25782">
        <ele>106</ele>
        <time>2017-03-30T14:29:07Z</time>
      </trkpt>
      <trkpt lat="49.37965" lon="0.25777">
        <ele>98</ele>
        <time>2017-03-30T14:29:14Z</time>
      </trkpt>
      <trkpt lat="49.3796" lon="0.25775">
        <ele>101</ele>
        <time>2017-03-30T14:29:20Z</time>
      </trkpt>
      <trkpt lat="49.37956" lon="0.25766">
        <ele>106</ele>
        <time>2017-03-30T14:29:27Z</time>
      </trkpt>
      <trkpt lat="49.37952" lon="0.25762">
        <ele>109</ele>
        <time>2017-03-30T14:29:31Z</time>
      </trkpt>
      <trkpt lat="49.37945" lon="0.25761">
        <ele>108</ele>
        <time>2017-03-30T14:29:37Z</time>
      </trkpt>
      <trkpt lat="49.37936" lon="0.25759">
        <ele>104</ele>
        <time>2017-03-30T14:29:43Z</time>
      </trkpt>
      <trkpt lat="49.37926" lon="0.25755">
        <ele>100</ele>
        <time>2017-03-30T14:29:49Z</time>
      </trkpt>
      <trkpt lat="49.37916" lon="0.25744">
        <ele>98</ele>
        <time>2017-03-30T14:29:55Z</time>
      </trkpt>
      <trkpt lat="49.3791" lon="0.25739">
        <ele>98</ele>
        <time>2017-03-30T14:30:01Z</time>
      </trkpt>
      <trkpt lat="49.37903" lon="0.25734">
        <ele>100</ele>
        <time>2017-03-30T14:30:07Z</time>
      </trkpt>
      <trkpt lat="49.37895" lon="0.25732">
        <ele>102</ele>
        <time>2017-03-30T14:30:13Z</time>
      </trkpt>
      <trkpt lat="49.37887" lon="0.25729">
        <ele>103</ele>
        <time>2017-03-30T14:30:19Z</time>
      </trkpt>
      <trkpt lat="49.37885" lon="0.25727">
        <ele>108</ele>
        <time>2017-03-30T14:30:25Z</time>
      </trkpt>
      <trkpt lat="49.37884" lon="0.25723">
        <ele>111</ele>
        <time>2017-03-30T14:30:28Z</time>
      </trkpt>
      <trkpt lat="49.37875" lon="0.25722">
        <ele>108</ele>
        <time>2017-03-30T14:30:35Z</time>
      </trkpt>
      <trkpt lat="49.37864" lon="0.25718">
        <ele>105</ele>
        <time>2017-03-30T14:30:42Z</time>
      </trkpt>
      <trkpt lat="49.37857" lon="0.25717">
        <ele>102</ele>
        <time>2017-03-30T14:30:46Z</time>
      </trkpt>
      <trkpt lat="49.37849" lon="0.2571">
        <ele>104</ele>
        <time>2017-03-30T14:30:53Z</time>
      </trkpt>
      <trkpt lat="49.37844" lon="0.25708">
        <ele>107</ele>
        <time>2017-03-30T14:30:58Z</time>
      </trkpt>
      <trkpt lat="49.37836" lon="0.25707">
        <ele>109</ele>
        <time>2017-03-30T14:31:04Z</time>
      </trkpt>
      <trkpt lat="49.3783" lon="0.25706">
        <ele>108</ele>
        <time>2017-03-30T14:31:10Z</time>
      </trkpt>
      <trkpt lat="49.37819" lon="0.25703">
        <ele>107</ele>
        <time>2017-03-30T14:31:18Z</time>
      </trkpt>
      <trkpt lat="49.37814" lon="0.25702">
        <ele>108</ele>
        <time>2017-03-30T14:31:23Z</time>
      </trkpt>
      <trkpt lat="49.37804" lon="0.25698">
        <ele>108</ele>
        <time>2017-03-30T14:31:29Z</time>
      </trkpt>
      <trkpt lat="49.37798" lon="0.25699">
        <ele>109</ele>
        <time>2017-03-30T14:31:34Z</time>
      </trkpt>
      <trkpt lat="49.3779" lon="0.25696">
        <ele>105</ele>
        <time>2017-03-30T14:31:42Z</time>
      </trkpt>
      <trkpt lat="49.37784" lon="0.25695">
        <ele>106</ele>
        <time>2017-03-30T14:31:46Z</time>
      </trkpt>
      <trkpt lat="49.37779" lon="0.25696">
        <ele>108</ele>
        <time>2017-03-30T14:31:53Z</time>
      </trkpt>
      <trkpt lat="49.37771" lon="0.25693">
        <ele>106</ele>
        <time>2017-03-30T14:31:58Z</time>
      </trkpt>
      <trkpt lat="49.37766" lon="0.25691">
        <ele>107</ele>
        <time>2017-03-30T14:32:04Z</time>
      </trkpt>
      <trkpt lat="49.37757" lon="0.25691">
        <ele>108</ele>
        <time>2017-03-30T14:32:10Z</time>
      </trkpt>
      <trkpt lat="49.37748" lon="0.25687">
        <ele>112</ele>
        <time>2017-03-30T14:32:16Z</time>
      </trkpt>
      <trkpt lat="49.37741" lon="0.25685">
        <ele>113</ele>
        <time>2017-03-30T14:32:22Z</time>
      </trkpt>
      <trkpt lat="49.37728" lon="0.25681">
        <ele>103</ele>
        <time>2017-03-30T14:32:28Z</time>
      </trkpt>
      <trkpt lat="49.37721" lon="0.25677">
        <ele>100</ele>
        <time>2017-03-30T14:32:34Z</time>
      </trkpt>
      <trkpt lat="49.37711" lon="0.25674">
        <ele>102</ele>
        <time>2017-03-30T14:32:41Z</time>
      </trkpt>
      <trkpt lat="49.37705" lon="0.25673">
        <ele>103</ele>
        <time>2017-03-30T14:32:46Z</time>
      </trkpt>
      <trkpt lat="49.37701" lon="0.25674">
        <ele>106</ele>
        <time>2017-03-30T14:32:52Z</time>
      </trkpt>
      <trkpt lat="49.37691" lon="0.25669">
        <ele>105</ele>
        <time>2017-03-30T14:32:58Z</time>
      </trkpt>
      <trkpt lat="49.37681" lon="0.25662">
        <ele>102</ele>
        <time>2017-03-30T14:33:04Z</time>
      </trkpt>
      <trkpt lat="49.37668" lon="0.25651">
        <ele>104</ele>
        <time>2017-03-30T14:33:15Z</time>
      </trkpt>
      <trkpt lat="49.37667" lon="0.25651">
        <ele>106</ele>
        <time>2017-03-30T14:33:16Z</time>
      </trkpt>
      <trkpt lat="49.37662" lon="0.25648">
        <ele>107</ele>
        <time>2017-03-30T14:33:22Z</time>
      </trkpt>
      <trkpt lat="49.37653" lon="0.25643">
        <ele>105</ele>
        <time>2017-03-30T14:33:28Z</time>
      </trkpt>
      <trkpt lat="49.37643" lon="0.2563">
        <ele>105</ele>
        <time>2017-03-30T14:33:37Z</time>
      </trkpt>
      <trkpt lat="49.37638" lon="0.25627">
        <ele>106</ele>
        <time>2017-03-30T14:33:40Z</time>
      </trkpt>
      <trkpt lat="49.37621" lon="0.25612">
        <ele>103</ele>
        <time>2017-03-30T14:33:49Z</time>
      </trkpt>
      <trkpt lat="49.37618" lon="0.25609">
        <ele>102</ele>
        <time>2017-03-30T14:33:52Z</time>
      </trkpt>
      <trkpt lat="49.37612" lon="0.25604">
        <ele>104</ele>
        <time>2017-03-30T14:33:58Z</time>
      </trkpt>
      <trkpt lat="49.37607" lon="0.25598">
        <ele>104</ele>
        <time>2017-03-30T14:34:04Z</time>
      </trkpt>
      <trkpt lat="49.37604" lon="0.25595">
        <ele>104</ele>
        <time>2017-03-30T14:34:10Z</time>
      </trkpt>
      <trkpt lat="49.37604" lon="0.25594">
        <ele>103</ele>
        <time>2017-03-30T14:34:16Z</time>
      </trkpt>
      <trkpt lat="49.37604" lon="0.25594">
        <ele>103</ele>
        <time>2017-03-30T14:34:19Z</time>
      </trkpt>
      <trkpt lat="49.37604" lon="0.25594">
        <ele>103</ele>
        <time>2017-03-30T14:34:23Z</time>
      </trkpt>
      <trkpt lat="49.37605" lon="0.25594">
        <ele>103</ele>
        <time>2017-03-30T14:34:26Z</time>
      </trkpt>
      <trkpt lat="49.37604" lon="0.25594">
        <ele>104</ele>
        <time>2017-03-30T14:34:28Z</time>
      </trkpt>
      <trkpt lat="49.37604" lon="0.25594">
        <ele>104</ele>
        <time>2017-03-30T14:34:31Z</time>
      </trkpt>
      <trkpt lat="49.37604" lon="0.25594">
        <ele>104</ele>
        <time>2017-03-30T14:34:34Z</time>
      </trkpt>
      <trkpt lat="49.37604" lon="0.25595">
        <ele>104</ele>
        <time>2017-03-30T14:34:37Z</time>
      </trkpt>
      <trkpt lat="49.37604" lon="0.25595">
        <ele>104</ele>
        <time>2017-03-30T14:34:40Z</time>
      </trkpt>
      <trkpt lat="49.37604" lon="0.25595">
        <ele>104</ele>
        <time>2017-03-30T14:34:43Z</time>
      </trkpt>
      <trkpt lat="49.37604" lon="0.25595">
        <ele>104</ele>
        <time>2017-03-30T14:34:46Z</time>
      </trkpt>
      <trkpt lat="49.37604" lon="0.25595">
        <ele>104</ele>
        <time>2017-03-30T14:34:49Z</time>
      </trkpt>
      <trkpt lat="49.37604" lon="0.25595">
        <ele>105</ele>
        <time>2017-03-30T14:34:52Z</time>
      </trkpt>
      <trkpt lat="49.37604" lon="0.25595">
        <ele>105</ele>
        <time>2017-03-30T14:34:55Z</time>
      </trkpt>
      <trkpt lat="49.37604" lon="0.25595">
        <ele>105</ele>
        <time>2017-03-30T14:34:58Z</time>
      </trkpt>
      <trkpt lat="49.37604" lon="0.25595">
        <ele>105</ele>
        <time>2017-03-30T14:35:01Z</time>
      </trkpt>
      <trkpt lat="49.37604" lon="0.25595">
        <ele>105</ele>
        <time>2017-03-30T14:35:04Z</time>
      </trkpt>
      <trkpt lat="49.37604" lon="0.25595">
        <ele>105</ele>
        <time>2017-03-30T14:35:07Z</time>
      </trkpt>
      <trkpt lat="49.37604" lon="0.25595">
        <ele>105</ele>
        <time>2017-03-30T14:35:12Z</time>
      </trkpt>
      <trkpt lat="49.37604" lon="0.25595">
        <ele>105</ele>
        <time>2017-03-30T14:35:13Z</time>
      </trkpt>
      <trkpt lat="49.37604" lon="0.25595">
        <ele>105</ele>
        <time>2017-03-30T14:35:16Z</time>
      </trkpt>
      <trkpt lat="49.37604" lon="0.25595">
        <ele>105</ele>
        <time>2017-03-30T14:35:19Z</time>
      </trkpt>
      <trkpt lat="49.37604" lon="0.25595">
        <ele>105</ele>
        <time>2017-03-30T14:35:22Z</time>
      </trkpt>
      <trkpt lat="49.37604" lon="0.25595">
        <ele>105</ele>
        <time>2017-03-30T14:35:25Z</time>
      </trkpt>
      <trkpt lat="49.37604" lon="0.25595">
        <ele>105</ele>
        <time>2017-03-30T14:35:29Z</time>
      </trkpt>
      <trkpt lat="49.37604" lon="0.25595">
        <ele>105</ele>
        <time>2017-03-30T14:35:31Z</time>
      </trkpt>
      <trkpt lat="49.37604" lon="0.25595">
        <ele>105</ele>
        <time>2017-03-30T14:35:34Z</time>
      </trkpt>
      <trkpt lat="49.37604" lon="0.25595">
        <ele>105</ele>
        <time>2017-03-30T14:35:37Z</time>
      </trkpt>
      <trkpt lat="49.37604" lon="0.25595">
        <ele>105</ele>
        <time>2017-03-30T14:35:40Z</time>
      </trkpt>
      <trkpt lat="49.37604" lon="0.25595">
        <ele>105</ele>
        <time>2017-03-30T14:35:43Z</time>
      </trkpt>
    </trkseg>
  </trk>
</gpx>